[[{"header":{"parameterUnit":"m.s-1","parameterCategory":1,"la1":30.6,"la2":29.2853,"lo1":-89.7004,"lo2":-87.6739,"dy":0.0162,"dx":0.0183,"nx":112,"ny":82,"refTime":"2024-04-25T12:00:00:Z","depth":0,"parameterNumber":2,"parameterNumberName":"U-component_of_WINDS"},"data":[0.0,0.0,0.0,0.0,0.0,0.0,0.0,0.0,0.0,0.0,0.0,0.0,0.0,0.0,0.0,0.0,0.0,0.0,0.0,0.0,0.0,0.0,0.0,0.0,0.0,0.0,0.0,0.0,0.0,0.0,0.0,0.0,0.0,0.0,0.0,0.0,0.0,0.0,0.0,0.0,0.0,0.0,0.0,0.0,0.0,0.0,0.0,0.0,0.0,0.0,0.0,0.0,0.0,0.0,0.0,0.0,0.0,0.0,0.0,0.0,0.0,0.0,0.0,0.0,0.0,0.0,0.0,0.0,0.0,0.0,0.0,0.0,0.0,0.0,0.0,0.0,0.0,0.0,0.0,0.0,0.0,0.0,0.0,0.0,0.0,0.0,0.0,0.0,0.0,0.0,-3.8993,-4.1817,-4.8061,-5.1132,-4.9086,-4.6241,-4.1504,-3.4368,0.0,0.0,0.0,0.0,0.0,0.0,0.0,0.0,0.0,0.0,0.0,0.0,0.0,0.0,0.0,0.0,0.0,0.0,0.0,0.0,0.0,0.0,0.0,0.0,0.0,0.0,0.0,0.0,0.0,0.0,0.0,0.0,0.0,0.0,0.0,0.0,0.0,0.0,0.0,0.0,0.0,0.0,0.0,0.0,0.0,0.0,0.0,0.0,0.0,0.0,0.0,0.0,0.0,0.0,0.0,0.0,0.0,0.0,0.0,0.0,0.0,0.0,0.0,0.0,0.0,0.0,0.0,0.0,0.0,0.0,0.0,0.0,0.0,0.0,0.0,0.0,0.0,0.0,0.0,0.0,0.0,0.0,0.0,0.0,0.0,0.0,0.0,0.0,0.0,0.0,0.0,0.0,0.0,0.0,0.0,0.0,0.0,0.0,0.0,0.0,0.0,0.0,0.0,0.0,-3.9523,-4.5262,-4.7121,-4.7918,-4.8061,-4.457,-4.0539,-3.648,0.0,0.0,0.0,0.0,0.0,0.0,0.0,0.0,0.0,0.0,0.0,0.0,0.0,0.0,0.0,0.0,0.0,0.0,0.0,0.0,0.0,0.0,0.0,0.0,0.0,0.0,0.0,0.0,0.0,0.0,0.0,0.0,0.0,0.0,0.0,0.0,0.0,0.0,0.0,0.0,0.0,0.0,0.0,0.0,0.0,0.0,0.0,0.0,0.0,0.0,0.0,0.0,0.0,0.0,0.0,0.0,0.0,0.0,0.0,0.0,0.0,0.0,0.0,0.0,0.0,0.0,0.0,0.0,0.0,0.0,0.0,0.0,0.0,0.0,0.0,0.0,0.0,0.0,0.0,0.0,0.0,0.0,0.0,0.0,0.0,0.0,0.0,0.0,0.0,0.0,0.0,0.0,0.0,0.0,0.0,0.0,0.0,0.0,0.0,0.0,0.0,0.0,0.0,-3.7308,-4.0235,-4.546,-4.6608,-4.6699,-4.5878,-4.2791,-3.9045,-3.4554,-3.1051,0.0,0.0,0.0,0.0,0.0,0.0,0.0,0.0,0.0,0.0,0.0,0.0,0.0,0.0,0.0,0.0,0.0,0.0,0.0,0.0,0.0,0.0,0.0,0.0,0.0,0.0,0.0,0.0,0.0,0.0,0.0,0.0,0.0,0.0,0.0,0.0,0.0,0.0,0.0,0.0,0.0,0.0,0.0,0.0,0.0,0.0,0.0,0.0,0.0,0.0,0.0,0.0,0.0,0.0,0.0,0.0,0.0,0.0,0.0,0.0,0.0,0.0,0.0,0.0,0.0,0.0,0.0,0.0,0.0,0.0,0.0,0.0,0.0,0.0,0.0,0.0,0.0,0.0,0.0,0.0,0.0,0.0,0.0,0.0,0.0,0.0,0.0,0.0,0.0,0.0,0.0,0.0,0.0,0.0,0.0,0.0,0.0,0.0,0.0,0.0,0.0,0.0,-3.8827,-4.0445,-4.4352,-4.5281,-4.5009,-4.3346,-4.0705,-3.7028,-3.2329,-2.9394,0.0,0.0,0.0,0.0,0.0,0.0,0.0,0.0,0.0,0.0,0.0,0.0,0.0,0.0,0.0,0.0,0.0,0.0,0.0,0.0,0.0,0.0,0.0,0.0,0.0,0.0,0.0,0.0,0.0,0.0,0.0,0.0,0.0,0.0,0.0,0.0,0.0,0.0,0.0,0.0,0.0,0.0,0.0,0.0,0.0,0.0,0.0,0.0,0.0,0.0,0.0,0.0,0.0,0.0,0.0,0.0,0.0,0.0,0.0,0.0,0.0,0.0,0.0,0.0,0.0,0.0,0.0,0.0,0.0,0.0,0.0,0.0,0.0,0.0,0.0,0.0,0.0,0.0,0.0,0.0,0.0,0.0,0.0,0.0,0.0,0.0,0.0,0.0,0.0,0.0,0.0,0.0,0.0,0.0,0.0,0.0,0.0,0.0,0.0,0.0,0.0,0.0,-3.7758,-3.9458,-4.2469,-4.2089,-4.1383,-4.0816,-3.7673,-3.4524,-3.1738,-2.8398,0.0,0.0,0.0,0.0,0.0,0.0,0.0,0.0,0.0,0.0,0.0,0.0,0.0,0.0,0.0,0.0,0.0,0.0,0.0,0.0,0.0,0.0,0.0,0.0,0.0,0.0,0.0,0.0,0.0,0.0,0.0,0.0,0.0,0.0,0.0,0.0,0.0,0.0,0.0,0.0,0.0,0.0,0.0,0.0,0.0,0.0,0.0,0.0,0.0,0.0,0.0,0.0,0.0,0.0,0.0,0.0,0.0,0.0,0.0,0.0,0.0,0.0,0.0,0.0,0.0,0.0,0.0,0.0,0.0,0.0,0.0,0.0,0.0,0.0,0.0,0.0,0.0,0.0,0.0,0.0,0.0,0.0,0.0,0.0,0.0,0.0,0.0,0.0,0.0,0.0,0.0,0.0,0.0,0.0,0.0,0.0,0.0,0.0,0.0,0.0,0.0,0.0,-3.6286,-3.8288,0.0,-4.1006,-4.0605,-4.0176,-3.7461,-3.457,-3.1699,0.0,0.0,0.0,0.0,0.0,0.0,0.0,0.0,0.0,0.0,0.0,0.0,0.0,0.0,0.0,0.0,0.0,0.0,0.0,0.0,0.0,0.0,0.0,0.0,0.0,0.0,0.0,0.0,0.0,0.0,0.0,0.0,0.0,0.0,0.0,0.0,0.0,0.0,0.0,0.0,0.0,0.0,0.0,0.0,0.0,0.0,0.0,0.0,0.0,0.0,0.0,0.0,0.0,0.0,0.0,0.0,0.0,0.0,0.0,0.0,0.0,0.0,0.0,0.0,0.0,0.0,0.0,0.0,0.0,0.0,0.0,0.0,0.0,0.0,0.0,0.0,0.0,0.0,0.0,0.0,0.0,0.0,0.0,0.0,0.0,0.0,0.0,0.0,0.0,0.0,0.0,0.0,0.0,0.0,0.0,0.0,0.0,0.0,0.0,0.0,0.0,0.0,-3.3327,-3.5146,-3.7245,0.0,-4.0332,-4.0156,-3.9707,-3.6914,-3.4082,-3.1484,0.0,0.0,0.0,0.0,0.0,0.0,0.0,0.0,0.0,0.0,0.0,0.0,0.0,0.0,0.0,0.0,0.0,0.0,0.0,0.0,0.0,0.0,0.0,0.0,0.0,0.0,0.0,0.0,0.0,0.0,0.0,0.0,0.0,0.0,0.0,0.0,0.0,0.0,0.0,0.0,0.0,0.0,0.0,0.0,0.0,0.0,0.0,0.0,0.0,0.0,0.0,0.0,0.0,0.0,0.0,0.0,0.0,0.0,0.0,0.0,0.0,0.0,0.0,0.0,0.0,0.0,0.0,0.0,0.0,0.0,0.0,0.0,0.0,0.0,0.0,0.0,0.0,0.0,0.0,0.0,0.0,0.0,0.0,0.0,0.0,0.0,0.0,0.0,0.0,0.0,0.0,0.0,0.0,0.0,0.0,0.0,0.0,0.0,0.0,0.0,0.0,0.0,-3.2922,-3.4512,-3.6562,-3.957,-3.9883,-3.9707,-3.9219,-3.5644,-3.2695,0.0,0.0,0.0,0.0,0.0,0.0,0.0,0.0,0.0,0.0,0.0,0.0,0.0,0.0,0.0,0.0,0.0,0.0,0.0,0.0,0.0,0.0,0.0,0.0,0.0,0.0,0.0,0.0,0.0,0.0,0.0,0.0,0.0,0.0,0.0,0.0,0.0,0.0,0.0,0.0,0.0,0.0,0.0,0.0,0.0,0.0,0.0,0.0,0.0,0.0,0.0,0.0,0.0,0.0,0.0,0.0,0.0,0.0,0.0,0.0,0.0,0.0,0.0,0.0,0.0,0.0,0.0,0.0,0.0,0.0,0.0,0.0,0.0,0.0,0.0,0.0,0.0,0.0,0.0,0.0,0.0,0.0,0.0,0.0,0.0,0.0,0.0,0.0,0.0,0.0,0.0,0.0,0.0,0.0,0.0,0.0,0.0,0.0,0.0,0.0,0.0,0.0,0.0,-3.2177,-3.4412,-3.6758,-3.9141,-3.9707,-3.9336,-3.7969,-3.541,-3.2891,-3.0547,0.0,0.0,0.0,0.0,0.0,0.0,0.0,0.0,0.0,0.0,0.0,0.0,0.0,0.0,0.0,0.0,0.0,0.0,0.0,0.0,0.0,0.0,0.0,0.0,0.0,0.0,0.0,0.0,0.0,0.0,0.0,0.0,0.0,0.0,0.0,0.0,0.0,0.0,0.0,0.0,0.0,0.0,0.0,0.0,0.0,0.0,0.0,0.0,0.0,0.0,0.0,0.0,0.0,0.0,0.0,0.0,0.0,0.0,0.0,0.0,0.0,0.0,0.0,0.0,0.0,0.0,0.0,0.0,0.0,0.0,0.0,0.0,0.0,0.0,0.0,0.0,0.0,0.0,0.0,0.0,0.0,0.0,0.0,0.0,0.0,0.0,0.0,0.0,0.0,0.0,0.0,0.0,0.0,0.0,0.0,0.0,0.0,0.0,0.0,0.0,0.0,0.0,-3.1855,-3.4121,-3.6445,-3.8926,-3.9297,-3.8867,-3.7656,-3.541,-3.3047,-3.0625,0.0,0.0,0.0,0.0,0.0,0.0,0.0,0.0,0.0,0.0,0.0,0.0,0.0,0.0,0.0,0.0,0.0,0.0,0.0,0.0,0.0,0.0,0.0,0.0,0.0,0.0,0.0,0.0,0.0,0.0,0.0,0.0,0.0,0.0,0.0,0.0,0.0,0.0,0.0,0.0,0.0,0.0,0.0,0.0,0.0,0.0,0.0,0.0,0.0,0.0,0.0,0.0,0.0,0.0,0.0,0.0,0.0,0.0,0.0,0.0,0.0,0.0,0.0,0.0,0.0,0.0,0.0,0.0,0.0,0.0,0.0,0.0,0.0,0.0,0.0,0.0,0.0,0.0,0.0,0.0,0.0,0.0,0.0,0.0,0.0,0.0,0.0,0.0,0.0,0.0,0.0,0.0,0.0,0.0,0.0,0.0,0.0,0.0,0.0,0.0,0.0,0.0,-3.1934,-3.3711,-3.5879,-3.8828,-3.8809,-3.8359,-3.7851,-3.5469,-3.3125,-3.1016,0.0,0.0,0.0,0.0,0.0,0.0,0.0,0.0,0.0,0.0,0.0,0.0,0.0,0.0,0.0,0.0,0.0,0.0,0.0,0.0,0.0,0.0,0.0,0.0,0.0,0.0,0.0,0.0,0.0,0.0,0.0,0.0,0.0,0.0,0.0,0.0,0.0,0.0,0.0,0.0,0.0,0.0,0.0,0.0,0.0,0.0,0.0,0.0,0.0,0.0,0.0,0.0,0.0,0.0,0.0,0.0,0.0,0.0,0.0,0.0,-3.6543,0.0,0.0,0.0,0.0,0.0,0.0,0.0,0.0,0.0,0.0,0.0,0.0,0.0,0.0,0.0,0.0,0.0,0.0,0.0,0.0,0.0,0.0,0.0,0.0,0.0,0.0,0.0,0.0,0.0,0.0,0.0,0.0,0.0,0.0,0.0,0.0,0.0,0.0,0.0,0.0,0.0,-3.2344,-3.418,-3.6133,-3.8457,-3.8633,-3.8125,-3.7031,-3.4863,-3.2793,-3.0996,-2.8769,0.0,0.0,0.0,0.0,0.0,0.0,0.0,0.0,0.0,0.0,0.0,0.0,0.0,0.0,0.0,0.0,0.0,0.0,0.0,0.0,0.0,0.0,0.0,0.0,0.0,0.0,0.0,0.0,0.0,0.0,0.0,0.0,0.0,0.0,0.0,0.0,0.0,0.0,0.0,0.0,0.0,0.0,0.0,0.0,0.0,0.0,0.0,0.0,0.0,0.0,0.0,0.0,0.0,0.0,0.0,0.0,0.0,0.0,0.0,0.0,-3.8144,0.0,0.0,0.0,0.0,0.0,0.0,0.0,0.0,0.0,0.0,0.0,0.0,0.0,0.0,0.0,0.0,0.0,0.0,0.0,0.0,0.0,0.0,0.0,0.0,0.0,0.0,0.0,0.0,0.0,0.0,0.0,0.0,0.0,0.0,0.0,0.0,0.0,0.0,0.0,0.0,-3.248,-3.4121,-3.5879,-3.8027,-3.8262,-3.7832,-3.6758,-3.5059,-3.332,-3.1601,-2.9668,0.0,0.0,0.0,0.0,0.0,0.0,0.0,0.0,0.0,0.0,0.0,0.0,0.0,0.0,0.0,0.0,0.0,0.0,0.0,0.0,0.0,0.0,0.0,0.0,0.0,0.0,0.0,0.0,0.0,0.0,0.0,0.0,0.0,0.0,0.0,0.0,0.0,0.0,0.0,0.0,0.0,0.0,0.0,0.0,0.0,0.0,0.0,0.0,0.0,0.0,0.0,0.0,0.0,-4.7383,-4.8203,-4.8984,-4.8984,-4.9043,-4.8887,-4.4902,-4.2324,-4.082,0.0,0.0,0.0,0.0,0.0,0.0,0.0,0.0,0.0,0.0,0.0,0.0,0.0,0.0,0.0,0.0,0.0,0.0,0.0,0.0,0.0,0.0,0.0,0.0,0.0,-3.6211,-3.5898,0.0,0.0,0.0,0.0,0.0,0.0,0.0,0.0,0.0,0.0,0.0,0.0,-3.2734,-3.4062,-3.5644,-3.7812,-3.7969,-3.7617,-3.6855,-3.5508,-3.4004,-3.2383,-3.0566,-2.9078,0.0,0.0,0.0,0.0,0.0,0.0,0.0,0.0,0.0,0.0,0.0,0.0,0.0,0.0,0.0,0.0,0.0,0.0,0.0,0.0,0.0,0.0,0.0,0.0,0.0,0.0,0.0,0.0,0.0,0.0,0.0,0.0,-3.7246,-3.6992,0.0,0.0,0.0,0.0,0.0,0.0,0.0,0.0,0.0,0.0,0.0,0.0,0.0,-4.582,-4.7344,-4.9707,-5.0644,-5.0156,-5.248,-5.3066,-5.2109,-5.2109,-5.2324,-5.2617,-5.1621,0.0,-4.4766,-4.2754,0.0,0.0,0.0,0.0,0.0,0.0,0.0,0.0,0.0,0.0,0.0,0.0,0.0,0.0,0.0,0.0,0.0,0.0,0.0,0.0,0.0,0.0,-3.7422,-3.7109,-3.6855,-3.6543,0.0,-3.4551,-3.2988,-3.209,0.0,0.0,0.0,0.0,0.0,0.0,0.0,0.0,-3.3633,-3.4726,-3.6113,-3.8262,-3.8144,-3.7734,-3.7266,-3.5664,-3.4121,-3.2793,-3.0742,-2.9215,-2.8242,-2.7324,0.0,0.0,0.0,0.0,0.0,0.0,0.0,0.0,0.0,0.0,0.0,0.0,0.0,0.0,0.0,0.0,0.0,0.0,0.0,0.0,0.0,0.0,0.0,0.0,0.0,0.0,0.0,0.0,0.0,-3.9043,-4.0391,-3.9238,-4.0508,-4.041,0.0,0.0,0.0,0.0,0.0,0.0,0.0,0.0,0.0,-4.791,-4.9062,-5.0351,-5.1836,-5.3926,-5.5019,-5.5156,-5.6562,-5.7148,-5.7031,-5.6562,-5.6582,-5.6933,-5.6015,-5.416,-5.1484,-4.7363,-4.4238,-4.1875,0.0,0.0,0.0,0.0,-3.8711,-3.9023,-3.9746,-3.998,0.0,0.0,0.0,0.0,0.0,0.0,0.0,0.0,0.0,0.0,0.0,0.0,0.0,-3.9101,-3.9336,-3.9355,-3.8633,-3.7344,-3.5644,0.0,-3.2402,-3.1621,-3.041,0.0,0.0,0.0,0.0,-3.1562,-3.3457,-3.4473,-3.5644,-3.7324,-3.7344,-3.6953,-3.6289,-3.5293,-3.416,-3.2871,-3.1465,-3.0176,-2.9062,-2.8184,-2.7539,0.0,0.0,0.0,0.0,0.0,0.0,0.0,0.0,0.0,0.0,0.0,0.0,0.0,0.0,0.0,0.0,0.0,0.0,0.0,0.0,0.0,0.0,0.0,0.0,0.0,0.0,0.0,0.0,-4.1973,-4.3476,-4.1426,-4.3652,-4.3789,0.0,0.0,0.0,0.0,0.0,0.0,-4.7168,-4.7812,-4.9433,-5.2344,-5.3808,-5.5156,-5.6465,-5.8086,-5.9062,-5.9512,-5.998,-6.039,-6.0723,-6.0,-5.9824,-6.0058,-5.8887,-5.7851,-5.668,-5.1484,-4.7715,-4.5019,-4.3203,-4.209,-4.1504,-4.1504,-4.1777,-4.2285,-4.3125,-4.3418,-4.332,-4.2695,0.0,-3.9648,-3.7617,0.0,0.0,0.0,0.0,-3.7012,-3.8535,-3.9473,-4.0195,-4.0723,-4.125,-4.1387,-4.043,-3.9531,-3.7988,0.0,-3.3984,-3.3164,-3.1328,0.0,0.0,0.0,0.0,-3.1836,-3.3535,-3.4414,-3.5371,-3.6699,-3.6738,-3.6367,-3.5625,-3.4922,-3.4043,-3.2871,-3.1894,-3.082,-2.9685,-2.8848,-2.8203,-2.7728,0.0,0.0,0.0,0.0,0.0,0.0,0.0,0.0,0.0,0.0,0.0,0.0,0.0,0.0,0.0,0.0,0.0,0.0,0.0,0.0,0.0,0.0,0.0,0.0,0.0,0.0,0.0,0.0,0.0,-4.3301,-4.7031,0.0,0.0,0.0,0.0,-4.5937,-4.7148,-4.9004,-5.1621,-5.2558,-5.4199,-5.6816,-5.8555,-6.0039,-6.1367,-6.2695,-6.2949,-6.2187,-6.2637,-6.2402,-6.166,-6.1191,-6.1015,-6.0976,-6.0098,-5.9238,-5.8125,-5.4121,-5.1191,-4.9023,-4.6875,-4.5293,-4.4199,-4.4199,-4.4473,-4.4785,-4.4453,-4.4336,-4.4512,-4.5664,-4.4336,-4.1933,-4.0215,-3.8516,0.0,0.0,-3.7812,-3.8652,-3.959,-4.0156,-4.0703,-4.1543,-4.1465,-4.1191,-4.1113,-4.043,-3.918,0.0,-3.5488,-3.4336,-3.3418,0.0,-3.207,-3.2051,-3.2131,-3.2715,-3.4414,-3.5059,-3.584,-3.7129,-3.6914,-3.6484,-3.6035,-3.4824,-3.373,-3.2851,-3.1621,-3.0508,-2.9665,-2.9141,-2.8496,-2.7728,-2.7689,0.0,0.0,0.0,0.0,0.0,0.0,0.0,0.0,0.0,0.0,0.0,0.0,0.0,0.0,0.0,0.0,0.0,0.0,0.0,0.0,0.0,0.0,0.0,0.0,0.0,0.0,0.0,0.0,-4.9687,-5.2422,0.0,-4.918,-4.9277,-5.0039,-5.1191,-5.2461,-5.4199,-5.6523,-5.7715,-5.9258,-6.1308,-6.2246,-6.3203,-6.4199,-6.4668,-6.4609,-6.4023,-6.3906,-6.3555,-6.293,-6.2246,-6.1777,-6.1484,-6.0898,-6.0273,-5.9629,-5.7676,-5.5293,-5.2656,-5.0762,-4.9414,-4.8457,-4.791,-4.7793,-4.791,-4.7754,-4.7519,-4.7031,-4.5547,-4.4062,-4.2519,-4.082,-3.9863,-3.9434,-3.9707,-4.0019,-4.0508,-4.166,-4.2051,-4.2168,-4.2207,-4.209,-4.1836,-4.1289,-4.0937,-4.0332,-3.9004,-3.7012,-3.5195,-3.4043,-3.3359,-3.2969,-3.2969,-3.3223,-3.3711,-3.459,-3.5098,-3.5664,-3.6406,-3.6094,-3.5566,-3.4824,-3.4082,-3.3164,-3.2051,-3.1543,-3.0898,-3.0,-2.9824,-2.9336,-2.8496,-2.8476,-2.8125,0.0,0.0,0.0,0.0,0.0,0.0,0.0,0.0,0.0,0.0,0.0,0.0,0.0,0.0,0.0,0.0,0.0,0.0,0.0,0.0,0.0,0.0,0.0,0.0,0.0,-4.9766,-5.3066,-5.3906,-5.6699,-5.7344,-5.4316,-5.4414,-5.5098,-5.6113,-5.7246,-5.8711,-6.0625,-6.166,-6.2754,-6.4082,-6.4668,-6.5293,-6.5996,-6.5996,-6.5703,-6.5176,-6.4726,-6.414,-6.3457,-6.2715,-6.2187,-6.1894,-6.1328,-6.0918,-6.0605,-5.9746,-5.8203,-5.623,-5.4336,-5.291,-5.1816,-5.125,-5.0762,-5.0351,-5.0058,-4.957,-4.8711,-4.6426,-4.5098,-4.4082,-4.2519,-4.1933,-4.1855,-4.1992,-4.2148,-4.2422,-4.3105,-4.3281,-4.3144,-4.2558,-4.2324,-4.2031,-4.1328,-4.1172,-4.0957,-4.0254,-3.8476,-3.668,-3.5391,-3.457,-3.4082,-3.4082,-3.4082,-3.4277,-3.4863,-3.5195,-3.5508,-3.5781,-3.5293,-3.4648,-3.3926,-3.3184,-3.2422,-3.1562,-3.1387,-3.0976,-3.0234,-3.0195,-2.9805,-2.8945,-2.8926,-2.8711,-2.8354,0.0,0.0,0.0,0.0,0.0,0.0,0.0,0.0,0.0,0.0,0.0,0.0,0.0,0.0,0.0,0.0,0.0,0.0,0.0,0.0,0.0,0.0,0.0,-4.6973,-5.2637,-5.6387,-5.5664,-5.9648,-6.0976,-5.7246,-5.8769,-6.0156,-6.0547,-6.1426,-6.2461,-6.3691,-6.4199,-6.4609,-6.5,-6.582,-6.6465,-6.6914,-6.6875,-6.6465,-6.5644,-6.5176,-6.4316,-6.3105,-6.2637,-6.2422,-6.2363,-6.1504,-6.1133,-6.1035,-6.0156,-5.9805,-5.959,-5.7461,-5.5605,-5.4121,-5.4082,-5.3242,-5.1973,-5.1133,-5.0273,-4.9394,-4.8516,-4.7656,-4.6738,-4.5469,-4.4785,-4.4355,-4.3887,-4.4062,-4.4297,-4.3848,-4.3711,-4.3476,-4.2637,-4.2109,-4.168,-4.1269,-4.1172,-4.1035,-4.0605,-3.9824,-3.8828,-3.7559,-3.6289,-3.5449,-3.5449,-3.4707,0.0,-3.5332,-3.543,-3.541,-3.541,-3.4629,-3.3926,-3.3457,-3.2266,-3.1543,-3.1504,-3.1113,-3.0684,-3.0234,-3.0215,-2.9824,-2.8984,-2.8945,-2.9141,-2.9626,0.0,0.0,0.0,0.0,0.0,0.0,0.0,0.0,0.0,0.0,0.0,0.0,0.0,0.0,0.0,0.0,0.0,0.0,0.0,0.0,0.0,-4.7773,-5.0937,-5.1933,-5.5488,-5.8945,-6.1543,-6.3262,-6.4082,-6.3613,-6.3848,-6.4043,-6.414,-6.5234,-6.582,-6.5527,-6.6523,-6.7031,-6.6797,-6.7324,-6.7715,-6.7832,-6.75,-6.7207,-6.6972,-6.5918,-6.5234,-6.4844,-6.414,-6.3437,-6.2812,-6.2578,-6.1953,-6.1035,-6.0488,-6.0098,-5.9648,-5.8086,-5.7031,-5.623,-5.5293,-5.3926,-5.2422,-5.1562,-5.0703,-4.9844,-4.8965,-4.8301,-4.7676,-4.6699,-4.6113,-4.5683,-4.5254,-4.4785,-4.4375,-4.4238,-4.373,-4.3105,-4.2558,-4.2109,-4.168,-4.1269,-4.1172,-4.1035,-4.0605,-4.0078,-3.9394,-3.8398,-3.7422,-3.6777,-3.6777,-3.6309,0.0,-3.6289,-3.6055,-3.5859,-3.5859,-3.5351,-3.459,-3.3516,-3.2812,-3.2051,-3.1113,-3.0957,-3.084,-3.0703,-3.0703,-3.043,-2.9863,-2.9551,-2.9453,0.0,0.0,0.0,0.0,0.0,0.0,0.0,0.0,0.0,0.0,0.0,0.0,0.0,0.0,0.0,0.0,0.0,0.0,0.0,0.0,0.0,0.0,-5.1973,-5.5625,-5.7793,-5.957,-6.1836,-6.5,-6.5762,-6.6328,-6.7207,-6.709,-6.6914,-6.6914,-6.7617,-6.7832,-6.7324,-6.8008,-6.8301,-6.8066,-6.8476,-6.8711,-6.8711,-6.8086,-6.7676,-6.75,-6.6387,-6.5644,-6.5293,-6.4609,-6.3848,0.0,-6.2812,-6.2226,-6.1308,-6.0683,-6.0273,0.0,0.0,0.0,0.0,0.0,-5.3887,-5.2617,-5.1933,-5.1269,-5.0566,-4.9687,-4.9238,-4.8848,-4.7773,-4.7168,-4.6719,-4.6113,-4.5449,-4.4844,-4.4492,-4.3867,-4.3183,-4.2578,-4.2109,-4.168,-4.1269,-4.1172,-4.1094,-4.084,0.0,0.0,-3.9238,-3.8262,-3.7559,-3.7559,-3.7051,-3.668,-3.668,-3.6289,-3.5957,-3.5781,-3.5215,-3.4375,-3.3262,-3.2598,0.0,0.0,0.0,-3.0898,-3.0898,-3.0703,0.0,0.0,0.0,-2.9922,-3.0117,0.0,0.0,0.0,-2.9473,-2.9336,0.0,0.0,0.0,0.0,0.0,0.0,0.0,0.0,0.0,0.0,0.0,0.0,0.0,0.0,0.0,0.0,-5.6191,-5.9765,-6.3515,-6.414,-6.4902,-6.6797,-6.7441,-6.8066,-6.8867,-6.8945,-6.8984,-6.9043,-6.9043,-6.9043,-6.9043,0.0,0.0,0.0,0.0,-6.9492,-6.9433,-6.8594,-6.7949,-6.75,-6.6562,-6.5762,-6.5,-6.4492,-6.3789,-6.3027,-6.2539,-6.207,-6.1523,-6.0742,-6.0371,-6.0156,-5.9355,-5.8242,-5.6836,-5.4902,-5.3594,0.0,0.0,0.0,0.0,-5.0371,-5.0078,-4.9805,-4.8574,-4.791,-4.7402,-4.6543,-4.5957,-4.541,-4.4609,-4.4023,-4.3437,-4.2617,-4.2109,-4.168,-4.1269,-4.1172,-4.1172,-4.1172,-4.082,-4.0391,-3.9961,-3.8887,-3.8047,-3.8008,-3.7324,-3.6797,-3.6738,-3.6367,-3.5937,-3.5508,0.0,0.0,-3.3008,-3.2187,-3.1504,-3.0996,-3.0918,-3.0898,-3.0898,-3.0488,-3.0469,-3.0879,-3.0488,-3.0488,-3.0898,-3.0469,-3.0488,-3.0859,-3.0019,-2.9724,0.0,0.0,0.0,0.0,0.0,0.0,0.0,0.0,0.0,0.0,0.0,0.0,0.0,0.0,0.0,-5.6211,-5.9765,-6.3047,-6.584,-6.6875,-6.748,-6.789,-6.8594,-6.9297,-6.9805,-6.9863,-6.998,-7.0312,-7.0371,-7.0371,-7.0371,-7.0371,-7.0371,-7.0371,-7.0097,-6.9805,-6.9433,-6.8594,-6.7949,-6.75,0.0,0.0,-6.541,-6.4316,-6.3515,-6.3027,-6.2539,-6.1719,-6.0664,-6.0488,-5.9805,-5.8828,-5.832,-5.7324,-5.6094,-5.5332,-5.4277,-5.3125,-5.2344,-5.1348,-5.0332,-4.9824,-4.9414,-4.9004,-4.8379,-4.791,0.0,-4.6543,-4.5742,-4.5039,-4.4531,-4.3808,-4.3066,-4.2558,-4.2109,-4.168,-4.1269,-4.1172,-4.1172,-4.1172,-4.082,-4.0391,-3.9961,-3.9375,-3.8848,-3.8496,-3.8008,-3.7559,-3.7226,-3.6797,-3.6387,-3.5937,-3.5449,-3.4785,-3.3906,-3.3359,-3.2578,-3.1465,-3.1074,-3.0898,-3.0898,-3.0801,-3.0801,-3.0898,-3.0801,-3.0801,-3.0898,-3.0801,-3.0801,-3.0879,-3.0332,-3.0273,0.0,0.0,0.0,0.0,0.0,0.0,0.0,0.0,0.0,0.0,0.0,-4.7363,-4.9726,0.0,-5.6836,-6.0508,-6.3633,-6.6211,-6.791,-6.9121,-6.9531,-6.8887,-6.9394,-6.9922,-7.0371,-7.0781,-7.1133,-7.1347,-7.1367,-7.1367,-7.1367,-7.1172,-7.0957,-7.0722,-7.0722,-7.0312,-6.9453,-6.8808,-6.8183,-6.75,-6.664,-6.5996,-6.5547,-6.4707,-6.3848,-6.3027,-6.2539,-6.1777,-6.0742,-6.0312,-5.9355,-5.8183,-5.7969,-5.707,-5.5859,-5.5234,-5.416,-5.291,-5.2051,-5.1191,-5.0391,-4.9746,-4.9375,-4.9121,-4.8672,-4.8086,-4.7441,-4.6797,-4.584,-4.4922,-4.4512,-4.375,-4.3027,-4.2812,-4.2266,-4.1738,-4.1523,-4.1328,-4.1172,-4.1172,-4.0996,-4.0644,-4.0,-3.9707,-3.9316,-3.8672,-3.8203,-3.7773,-3.7344,-3.6934,-3.6504,-3.6074,-3.543,-3.4785,-3.4121,-3.3281,-3.2519,-3.1875,-3.1445,-3.1211,-3.1211,-3.0996,-3.0898,-3.0898,-3.0898,-3.0898,-3.0898,-3.0898,-3.0898,-3.0879,-3.0644,-3.0664,0.0,0.0,0.0,0.0,0.0,0.0,0.0,-4.4394,-4.5215,-4.7461,-4.9297,-5.1465,-5.4687,-5.7969,-6.125,-6.4551,-6.6972,-6.8769,-6.9707,-7.0722,-7.1015,-7.0039,-7.0312,-7.0722,-7.1074,-7.1816,-7.2226,-7.2226,-7.2168,-7.2109,-7.2109,-7.1719,-7.1308,-7.084,-7.1133,-7.0605,-6.9336,-6.8926,-6.8242,-6.7383,-6.6933,-6.6348,-6.5586,-6.5058,-6.418,-6.2988,-6.2305,-6.1543,-6.0801,-6.0,-5.8965,-5.7871,-5.7871,-5.7031,-5.5723,-5.5058,-5.3906,-5.2598,-5.1836,-5.1172,-5.0547,-4.9785,-4.9473,-4.9297,-4.8769,-4.8125,-4.7461,-4.6855,-4.5879,-4.4922,-4.4512,-4.3808,-4.3183,-4.3105,-4.248,-4.1894,-4.1816,-4.1465,-4.1172,-4.1172,-4.1172,-4.0898,-4.0039,-3.9902,-3.959,-3.8711,-3.8203,-3.7773,-3.7344,-3.6934,-3.6504,-3.6074,-3.5312,-3.4629,-3.4121,-3.3047,-3.2383,-3.2285,-3.1875,-3.1641,-3.1641,-3.125,-3.1016,-3.1016,-3.0937,-3.0898,-3.0898,-3.0898,-3.0937,-3.1016,-3.1016,-3.0976,-4.5234,-4.3984,-4.3457,-4.4414,-4.4453,-4.5332,0.0,-5.0176,-5.0664,-5.3223,-5.5098,-5.6973,-5.9277,-6.1933,-6.4609,-6.7324,-6.8652,-6.9746,-7.0976,-7.1269,-7.1484,-7.1699,-7.2109,-7.2402,-7.2461,-7.291,-7.3144,-7.3144,-7.2812,-7.2637,-7.2637,-7.2168,-7.1719,-7.1308,-7.0957,-7.0195,-6.8887,-6.8476,-6.7793,-6.6933,-6.6504,-6.6055,-6.5586,-6.4765,-6.3906,-6.293,-6.1367,-6.039,-5.9922,-5.9453,-5.8711,-5.7871,-5.7871,-5.6836,-5.5371,-5.5273,-5.416,-5.2637,-5.2168,-5.123,-5.0176,-4.9687,-4.9258,-4.8769,-4.7969,-4.7656,-4.7324,-4.6152,-4.543,-4.4922,-4.4512,-4.4023,-4.3535,-4.3164,-4.2715,-4.2266,-4.1875,-4.1465,-4.1172,-4.1172,-4.1172,-4.0898,-4.0039,-3.9902,-3.959,-3.8711,-3.8203,-3.7773,-3.7344,-3.6934,-3.6504,-3.6074,-3.5605,-3.498,-3.4141,-3.3594,-3.3125,-3.2754,-3.2324,-3.209,-3.209,-3.168,-3.1445,-3.1445,-3.1074,-3.0898,-3.0898,-3.0898,-3.1074,-3.1445,-3.1445,-3.125,-4.6465,-4.5742,-4.5508,-4.6308,-4.75,-4.9199,-5.1933,-5.3203,-5.4394,-5.6484,-5.8672,-6.0801,-6.2695,-6.539,-6.7832,-6.9394,-7.084,-7.1816,-7.2109,-7.1719,-7.1152,-7.0605,-7.0898,-7.1484,-7.2226,-7.2695,-7.2969,-7.2969,-7.3027,-7.2969,-7.2695,-7.2226,-7.1699,-7.1015,-7.0312,-6.9492,-6.8476,-6.8008,-6.75,-6.6875,-6.6445,-6.5996,-6.5527,-6.4433,-6.3223,-6.1836,-6.084,-6.0215,-5.9746,-5.9062,-5.8437,-5.7812,-5.7305,-5.6367,-5.5254,-5.4746,-5.3769,-5.2539,-5.1387,-5.0625,-5.0058,-4.9355,-4.9004,-4.875,-4.8125,-4.7773,-4.7422,-4.6621,-4.5918,-4.5312,-4.4883,-4.4433,-4.4004,-4.3555,-4.293,-4.2383,-4.2207,-4.1641,-4.1172,-4.1172,-4.1172,-4.0976,-4.0371,-4.0059,-3.9668,-3.9043,-3.8359,-3.7773,-3.7344,-3.6934,-3.6406,-3.5723,-3.5254,-3.4746,-3.4121,-3.3672,-3.334,-3.3164,-3.2773,-3.2539,-3.2539,-3.2129,-3.1894,-3.1894,-3.1719,-3.1504,-3.125,-3.1504,-3.1601,-3.1523,-3.1777,-3.166,-4.6953,-4.6933,-4.7383,-4.8535,-5.0683,-5.2969,-5.4726,-5.6387,-5.8008,-5.9746,-6.1777,-6.3789,-6.5527,-6.7832,-6.9805,-7.0898,-7.2226,-7.3086,-7.2871,-7.1894,-7.0781,-6.959,-6.9219,-6.9453,-7.0664,-7.1816,-7.2519,-7.2519,-7.291,-7.2969,-7.2519,-7.2051,-7.1484,-7.0722,-7.0019,-6.916,-6.8183,-6.7851,-6.7383,-6.6875,-6.6445,-6.5996,-6.5527,-6.4023,-6.2519,-6.1035,-6.0508,-6.0039,-5.959,-5.8828,-5.8203,-5.7617,-5.6875,-5.5918,-5.4863,-5.4121,-5.3359,-5.25,-5.1035,-5.0371,-5.0058,-4.9297,-4.8867,-4.8594,-4.8164,-4.7734,-4.7305,-4.6875,-4.6152,-4.543,-4.5117,-4.4629,-4.4082,-4.3633,-4.2969,-4.2402,-4.2285,-4.168,-4.1172,-4.1172,-4.1172,-4.1035,-4.0605,-4.0176,-3.9746,-3.9277,-3.8476,-3.7812,-3.75,-3.7012,-3.6387,-3.5644,-3.5254,-3.4902,-3.4473,-3.4023,-3.373,-3.3613,-3.3203,-3.2969,-3.2969,-3.2559,-3.2344,-3.2344,-3.2109,-3.1894,-3.1699,-3.1894,-3.1953,-3.1875,-3.2187,-3.2226,-4.6445,-4.6933,-4.8262,-5.1211,-5.3574,-5.5957,-5.8945,-6.0625,-6.2051,-6.3789,-6.4844,-6.6035,-6.7773,-6.8828,-7.0039,-7.1699,-7.2402,-7.2851,-7.3262,-7.1816,-7.043,-6.957,-6.7617,-6.668,-6.7558,-7.0273,-7.1992,-7.1992,-7.2461,-7.2519,-7.2051,-7.1601,-7.1191,-7.0722,-7.0312,-6.9453,-6.8183,-6.8183,-6.7734,-6.6875,-6.6445,-6.5996,-6.5527,-6.3398,-6.1914,-6.1035,-6.0215,-5.959,-5.918,-5.8711,-5.8008,-5.7187,-5.6758,-5.5547,-5.4023,-5.3555,-5.3086,-5.2578,-5.1699,-5.0859,-5.0098,-4.9648,-4.8926,-4.8144,-4.7734,-4.7285,-4.6855,-4.6445,-4.5703,-4.5039,-4.5039,-4.4375,-4.3613,-4.3203,-4.2754,-4.2305,-4.1914,-4.1484,-4.1172,-4.1172,-4.1172,-4.1035,-4.0605,-4.0176,-3.9746,-3.9277,-3.8476,-3.791,-3.791,-3.7187,-3.6504,-3.6055,-3.5996,-3.5801,-3.5391,-3.4922,-3.4492,-3.4082,-3.3633,-3.3398,-3.3398,-3.3008,-3.2773,-3.2773,-3.1953,-3.1738,-3.2148,-3.1738,-3.1953,-3.2754,-3.2773,-3.2988,-4.7871,-4.9668,-5.2207,-5.5527,-5.7793,-5.9765,-6.2226,-6.3574,-6.4375,-6.4648,-6.4941,-6.5351,-6.5918,-6.6972,-6.8301,-7.0019,-7.164,-7.2754,-7.2871,-7.1894,-6.998,-6.6855,-6.6055,-6.5351,-6.4199,-6.6816,0.0,-7.0605,-7.1426,-7.1601,-7.1172,-7.1308,-7.0898,-6.9902,-6.9219,-6.8476,-6.7734,-6.7441,-6.7148,-6.6875,-6.5859,-6.4824,-6.3848,-6.2519,-6.1484,-6.0625,-6.0039,-5.9414,-5.8711,-5.8262,-5.7578,-5.6719,-5.6015,-5.5039,-5.3945,-5.3203,-5.2656,-5.2129,-5.0996,-5.041,-5.0058,-4.9316,-4.8887,-4.8555,-4.8125,-4.7695,-4.7266,-4.6836,-4.6308,-4.5742,-4.5176,-4.4805,-4.4394,-4.3672,-4.2949,-4.2383,-4.2246,-4.166,-4.1172,-4.1172,-4.1172,-4.1133,-4.0976,-4.0605,-4.0059,-3.9316,-3.8476,-3.7812,-3.7539,-3.7266,-3.7031,-3.6894,-3.6367,-3.5957,-3.582,-3.5117,-3.4629,-3.4492,-3.4355,-3.4141,-3.3867,-3.3711,-3.3516,-3.3223,-3.293,-3.2715,-3.2578,-3.2715,-3.2793,-3.2793,-3.3086,-3.3144,-5.0371,-5.2793,-5.5605,-5.9238,-6.1308,-6.293,-6.4609,-6.541,-6.5586,-6.4883,-6.4199,-6.3672,-6.3379,-6.3515,-6.4492,-6.6972,-6.8574,-7.0039,-7.1543,-7.0332,-6.8301,-6.5703,-6.4707,-6.3789,-6.2715,-6.4375,-6.6523,-6.8984,-7.0097,-7.0605,-7.0488,-7.0781,-7.0449,-6.9512,-6.8769,-6.8125,-6.75,-6.7207,-6.6797,-6.6172,-6.5019,-6.3789,-6.2519,-6.1836,-6.1015,-6.0195,-5.9765,-5.918,-5.8476,-5.8027,-5.7265,-5.6269,-5.541,-5.4453,-5.3476,-5.2754,-5.2109,-5.1484,-5.0508,-5.0176,-5.0039,-4.9141,-4.875,-4.8555,-4.8105,-4.7676,-4.7266,-4.6816,-4.6406,-4.5957,-4.541,-4.5039,-4.4609,-4.3867,-4.3164,-4.2578,-4.2266,-4.1777,-4.1348,-4.1211,-4.1172,-4.1172,-4.1172,-4.0684,-4.0,-3.9121,-3.8516,-3.8008,-3.7578,-3.7519,-3.7402,-3.7109,-3.6582,-3.6191,-3.6035,-3.5351,-3.4941,-3.4941,-3.4785,-3.4512,-3.4082,-3.4082,-3.3867,-3.3437,-3.3281,-3.3144,-3.3008,-3.3144,-3.3144,-3.3027,-3.3301,-3.3281,-5.3652,-5.6152,-5.8437,-6.2226,-6.4082,-6.5234,-6.5996,-6.6152,-6.5703,-6.4375,-6.2637,-6.1074,-6.0156,-5.8769,-5.9004,-6.2871,-6.373,-6.5351,-6.957,-6.7676,-6.5937,-6.6172,-6.3672,-6.2226,-6.2988,-6.3105,-6.4316,-6.7265,0.0,-6.9551,-6.998,-7.0078,-6.9863,-6.9414,-6.9004,-6.8359,-6.748,-6.7441,-6.6562,-6.4883,-6.4023,-6.293,-6.166,-6.1211,-6.0566,-5.9746,-5.9355,-5.8887,-5.8418,-5.7969,-5.7051,-5.582,-5.498,-5.3848,-5.2656,-5.2207,-5.1523,-5.0742,-5.0293,-5.0137,-5.0,-4.9141,-4.8555,-4.8125,-4.7734,-4.7285,-4.6836,-4.6445,-4.6035,-4.5703,-4.5683,-4.5078,-4.4355,-4.3887,-4.3437,-4.2891,-4.207,-4.1855,-4.168,-4.1289,-4.1191,-4.1172,-4.1172,-4.0488,-3.9648,-3.8809,-3.8652,-3.8476,-3.8027,-3.7969,-3.7656,-3.6855,-3.6758,-3.6562,-3.6133,-3.5703,-3.5449,-3.543,-3.5019,-3.459,-3.416,-3.4121,-3.3906,-3.3457,-3.3047,-3.3027,-3.3418,-3.3027,-3.3027,-3.3418,-3.3418,-3.3418,-5.584,-5.9238,-6.2519,-6.4433,-6.541,-6.5879,-6.5762,-6.5019,-6.3691,-6.1426,-5.8555,-5.6015,-5.4492,-5.5176,-5.7129,-6.0683,-6.4199,-6.7558,-7.0625,-7.0097,-6.8633,-6.6445,-6.5527,-6.4668,-6.3613,-6.4082,-6.5176,0.0,-6.7656,-6.834,-6.9101,-6.9746,-6.9629,-6.8535,-6.8418,-6.791,-6.7031,-6.6406,-6.5371,-6.3984,-6.3105,-6.2187,-6.1211,-6.0449,-5.9863,-5.9297,-5.8887,-5.8242,-5.7519,-5.709,-5.6348,-5.539,-5.4531,-5.3594,-5.2617,-5.1875,-5.125,-5.0703,-4.9961,-4.9687,-4.9609,-4.9043,-4.8555,-4.8183,-4.8086,-4.7519,-4.6914,-4.6797,-4.6465,-4.6074,-4.5762,-4.5508,-4.5234,-4.4785,-4.4101,-4.3496,-4.3262,-4.2461,-4.1758,-4.166,-4.1387,-4.1172,-4.1172,-4.0723,-4.0293,-4.0059,-3.9766,-3.9277,-3.8516,-3.8418,-3.832,-3.8105,-3.7793,-3.7422,-3.7012,-3.6582,-3.6211,-3.5879,-3.5742,-3.5488,-3.5078,-3.4726,-3.4336,-3.3906,-3.3476,-3.332,-3.3418,-3.332,-3.332,-3.3418,-3.3418,-3.3418,-5.9238,-6.2363,-6.5019,-6.5937,-6.6348,-6.5996,-6.4043,-6.293,-6.1074,-5.6973,-5.4316,-5.2012,-4.9687,-5.0879,-5.3379,-5.7031,-6.1133,-6.5293,-6.9394,-6.9277,-6.8476,-6.7715,-6.6972,-6.6113,-6.5195,-6.5527,-6.6172,-6.709,-6.7207,-6.7715,-6.875,-6.9101,-6.8945,-6.8203,-6.8008,-6.7441,-6.6582,-6.5527,-6.4492,-6.3398,-6.2305,-6.1367,-6.0508,-6.0039,-5.959,-5.918,0.0,-5.8125,-5.7441,-5.6836,-5.5976,-5.4941,-5.4082,-5.3086,-5.207,-5.1406,-5.0762,-5.0176,-4.9687,-4.9394,-4.9199,-4.8945,-4.8691,-4.8457,-4.8262,-4.7754,-4.7168,-4.6992,-4.6621,-4.625,-4.6016,-4.582,-4.5625,-4.5371,-4.4785,-4.4238,-4.4043,-4.3144,-4.2187,-4.1641,-4.1328,-4.1113,-4.0918,-4.0684,-4.0469,-4.0273,-4.0039,-3.9726,-3.9219,-3.8984,-3.8711,-3.834,-3.8066,-3.7754,-3.7324,-3.709,-3.6758,-3.6328,-3.6309,-3.6035,-3.541,-3.5137,-3.4805,-3.4355,-3.3926,-3.3789,-3.3984,-3.3613,-3.3516,-3.3711,-3.3711,-3.3613,-6.3047,-6.5254,-6.668,-6.7031,-6.6972,-6.5762,-6.1894,-6.0332,-5.8008,-5.2129,-5.0019,-4.8379,-4.5586,-4.666,-4.9277,-5.3359,-5.707,-6.1543,-6.7598,-6.7422,-6.7383,-6.9375,-6.8183,-6.7207,-6.7207,-6.7207,-6.7383,-6.7734,-6.7324,-6.7558,-6.8652,-6.8418,-6.8242,-6.8086,-6.7598,-6.6914,-6.6152,-6.4883,-6.3789,-6.293,-6.1601,-6.0566,-5.9805,-5.9746,-5.9512,-5.9062,0.0,0.0,-5.7715,-5.6797,-5.5723,-5.459,-5.3633,-5.2558,-5.1445,-5.0918,-5.0254,-4.959,-4.9473,-4.918,-4.8867,-4.8867,-4.8808,-4.8691,-4.832,-4.7871,-4.7422,-4.7031,-4.6621,-4.6308,-4.6308,-4.6035,-4.5762,-4.5762,-4.543,-4.5019,-4.4648,-4.3789,-4.2715,-4.1504,-4.1211,-4.1055,-4.0684,-4.0605,-4.0488,-4.0117,-4.0059,-4.0039,-3.998,-3.957,-3.8984,-3.8184,-3.8086,-3.7891,-3.7422,-3.7383,-3.7207,-3.6777,-3.6699,-3.6348,-3.5586,-3.5449,-3.5195,-3.4805,-3.4375,-3.4336,-3.4707,-3.3945,-3.3789,-3.416,-3.416,-3.3945,-6.5234,-6.7031,-6.8398,-6.8476,-6.7383,-6.5293,-6.1426,-5.8027,-5.4277,-4.9277,-4.6152,-4.3828,-4.2246,-4.4512,-4.8262,-5.3223,-5.7793,-6.2871,-6.8926,-6.9277,-6.9297,-7.0371,-6.9629,-6.9004,-6.9004,-6.9004,-6.9043,0.0,-6.8418,-6.8066,-6.8301,-6.8535,-6.8359,-6.7617,-6.6855,-6.6211,-6.5703,-6.4433,-6.334,-6.248,-6.1191,-6.0273,-5.9805,-5.9473,-5.9062,-5.8594,-5.8183,0.0,-5.7226,-5.6015,-5.5195,-5.4551,-5.3301,-5.248,-5.1836,-5.0703,-5.0195,-4.9961,-4.9219,-4.8926,-4.8867,-4.8867,-4.8613,-4.8301,-4.8223,-4.7656,-4.7031,-4.6953,-4.6621,-4.6308,-4.6308,-4.625,-4.6191,-4.6191,-4.5879,-4.5547,-4.5469,-4.4199,-4.2812,-4.1875,-4.1406,-4.1152,-4.1074,-4.1055,-4.1035,-4.0957,-4.0957,-4.082,-4.0469,-4.0039,-3.957,-3.9043,-3.8984,-3.8652,-3.7871,-3.7812,-3.7637,-3.7226,-3.6855,-3.6601,-3.6465,-3.5762,-3.5351,-3.5273,-3.4824,-3.4629,-3.4707,-3.4551,-3.4512,-3.459,-3.459,-3.4551,-6.6914,-6.8359,-6.9336,-6.8652,-6.668,-6.3515,-5.8301,-5.4453,-5.0391,-4.4746,-4.2773,-4.1621,-4.0098,-4.3008,-4.6738,-5.0117,-5.4082,-5.9004,-6.5527,-6.6055,-6.6992,-7.0312,-6.998,-6.9629,-7.0078,-6.9726,-6.9433,-6.9433,-6.8867,-6.8535,-6.8535,-6.8242,-6.7832,-6.7207,-6.6562,-6.5996,-6.5586,-6.4316,-6.3223,-6.2363,-6.1074,-6.0215,-5.9805,-5.9355,-5.8945,-5.8535,-5.8027,0.0,-5.7109,-5.584,-5.5058,-5.4551,-5.3223,-5.2305,-5.1621,-5.0566,-5.0039,-4.9746,-4.9082,-4.8867,-4.8867,-4.8867,-4.8711,-4.8535,-4.8535,-4.7949,-4.7266,-4.7266,-4.6797,-4.6308,-4.6308,-4.6308,-4.6308,-4.6308,-4.6152,-4.582,-4.5156,-4.4355,-4.3437,-4.2344,-4.1797,-4.1504,-4.1504,-4.1308,-4.1172,-4.1172,-4.1172,-4.1094,-4.0879,-4.0684,-4.0312,-3.9629,-3.9551,-3.9297,-3.8652,-3.8594,-3.832,-3.7656,-3.7441,-3.7226,-3.7012,-3.6601,-3.6289,-3.6055,-3.584,-3.5605,-3.5391,-3.5176,-3.5059,-3.5059,-3.5059,-3.4922,-6.8183,-6.9336,-6.998,-6.8887,-6.5996,-6.1777,-5.5586,-5.1406,-4.7129,-4.1133,-4.0273,-4.0234,-3.8945,-4.1719,-4.4941,-4.7207,-5.0234,-5.4707,-6.166,-6.2715,-6.4668,-6.9844,-7.0019,-6.9961,-7.0664,-7.0137,-6.9629,-6.9453,-6.8984,0.0,-6.8535,-6.7773,-6.7207,-6.6875,-6.6348,-6.5879,-6.5469,-6.4199,-6.3164,-6.2363,-6.1074,-6.0273,-5.9922,-5.9414,-5.8945,-5.8535,-5.8027,0.0,0.0,-5.5801,-5.5,-5.4414,-5.3183,-5.2246,-5.1465,-5.0625,-5.0039,-4.9609,-4.916,-4.8945,-4.8867,-4.8867,-4.8867,-4.8867,-4.8867,-4.832,-4.7715,-4.7715,-4.7168,-4.6582,-4.6582,-4.6504,-4.6426,-4.6328,-4.6308,-4.5996,-4.4902,-4.4609,-4.416,-4.293,-4.2363,-4.2012,-4.1836,-4.1523,-4.1269,-4.1191,-4.1172,-4.1172,-4.1172,-4.1172,-4.0918,-4.0234,-4.0078,-3.9844,-3.9394,-3.9258,-3.8926,-3.8242,-3.8027,-3.7773,-3.7441,-3.7344,-3.7148,-3.6816,-3.6816,-3.6582,-3.6152,-3.5918,-3.5762,-3.5664,-3.5762,-3.5547,-6.9004,-6.998,-7.0547,-7.0039,-6.6172,-6.1094,-5.582,-5.0469,-4.5332,-4.082,-3.9316,-3.8887,-3.9101,-4.0449,-4.2851,-4.6914,-4.9492,-5.3379,-6.0273,-6.293,-6.5469,-6.916,-7.0195,-7.0644,-7.0722,-7.0664,-7.0254,-6.9492,-6.8691,0.0,-6.7656,-6.7168,-6.6914,-6.6875,-6.6055,-6.541,-6.5,-6.373,-6.2871,-6.2363,-6.1074,-6.043,-6.0371,-5.9531,-5.8945,-5.8535,-5.8027,0.0,0.0,-5.5683,-5.4824,-5.4004,-5.3066,-5.2422,-5.1914,-5.1055,-5.0488,-5.0058,-4.9629,-4.9199,-4.8867,-4.8867,-4.8867,-4.8867,-4.8867,-4.8535,-4.8144,-4.8144,-4.7812,-4.7461,-4.7461,-4.7168,-4.6777,-4.6387,-4.6308,-4.6172,-4.5664,-4.5254,-4.4687,-4.3769,-4.3242,-4.2715,-4.1933,-4.1758,-4.1621,-4.123,-4.1172,-4.1172,-4.1172,-4.1172,-4.1152,-4.1055,-4.0703,-4.0293,-3.9863,-3.9453,-3.916,-3.9082,-3.8359,-3.791,-3.7871,-3.75,-3.7285,-3.7246,-3.7246,-3.7031,-3.6621,-3.6953,-3.6934,-3.6562,-3.6953,-3.6894,-6.7734,-6.9453,-7.0488,-6.957,-6.5058,-5.9531,-5.4609,-4.8945,-4.3672,-3.9883,-3.8828,-3.8633,-3.8789,-3.9453,-4.0898,-4.3652,-4.4394,-4.6836,-5.3242,-5.5098,-5.8242,-6.4824,-6.6562,-6.8164,-7.0488,-7.0488,-6.9863,-6.8769,-6.8125,0.0,-6.7148,-6.6972,-6.6758,-6.6504,-6.5644,-6.5,-6.4551,-6.3281,-6.2539,-6.2363,-6.1074,-6.043,-6.039,-5.957,-5.8789,-5.8144,-5.793,0.0,0.0,-5.5547,-5.4805,-5.3945,-5.3047,-5.2461,-5.1973,-5.1113,-5.0547,-5.0117,-4.9687,-4.9238,-4.8867,-4.8867,-4.8867,-4.8867,-4.8867,-4.8555,-4.8203,-4.8203,-4.791,-4.7578,-4.7578,-4.7246,-4.6894,-4.6719,-4.6484,-4.6191,-4.5762,-4.5547,-4.5234,-4.4609,-4.3926,-4.334,-4.3008,-4.2305,-4.1738,-4.1582,-4.1328,-4.1172,-4.1172,-4.1172,-4.1172,-4.1172,-4.1016,-4.0742,-4.0312,-4.0098,-3.9766,-3.9238,-3.8887,-3.8574,-3.832,-3.8164,-3.7949,-3.7676,-3.793,-3.7734,-3.7051,-3.7461,-3.7461,-3.7051,-3.7226,-3.7207,-6.5703,-6.8242,-6.9844,-6.8574,-6.3691,-5.8027,-5.3379,-4.7754,-4.2578,-3.9258,-3.8574,-3.8574,-3.8574,-3.8809,-3.9551,-4.1152,-4.1133,-4.2871,-4.8555,-5.0156,-5.3418,-6.0664,-6.2637,-6.4883,-6.8633,-6.9453,-6.9277,-6.8262,0.0,0.0,-6.6875,-6.6758,-6.6523,-6.6211,-6.5293,-6.4551,-6.414,-6.2949,-6.2305,-6.2187,-6.1015,-6.043,-6.039,-5.957,-5.8711,-5.7871,0.0,0.0,0.0,-5.543,-5.4805,-5.3945,-5.3047,-5.2519,-5.2168,-5.1308,-5.0723,-5.0293,-4.9863,-4.9433,-4.9043,-4.8906,-4.8867,-4.8867,-4.8867,-4.8652,-4.8398,-4.8398,-4.8183,-4.793,-4.7793,-4.7441,-4.709,-4.6953,-4.6601,-4.625,-4.6094,-4.5957,-4.5762,-4.5469,-4.4805,-4.416,-4.3769,-4.2969,-4.2285,-4.2031,-4.1738,-4.1504,-4.1367,-4.1367,-4.1308,-4.1191,-4.1172,-4.1055,-4.0742,-4.0605,-4.0254,-3.9629,-3.9473,-3.9277,-3.8984,-3.8965,-3.8828,-3.8516,-3.8809,-3.8594,-3.7871,-3.8301,-3.8281,-3.7871,-3.7871,-3.7715,-6.3105,-6.623,-6.8535,-6.7207,-6.2363,-5.6758,-5.2422,-4.7109,-4.2226,-3.9199,-3.8574,-3.8574,-3.8574,-3.8574,-3.9004,-4.0332,-4.123,-4.3457,-4.8242,-5.0723,-5.3516,-5.7441,-5.9062,-6.1191,-6.4648,-6.7305,-6.8652,-6.8242,0.0,0.0,-6.6875,-6.6445,-6.6211,-6.6211,-6.5,-6.414,-6.3691,-6.2812,-6.2129,-6.1719,-6.084,-6.043,-6.039,-5.957,-5.8711,0.0,0.0,0.0,0.0,-5.5312,-5.4805,-5.3945,-5.3047,-5.2715,-5.2598,-5.1738,-5.1152,-5.0742,-5.0312,-4.9883,-4.9453,-4.9004,-4.8867,-4.8867,-4.8867,-4.894,-4.8848,-4.8848,-4.8848,-4.875,-4.832,-4.7891,-4.7461,-4.7031,-4.6601,-4.6426,-4.6816,-4.6582,-4.6289,-4.6289,-4.5937,-4.5234,-4.3926,-4.3691,-4.3398,-4.2539,-4.2422,-4.2266,-4.1836,-4.1797,-4.1641,-4.1211,-4.1172,-4.1172,-4.1172,-4.0781,-4.0527,-4.0508,-4.0117,-3.9883,-3.9883,-3.9883,-3.9883,-3.9883,-3.9883,-3.9648,-3.918,-3.9648,-3.9629,-3.918,-3.918,-3.873,-5.6133,-5.8711,-6.0508,-5.8945,-5.5762,-5.2148,-4.8711,-4.5176,-4.1855,-3.9141,-3.8574,-3.8574,-3.8574,-3.834,-3.8945,-4.1426,-4.1562,-4.2617,-4.6191,-4.9043,-5.2539,-5.7305,-6.3164,-6.7148,-6.7949,0.0,-6.8183,-6.7734,0.0,0.0,-6.6875,-6.6172,-6.5644,-6.5351,-6.4375,-6.3515,-6.2773,-6.1914,-6.1426,-6.1269,-6.043,-5.998,-5.998,-5.9414,0.0,0.0,0.0,0.0,0.0,-5.5,-5.4199,-5.3066,-5.25,-5.209,-5.1797,-5.1523,-5.1172,-5.0742,-5.0332,-4.9902,-4.9453,-4.9004,-4.8867,-4.8867,-4.8867,-4.8867,-4.8867,-4.8867,-4.8867,-4.8828,-4.8691,-4.8125,-4.7539,-4.7402,-4.7051,-4.6777,-4.6894,-4.7051,-4.709,-4.6797,-4.6387,-4.5879,-4.5176,-4.4297,-4.3613,-4.334,-4.2812,-4.2383,-4.2246,-4.2226,-4.207,-4.1641,-4.1601,-4.1484,-4.1191,-4.1055,-4.084,-4.0547,-4.0391,-4.0195,-3.9902,-3.9902,-3.9902,-3.9902,-3.9902,-3.9824,-3.9668,-3.9824,-3.9824,-3.9668,-3.9355,-3.9062,-5.084,-5.3789,-5.5683,-5.4277,-5.1855,-4.9121,-4.6426,-4.3691,-4.1113,-3.9004,-3.8574,-3.8574,-3.8574,-3.8359,-3.8789,-4.0664,-4.082,-4.168,-4.4531,-4.7676,-5.166,-5.6992,-6.3437,-6.7324,0.0,-6.7558,-6.7793,0.0,0.0,0.0,-6.664,-6.582,-6.5058,-6.4492,-6.3789,-6.3105,-6.2363,-6.1504,-6.1094,-6.1094,-6.0215,-5.9746,-5.957,-5.9121,0.0,0.0,0.0,0.0,0.0,-5.4668,-5.3848,-5.2891,-5.2305,-5.1914,-5.166,-5.1484,-5.1269,-5.0957,-5.0371,-5.0,-4.9668,-4.9062,-4.8867,-4.8867,-4.8867,-4.8867,-4.8867,-4.8867,-4.8867,-4.8867,-4.8867,-4.834,-4.7812,-4.7812,-4.748,-4.7226,-4.7383,-4.7363,-4.7305,-4.7187,-4.6699,-4.6172,-4.5742,-4.5,-4.4394,-4.4219,-4.375,-4.3281,-4.2949,-4.291,-4.2676,-4.209,-4.2031,-4.1875,-4.1445,-4.1269,-4.1055,-4.0781,-4.0762,-4.0644,-4.0391,-4.0371,-4.0371,-4.0371,-4.0371,-4.0371,-4.0371,-4.0371,-4.0293,-4.0117,-3.9844,-3.9609,0.0,-5.0566,-5.2949,-5.2031,-4.9707,-4.7109,-4.5039,-4.2422,0.0,-3.8789,-3.8535,-3.8555,-3.8613,-3.8574,-3.8594,-3.8769,-3.9492,-4.0918,-4.3476,-4.7109,-5.1523,-5.6973,-6.1015,-6.334,-6.3223,-6.582,-6.75,0.0,0.0,0.0,-6.6211,-6.5351,-6.4492,-6.3672,-6.3223,-6.2754,-6.2305,-6.1484,-6.1035,-6.1035,-6.0156,-5.9531,-5.9121,-5.8711,0.0,0.0,0.0,0.0,0.0,-5.4336,-5.3691,-5.3183,-5.2363,-5.2031,-5.1992,-5.1582,-5.1406,-5.1269,-5.0449,-5.0156,-5.0,-4.9141,-4.8867,-4.8867,-4.8867,-4.8867,-4.8867,-4.8867,-4.8867,-4.8867,-4.8867,-4.8535,-4.8203,-4.8203,-4.791,-4.7734,-4.8125,-4.7598,-4.7168,-4.7519,-4.6933,-4.625,-4.5801,-4.5703,-4.5547,-4.5137,-4.5039,-4.4726,-4.3906,-4.3769,-4.3437,-4.2598,-4.25,-4.2305,-4.1875,-4.1465,-4.1211,-4.1211,-4.1191,-4.1191,-4.1211,-4.1191,-4.1172,-4.1172,-4.1172,-4.1172,-4.1172,-4.1172,-4.0976,-4.0566,-4.0527,-4.0312,-4.0351,0.0,-4.4394,-4.3203,-4.2617,-4.1933,0.0,-3.9785,-3.9238,-3.8281,-3.8086,-3.8281,-3.8926,-3.8516,-3.873,-4.0723,-4.1211,-4.2266,-4.4844,-5.1289,-5.7226,-6.1191,-6.4824,-6.6445,-6.5117,-6.6504,0.0,0.0,0.0,-6.6172,-6.5762,-6.4941,-6.4082,-6.3203,-6.2754,-6.2305,-6.1894,-6.1015,-6.0605,-6.0566,-5.9746,-5.9121,-5.8711,-5.8594,0.0,0.0,0.0,0.0,-5.4765,-5.3887,-5.3066,-5.2324,-5.1797,-5.1582,-5.1582,-5.1465,-5.123,-5.0879,-5.0351,-4.9961,-4.959,-4.9043,-4.8867,-4.8867,-4.8867,-4.8867,-4.8867,-4.8867,-4.8867,-4.8867,-4.8867,-4.8535,-4.8203,-4.8203,-4.8125,-4.8086,-4.8183,-4.8301,-4.8242,-4.7695,-4.7422,-4.7031,-4.6289,-4.5879,-4.5644,-4.5547,-4.5234,-4.4961,-4.4746,-4.4433,-4.4023,-4.3457,-4.3125,-4.2754,-4.2324,-4.1894,-4.166,-4.166,-4.1348,-4.1308,-4.1641,-4.1348,-4.1172,-4.1172,-4.1172,-4.1172,-4.1172,-4.1172,-4.1113,-4.1016,-4.0684,-4.0469,-3.7754,-3.9394,-4.0996,-4.0117,-3.9902,-3.9726,-3.9023,-3.8594,-3.8262,-3.7969,-3.7773,-3.7891,-3.875,-3.8379,-3.8516,-4.0312,-4.1113,-4.3242,-4.8203,-5.373,-5.8848,-6.3105,-6.5449,-6.6562,0.0,0.0,0.0,0.0,0.0,-6.5937,-6.5351,-6.4492,-6.3633,-6.2754,-6.2129,-6.166,-6.1426,-6.0781,-6.0332,-6.0156,-5.9297,-5.8652,-5.8203,-5.8027,-5.7558,0.0,0.0,0.0,-5.459,-5.3516,-5.2676,-5.2031,-5.1601,-5.1426,-5.1426,-5.1426,-5.1289,-5.0996,-5.0391,-4.9766,-4.918,-4.8945,-4.8867,-4.8867,-4.8867,-4.8867,-4.8867,-4.8867,-4.8867,-4.8867,-4.8867,-4.8672,-4.8496,-4.8496,-4.8496,-4.8496,-4.8496,-4.8535,-4.8418,-4.7949,-4.7558,-4.7129,-4.666,-4.6406,-4.6191,-4.5996,-4.5918,-4.5762,-4.5371,-4.5117,-4.4805,-4.4355,-4.4101,-4.3789,-4.3359,-4.293,-4.25,-4.2109,-4.1875,-4.1758,-4.1797,-4.1582,-4.1367,-4.1172,-4.1172,-4.1172,-4.1172,-4.1172,-4.1172,-4.1172,-4.0937,-4.082,-3.7461,-3.8984,-4.0371,-3.9746,-3.9355,-3.9062,-3.8945,-3.8027,-3.7305,-3.7656,-3.75,-3.7559,-3.8418,-3.8496,-3.8711,-3.9551,-4.1191,-4.4922,-5.2266,-5.5469,-5.8828,-6.3555,-6.4765,0.0,-6.6465,0.0,0.0,0.0,0.0,-6.5644,-6.4765,-6.3965,-6.3066,-6.2187,-6.1484,-6.1035,-6.0898,-6.0508,-6.0156,-5.9805,-5.8945,-5.8262,-5.7754,-5.7383,-5.6914,0.0,0.0,0.0,-5.4394,-5.3203,-5.2422,-5.1953,-5.1582,-5.1387,-5.1328,-5.1328,-5.125,-5.1035,-5.0254,-4.9492,-4.8867,-4.8867,-4.8867,-4.8867,-4.8867,-4.8867,-4.8867,-4.8867,-4.8867,-4.8867,-4.8867,-4.8867,-4.8867,-4.8867,-4.8867,-4.8867,-4.8867,-4.8574,-4.8281,-4.8223,-4.7617,-4.7109,-4.7051,-4.7031,-4.6914,-4.6543,-4.6797,-4.6738,-4.5976,-4.582,-4.5605,-4.5176,-4.5058,-4.4883,-4.4531,-4.4141,-4.3594,-4.2871,-4.2578,-4.2266,-4.1914,-4.1894,-4.1699,-4.1269,-4.1269,-4.123,-4.1172,-4.1172,-4.1172,-4.1172,-4.1172,-4.1172,-3.8184,-3.9434,-4.0156,-3.8613,-3.8457,-3.8476,-3.7754,-3.7168,-3.6777,-3.6855,-3.709,-3.7559,-3.8418,-3.9726,-4.0957,-4.1797,-4.5195,-4.9648,-5.5215,-5.791,-6.0273,-6.293,0.0,-6.623,-6.5351,0.0,0.0,0.0,0.0,-6.4765,-6.3926,-6.3047,-6.2187,-6.1328,-6.1152,-6.0742,-6.0,-5.9922,-5.9863,-5.9805,-5.8945,-5.8125,-5.7305,-5.7246,-5.6582,0.0,0.0,-5.4648,-5.3516,-5.2949,-5.2246,-5.1523,-5.1465,-5.1211,-5.0898,-5.0898,-5.0449,-4.9746,-4.9238,-4.8965,-4.8867,-4.8867,-4.8867,-4.8867,-4.8867,-4.8867,-4.8867,-4.8867,-4.8867,-4.8867,-4.8867,-4.8867,-4.8867,-4.8867,-4.8867,-4.8867,-4.8867,-4.8808,-4.8652,-4.8281,-4.8105,-4.7891,-4.7539,-4.748,-4.7461,-4.7402,-4.7441,-4.7305,-4.6797,-4.6426,-4.6055,-4.5625,-4.5254,-4.5,-4.4941,-4.4863,-4.4766,-4.4629,-4.3242,-4.2402,-4.2344,-4.2324,-4.2129,-4.1719,-4.1699,-4.1523,-4.1172,-4.1172,-4.1172,-4.1172,-4.1172,-4.1172,-3.709,-3.7969,-3.875,-3.8652,-3.9297,-3.9687,-3.8574,-3.7812,-3.748,-3.7949,-3.7812,-3.8047,-3.9375,-4.1035,-4.3242,-4.6445,-4.9805,-5.334,-5.7109,-5.9101,-6.1133,0.0,0.0,-6.5879,0.0,0.0,0.0,0.0,0.0,0.0,0.0,0.0,-6.1953,-6.1094,-6.0859,-6.0449,-5.9805,-5.9355,-5.9238,-5.9473,-5.8594,-5.7969,-5.7539,-5.6836,-5.6211,-5.5605,0.0,-5.4141,-5.3301,-5.2637,-5.1992,-5.1426,-5.1426,-5.1172,-5.0781,-5.0547,-5.0215,-4.9824,-4.9375,-4.9062,-4.8867,-4.8867,-4.8867,-4.8867,-4.8867,-4.8867,-4.8867,-4.8867,-4.8867,-4.8867,-4.8867,-4.8867,-4.8867,-4.8867,-4.8867,-4.8867,-4.8867,-4.8867,-4.8808,-4.8594,-4.8359,-4.8144,-4.7949,-4.791,-4.7851,-4.7617,-4.7773,-4.7773,-4.7344,-4.7109,-4.6914,-4.6719,-4.6523,-4.6308,-4.6074,-4.584,-4.5527,-4.5058,-4.4062,-4.3379,-4.3125,-4.2891,-4.2461,-4.1816,-4.2031,-4.1933,-4.1504,-4.1738,-4.1855,-4.1836,-4.1621,-4.1504,-3.6816,-3.7246,-3.7851,-3.8926,-3.9805,-4.0351,-4.0156,-3.9297,-3.8828,-3.9883,-3.9668,-3.9648,-4.0898,-4.3105,-4.6308,-5.1074,-5.4121,-5.6777,-5.9394,-6.0742,-6.2402,-6.4941,-6.5351,0.0,0.0,0.0,0.0,0.0,0.0,0.0,0.0,0.0,-6.168,-6.0801,-6.0449,-6.0039,-5.9512,-5.8867,-5.8711,-5.9004,-5.8144,-5.7656,-5.7519,-5.6426,-5.5781,-5.543,-5.4453,-5.3672,-5.3008,-5.2363,-5.1836,-5.1426,-5.1426,-5.1113,-5.0586,-5.0058,-4.9863,-4.9824,-4.9492,-4.9141,-4.8867,-4.8867,-4.8867,-4.8867,-4.8867,-4.8867,-4.8867,-4.8867,-4.8867,-4.8867,-4.8867,-4.8867,-4.8867,-4.8867,-4.8867,-4.8867,-4.8867,-4.8867,-4.8867,-4.8867,-4.8594,-4.8359,-4.8359,-4.8359,-4.8242,-4.793,-4.8164,-4.8203,-4.7773,-4.7734,-4.7695,-4.7598,-4.7578,-4.7441,-4.7109,-4.6777,-4.6269,-4.5527,-4.4883,-4.4394,-4.4023,-4.3613,-4.3027,-4.2266,-4.2461,-4.2363,-4.1953,-4.2266,-4.2422,-4.2422,-4.1992,-4.1797,-3.918,-3.9062,-3.8594,-3.9082,-3.8672,-3.8965,-4.209,-4.1523,-4.0801,-4.2461,-4.3066,-4.3203,-4.2949,-4.6601,-5.084,-5.4394,-5.748,-6.0332,-6.293,-6.4082,-6.5,-6.5996,-6.6465,0.0,0.0,0.0,0.0,0.0,0.0,0.0,0.0,0.0,0.0,-5.9922,-5.9863,-5.9453,-5.8652,-5.8574,-5.8535,-5.8594,-5.7676,-5.7051,-5.666,-5.6152,-5.5293,-5.416,-5.4062,-5.332,-5.2168,-5.2109,-5.1836,-5.1426,-5.1426,-5.0937,-5.0117,-4.9258,-4.8945,-4.8945,-4.8906,-4.8887,-4.8867,-4.8867,-4.8867,-4.8867,-4.8867,-4.8867,-4.8867,-4.8867,-4.8867,-4.8867,-4.8867,-4.8867,-4.8867,-4.8867,-4.8867,-4.8867,-4.8867,-4.8867,-4.8867,-4.8867,-4.8828,-4.8808,-4.8808,-4.8808,-4.8808,-4.8769,-4.8789,-4.8652,-4.8223,-4.8164,-4.8008,-4.7617,-4.7578,-4.7578,-4.7539,-4.75,-4.7285,-4.6816,-4.5664,-4.4961,-4.4941,-4.4531,-4.4062,-4.3574,-4.3223,-4.2812,-4.2383,-4.2402,-4.2422,-4.2422,-4.1992,-4.1797,-3.7715,-3.8027,-3.834,-3.9023,-3.9766,-4.0879,-4.2988,-4.3398,-4.3965,-4.623,-4.6816,-4.7109,-4.7754,-5.0,-5.2793,-5.5976,-5.9238,-6.2012,-6.3808,-6.5019,-6.5937,-6.6562,0.0,0.0,0.0,0.0,0.0,0.0,0.0,0.0,0.0,0.0,0.0,-5.9824,-5.957,-5.9121,-5.8535,-5.7969,-5.7715,-5.7715,-5.7363,-5.7129,-5.6933,-5.5976,-5.5137,-5.4394,-5.3574,-5.2773,-5.2051,-5.1797,-5.1582,-5.1406,-5.1152,-5.1016,-5.0859,-5.0,-4.9687,-4.9648,-4.9375,-4.9101,-4.8867,-4.8867,-4.8867,-4.8867,-4.8867,-4.8867,-4.8867,-4.8867,-4.8867,-4.8867,-4.8867,-4.8867,-4.8867,-4.8867,-4.8867,-4.8867,-4.8867,-4.8867,-4.8867,-4.8867,-4.8867,-4.8867,-4.8867,-4.8867,-4.8867,-4.8867,-4.8867,-4.8808,-4.8633,-4.8613,-4.8555,-4.8398,-4.8125,-4.7969,-4.7969,-4.7734,-4.75,-4.7344,-4.6621,-4.5976,-4.5449,-4.5273,-4.4863,-4.4141,-4.4238,-4.4082,-4.3652,-4.3652,-4.3652,-4.3633,-4.2637,-4.2187,-3.6777,-3.6992,-3.7519,-3.8379,-4.0019,-4.209,-4.4726,-4.5898,-4.7305,-5.0312,-5.0469,-5.0351,-5.123,-5.2461,-5.418,-5.6797,-6.0332,-6.3223,-6.4551,-6.5703,-6.6465,0.0,0.0,0.0,0.0,0.0,0.0,0.0,0.0,0.0,0.0,0.0,0.0,0.0,-5.9121,-5.8711,-5.8125,-5.7383,-5.6953,-5.6797,-5.668,-5.6758,-5.6973,-5.5683,-5.4883,-5.4414,-5.3223,-5.2402,-5.1855,-5.1562,-5.1348,-5.1191,-5.0781,-5.0703,-5.0762,-5.0176,-4.998,-4.9922,-4.9629,-4.9336,-4.9043,-4.8906,-4.8867,-4.8867,-4.8867,-4.8867,-4.8867,-4.8867,-4.8867,-4.8867,-4.8867,-4.8867,-4.8867,-4.8867,-4.8867,-4.8867,-4.8867,-4.8867,-4.8867,-4.8867,-4.8867,-4.8867,-4.8867,-4.8867,-4.8867,-4.8867,-4.8867,-4.8867,-4.8867,-4.8867,-4.8867,-4.8867,-4.8594,-4.8418,-4.8418,-4.8144,-4.793,-4.7793,-4.75,-4.6953,-4.6113,-4.582,-4.541,-4.4805,-4.4941,-4.4883,-4.459,-4.4453,-4.4394,-4.4375,-4.3183,-4.2637,-3.7012,-3.6348,-3.623,-3.7109,-3.8965,-4.2031,-4.7617,-4.9219,-5.0644,-5.4531,-5.3965,-5.2754,-5.2754,-5.3828,-5.5254,-5.6953,-6.0859,-6.414,-6.541,-6.6289,-6.6699,0.0,0.0,0.0,0.0,0.0,0.0,0.0,0.0,0.0,0.0,0.0,0.0,0.0,-5.8535,-5.8086,-5.7207,-5.6797,-5.6367,-5.5918,-5.5488,-5.5742,-5.6523,-5.5254,-5.4433,-5.3965,-5.3086,-5.2226,-5.1426,-5.1426,-5.1172,-5.0762,-5.0351,-4.9922,-4.9531,-4.9531,-4.9531,-4.9531,-4.9531,-4.9531,-4.9453,-4.9004,-4.8867,-4.8867,-4.8867,-4.8867,-4.8867,-4.8867,-4.8867,-4.8867,-4.8867,-4.8867,-4.8867,-4.8867,-4.8867,-4.8867,-4.8867,-4.8867,-4.8867,-4.8867,-4.8867,-4.8867,-4.8867,-4.8867,-4.8867,-4.8867,-4.8867,-4.8867,-4.8867,-4.8867,-4.8867,-4.8867,-4.8867,-4.8867,-4.8867,-4.8867,-4.8672,-4.8242,-4.8203,-4.7832,-4.6973,-4.6133,-4.5683,-4.5683,-4.5254,-4.5039,-4.5039,-4.4609,-4.4414,-4.4394,-4.3496,-4.3086,-3.6484,-3.6562,-3.7187,-3.834,-4.1641,-4.5664,-4.9746,-5.0762,-5.2148,-5.664,-5.6426,-5.543,-5.543,-5.625,-5.709,-5.7578,-6.0801,-6.3457,-6.414,-6.5254,0.0,0.0,0.0,0.0,0.0,0.0,0.0,0.0,0.0,0.0,0.0,0.0,0.0,0.0,-5.791,-5.7344,-5.6777,-5.6348,-5.5918,-5.5488,-5.4765,-5.4863,-5.5664,-5.4668,-5.3984,-5.3516,-5.2656,-5.1953,-5.1406,-5.1113,-5.0918,-5.0762,-5.0351,-5.0098,-4.998,-4.998,-4.9785,-4.9531,-4.9531,-4.9316,-4.9043,-4.8906,-4.8867,-4.8867,-4.8867,-4.8867,-4.8867,-4.8867,-4.8867,-4.8867,-4.8867,-4.8867,-4.8867,-4.8867,-4.8867,-4.8867,-4.8867,-4.8867,-4.8867,-4.8867,-4.8867,-4.8867,-4.8867,-4.8867,-4.8867,-4.8867,-4.8867,-4.8867,-4.8867,-4.8867,-4.8867,-4.8867,-4.8867,-4.8867,-4.8867,-4.8867,-4.8808,-4.8672,-4.8379,-4.7832,-4.6973,-4.6992,-4.6738,-4.6133,-4.6289,-4.623,-4.5918,-4.5508,-4.5293,-4.5273,-4.4414,-4.4004,-3.6426,-3.6894,-3.8027,-3.998,-4.3535,-4.7773,-5.2422,-5.4277,-5.5918,-5.9121,-5.8652,-5.7617,-5.7617,-5.7754,-5.7969,-5.832,-6.0859,-6.293,-6.3379,-6.4375,0.0,0.0,0.0,0.0,0.0,0.0,0.0,0.0,0.0,0.0,0.0,0.0,0.0,0.0,-5.7422,-5.668,-5.6094,-5.5469,-5.4961,-5.4531,-5.3828,-5.3769,-5.4258,-5.373,-5.3359,-5.3047,-5.2187,-5.1582,-5.1172,-5.0898,-5.0605,-5.0273,-5.0019,-4.9805,-4.9668,-4.9863,-4.9746,-4.9531,-4.9531,-4.9355,-4.9101,-4.8906,-4.8867,-4.8867,-4.8867,-4.8867,-4.8867,-4.8867,-4.8867,-4.8867,-4.8867,-4.8867,-4.8867,-4.8867,-4.8867,-4.8867,-4.8867,-4.8867,-4.8867,-4.8867,-4.8867,-4.8867,-4.8867,-4.8867,-4.8867,-4.8867,-4.8867,-4.8867,-4.8867,-4.8867,-4.8867,-4.8867,-4.8867,-4.8867,-4.8867,-4.8867,-4.8867,-4.8867,-4.8613,-4.8164,-4.7461,-4.7519,-4.7344,-4.6816,-4.6894,-4.6797,-4.6543,-4.5957,-4.5683,-4.5664,-4.4961,-4.4648,-3.6758,-3.7402,-3.8809,-4.1992,-4.5293,-4.9336,-5.543,-5.8711,-6.0664,-6.1426,-6.0449,-5.9414,-5.9297,-5.8711,-5.8437,-5.918,-6.1035,-6.2519,-6.293,0.0,0.0,0.0,0.0,0.0,0.0,0.0,0.0,0.0,0.0,0.0,0.0,0.0,0.0,-5.7754,-5.6875,-5.6015,-5.5195,-5.4375,-5.375,0.0,-5.2851,-5.2656,-5.2656,-5.2656,-5.2637,-5.2539,-5.1699,-5.1113,-5.0801,-5.0723,-5.0234,-4.9531,-4.9492,-4.9219,-4.8906,-4.9316,-4.9473,-4.9473,-4.9473,-4.9473,-4.9394,-4.8984,-4.8867,-4.8867,-4.8867,-4.8867,-4.8867,-4.8867,-4.8867,-4.8867,-4.8867,-4.8867,-4.8867,-4.8867,-4.8867,-4.8867,-4.8867,-4.8867,-4.8867,-4.8867,-4.8867,-4.8867,-4.8867,-4.8867,-4.8867,-4.8867,-4.8867,-4.8867,-4.8867,-4.8867,-4.8867,-4.8867,-4.8867,-4.8867,-4.8867,-4.8867,-4.8867,-4.8867,-4.8867,-4.8672,-4.8281,-4.7891,-4.7656,-4.7578,-4.7187,-4.6973,-4.6933,-4.6133,-4.5723,-4.5723,-4.5332,-4.5137,-3.7383,-3.8281,-3.998,-4.4375,-4.9766,-5.4805,-5.791,-5.957,-6.0488,-6.0664,-6.0957,-6.0957,-6.0273,-6.0566,-6.0742,-6.0254,-6.1387,-6.2422,-6.248,0.0,0.0,0.0,0.0,0.0,0.0,0.0,0.0,0.0,0.0,0.0,0.0,0.0,0.0,-5.6855,-5.5703,-5.4844,-5.4316,-5.3769,-5.3281,0.0,-5.2422,-5.2226,-5.2226,-5.2226,-5.2031,-5.166,-5.082,-5.0586,-5.0762,-5.0078,-4.9687,-4.9492,-4.9141,-4.8945,-4.8867,-4.8965,-4.9004,-4.9004,-4.9004,-4.9004,-4.8984,-4.8887,-4.8867,-4.8867,-4.8867,-4.8867,-4.8867,-4.8867,-4.8867,-4.8867,-4.8867,-4.8867,-4.8867,-4.8867,-4.8867,-4.8867,-4.8867,-4.8867,-4.8867,-4.8867,-4.8867,-4.8867,-4.8867,-4.8867,-4.8867,-4.8867,-4.8867,-4.8867,-4.8867,-4.8867,-4.8867,-4.8867,-4.8867,-4.8867,-4.8867,-4.8867,-4.8867,-4.8867,-4.8867,-4.8808,-4.873,-4.8633,-4.8262,-4.7598,-4.748,-4.7266,-4.6933,-4.6426,-4.6172,-4.6172,-4.6074,-4.6035,-3.7519,-3.9453,-4.25,-4.8496,-5.3613,-5.7578,-5.9121,-5.998,-6.043,-6.043,-6.0957,-6.1211,-6.0547,-6.0781,-6.0957,-6.0488,-6.1015,-6.1426,0.0,0.0,0.0,0.0,0.0,0.0,0.0,0.0,0.0,0.0,0.0,0.0,0.0,-5.668,-5.5976,-5.5976,-5.4726,-5.3828,-5.3398,-5.2969,-5.2422,-5.1797,-5.1582,-5.1367,-5.1172,-5.1387,-5.123,-5.0801,-5.0371,-5.0176,-5.0156,-4.9707,-4.9394,-4.918,-4.8945,-4.8867,-4.8867,-4.8867,-4.8867,-4.8867,-4.8867,-4.8867,-4.8867,-4.8867,-4.8867,-4.8867,-4.8867,-4.8867,-4.8867,-4.8867,-4.8867,-4.8867,-4.8867,-4.8867,-4.8867,-4.8867,-4.8867,-4.8867,-4.8867,-4.8867,-4.8867,-4.8867,-4.8867,-4.8867,-4.8867,-4.8867,-4.8867,-4.8867,-4.8867,-4.8945,-4.9141,-4.918,-4.918,-4.918,-4.918,-4.9101,-4.8867,-4.8867,-4.8867,-4.8867,-4.8867,-4.8867,-4.8867,-4.8867,-4.8652,-4.8203,-4.7793,-4.7461,-4.7246,-4.6601,-4.6406,-4.6601,-4.6601,-4.6601,-3.7324,-4.0781,-4.5488,-5.2324,-5.6191,-5.8535,-5.9473,-6.0039,-6.0312,-6.0215,-6.0625,-6.084,-6.039,-6.0371,-6.043,-6.0332,-6.0371,-6.043,0.0,0.0,0.0,0.0,0.0,0.0,0.0,0.0,0.0,0.0,0.0,0.0,-5.6914,-5.5742,-5.5058,-5.498,-5.3789,-5.2969,-5.2598,-5.2109,-5.1504,-5.0801,-5.0723,-5.0469,-5.0078,-5.043,-5.043,-5.0176,-5.0019,-4.9785,-4.9512,-4.9453,-4.9199,-4.8867,-4.8867,-4.8867,-4.8867,-4.8867,-4.8867,-4.8867,-4.8867,-4.8867,-4.8867,-4.8867,-4.8867,-4.8867,-4.8867,-4.8867,-4.8867,-4.8867,-4.8867,-4.8867,-4.8867,-4.8867,-4.8867,-4.8867,-4.8867,-4.8867,-4.8867,-4.8867,-4.8867,-4.8867,-4.8867,-4.8867,-4.8867,-4.8867,-4.8867,-4.8867,-4.8867,-4.9023,-4.9473,-4.9531,-4.9551,-4.9629,-4.957,-4.9375,-4.9004,-4.8906,-4.8867,-4.8867,-4.8867,-4.8867,-4.8867,-4.8867,-4.8867,-4.8867,-4.8086,-4.7695,-4.7695,-4.6914,-4.6699,-4.7051,-4.7051,-4.7051,-3.6816,-4.209,-4.8125,-5.2851,-5.5723,-5.7715,-5.9004,-5.959,-5.9805,-5.9414,-5.998,-6.039,-5.998,-6.0195,-6.0332,-5.998,-6.0215,0.0,0.0,0.0,0.0,0.0,0.0,0.0,0.0,0.0,0.0,0.0,0.0,0.0,-5.5605,-5.4707,-5.4023,-5.3633,-5.2734,-5.2226,-5.2168,-5.1367,-5.0918,-5.0801,-5.043,-5.0039,-4.9609,-4.9668,-4.9883,-5.0137,-4.9375,-4.9219,-4.9492,-4.9101,-4.8906,-4.8867,-4.8867,-4.8867,-4.8867,-4.8867,-4.8867,-4.8867,-4.8867,-4.8867,-4.8867,-4.8867,-4.8867,-4.8867,-4.8867,-4.8867,-4.8867,-4.8867,-4.8867,-4.8867,-4.8867,-4.8867,-4.8867,-4.8867,-4.8867,-4.8867,-4.8867,-4.8867,-4.8867,-4.8867,-4.8867,-4.8867,-4.8867,-4.8867,-4.8867,-4.8867,-4.8867,-4.9023,-4.9473,-4.9531,-4.9668,-5.0039,-4.9746,-4.9512,-4.9433,-4.9082,-4.8867,-4.8867,-4.8867,-4.8867,-4.8867,-4.8867,-4.8867,-4.8867,-4.8379,-4.8125,-4.8125,-4.7637,-4.7441,-4.75,-4.75,-4.75,-3.9707,-4.3633,-4.7773,-5.3086,-5.5449,-5.6894,-5.8476,-5.8769,-5.873,-5.8828,-5.8711,-5.8711,-5.9043,-5.9238,-5.9219,-5.8789,-5.9297,0.0,0.0,0.0,0.0,0.0,0.0,0.0,0.0,0.0,0.0,0.0,0.0,-5.5254,-5.4629,-5.3535,-5.2734,-5.2285,-5.168,-5.125,-5.1016,-5.0644,-5.0332,-5.0078,-4.9648,-4.9336,-4.916,-4.916,-4.9258,-4.9414,-4.9023,-4.8965,-4.9141,-4.8945,-4.8867,-4.8867,-4.8867,-4.8867,-4.8867,-4.8867,-4.8867,-4.8867,-4.8867,-4.8867,-4.8867,-4.8867,-4.8867,-4.8867,-4.8867,-4.8867,-4.8867,-4.8867,-4.8867,-4.8867,-4.8867,-4.8867,-4.8867,-4.8867,-4.8867,-4.8867,-4.8867,-4.8867,-4.8867,-4.8867,-4.8867,-4.8867,-4.8867,-4.9062,-4.9238,-4.9238,-4.9433,-4.9746,-5.0195,-5.0234,-5.0234,-5.0176,-5.0,-4.9687,-4.9199,-4.8965,-4.8867,-4.8867,-4.8867,-4.8867,-4.8867,-4.8867,-4.8867,-4.8867,-4.8437,-4.8203,-4.8203,-4.7793,-4.7695,-4.793,-4.793,-4.793,-4.0547,-4.3105,-4.5703,-5.1308,-5.375,-5.5332,-5.7402,-5.7695,-5.7656,-5.8125,-5.7578,-5.7187,-5.7637,-5.7969,-5.8125,-5.791,0.0,0.0,0.0,0.0,0.0,0.0,0.0,0.0,0.0,0.0,0.0,0.0,0.0,-5.4062,-5.3398,-5.2558,-5.1777,-5.1133,-5.0918,-5.0605,-5.0176,-5.0058,-4.9785,-4.9355,-4.9023,-4.8867,-4.8867,-4.8867,-4.8867,-4.8867,-4.8867,-4.8867,-4.8867,-4.8867,-4.8867,-4.8867,-4.8867,-4.8867,-4.8867,-4.8867,-4.8867,-4.8867,-4.8867,-4.8867,-4.8867,-4.8867,-4.8867,-4.8867,-4.8867,-4.8867,-4.8867,-4.8867,-4.8945,-4.9023,-4.9023,-4.9101,-4.9199,-4.9199,-4.9101,-4.9004,-4.8887,-4.8867,-4.8867,-4.8867,-4.8867,-4.8867,-4.8867,-4.9238,-4.9531,-4.9531,-4.9902,-5.0332,-5.0762,-5.0723,-5.0605,-5.0508,-5.0215,-4.9785,-4.9238,-4.8984,-4.8867,-4.8867,-4.8867,-4.8867,-4.8867,-4.8867,-4.8867,-4.8867,-4.8535,-4.8379,-4.8379,-4.8066,-4.8066,-4.8379,-4.8379,-4.8379,-3.6387,-3.8867,-4.1836,-4.623,-4.9512,-5.2441,-5.539,-5.6367,-5.6777,-5.7187,-5.6933,-5.6387,-5.5605,-5.6465,-5.7402,-5.7793,0.0,0.0,0.0,0.0,0.0,0.0,0.0,0.0,0.0,0.0,0.0,0.0,0.0,-5.2891,-5.1641,-5.1894,-5.1523,-5.0273,-5.0605,-5.0605,-5.0176,-4.9766,-4.9336,-4.8887,-4.8867,-4.8867,-4.8867,-4.8867,-4.8867,-4.8867,-4.8867,-4.8867,-4.8867,-4.8867,-4.8867,-4.8867,-4.8867,-4.8867,-4.8867,-4.8867,-4.8867,-4.8867,-4.8867,-4.8867,-4.8867,-4.8867,-4.8867,-4.8867,-4.8867,-4.8867,-4.8867,-4.8867,-4.916,-4.9492,-4.9492,-4.9805,-5.0117,-5.0117,-4.9785,-4.9375,-4.8945,-4.8867,-4.8867,-4.8867,-4.8867,-4.8867,-4.8867,-4.9238,-4.9531,-4.9531,-4.9902,-5.0332,-5.0762,-5.0449,-5.0508,-5.1289,-5.0293,-4.9707,-5.0078,-4.9336,-4.8867,-4.8867,-4.8867,-4.8867,-4.8867,-4.8867,-4.8867,-4.8867,-4.8828,-4.8828,-4.8828,-4.8808,-4.8808,-4.8828,-4.8828,-4.8828,-3.6406,-3.7754,-3.9551,-4.416,-4.6933,-4.9199,-5.168,-5.3418,-5.4551,-5.4707,-5.4629,-5.4512,-5.4492,-5.5527,-5.6172,-5.5508,0.0,0.0,0.0,0.0,0.0,0.0,0.0,0.0,0.0,0.0,0.0,0.0,0.0,0.0,-5.1465,-5.1328,-5.0801,-4.9785,-4.9902,-4.9766,-4.9336,-4.918,-4.9023,-4.8867,-4.8867,-4.8867,-4.8867,-4.8867,-4.8867,-4.8867,-4.8867,-4.8867,-4.8867,-4.8867,-4.8867,-4.8867,-4.8867,-4.8867,-4.8867,-4.8867,-4.8867,-4.8867,-4.8867,-4.8867,-4.8867,-4.8867,-4.8867,-4.8867,-4.8867,-4.8867,-4.8867,-4.8867,-4.918,-4.9531,-4.9531,-4.9844,-5.0176,-5.0176,-4.9844,-4.9492,-4.9316,-4.9062,-4.8867,-4.8867,-4.8867,-4.8867,-4.8867,-4.9453,-4.9941,-4.9941,-5.0547,-5.1035,-5.1191,-5.1074,-5.0996,-5.1035,-5.0625,-5.0312,-5.0195,-4.9883,-4.9707,-4.9707,-4.9707,-4.9707,-4.9707,-4.9433,-4.9297,-4.9297,-4.9004,-4.8867,-4.8867,-4.8867,-4.8867,-4.8867,-4.8867,-4.8867,-3.5742,-3.6543,-3.791,-4.2226,-4.3945,-4.5488,-4.8965,-5.0508,-5.1406,-5.2148,-5.2637,-5.293,-5.2949,-5.3887,-5.4453,0.0,0.0,0.0,0.0,0.0,0.0,0.0,0.0,0.0,0.0,0.0,0.0,0.0,0.0,0.0,-5.082,-5.0664,-5.0273,-4.9551,-4.9375,-4.916,-4.8867,-4.8867,-4.8867,-4.8867,-4.8867,-4.8789,-4.8652,-4.8789,-4.8769,-4.8652,-4.8789,-4.8867,-4.8867,-4.8867,-4.8867,-4.8867,-4.8867,-4.8867,-4.8867,-4.8867,-4.8867,-4.8867,-4.8867,-4.8867,-4.8867,-4.8867,-4.8867,-4.8867,-4.8867,-4.8867,-4.8887,-4.9043,-4.9414,-4.9785,-4.9922,-5.0273,-5.0566,-5.043,-5.0058,-4.9746,-4.9746,-4.9277,-4.8867,-4.8867,-4.8867,-4.8906,-4.9062,-4.9687,-5.0234,-5.0371,-5.0976,-5.1426,-5.1426,-5.1308,-5.1172,-5.1035,-5.0762,-5.0547,-5.0391,-5.0254,-5.0176,-5.0176,-5.0176,-5.0176,-5.0176,-4.9902,-4.9668,-4.9531,-4.9238,-4.9004,-4.8867,-4.8867,-4.8867,-4.8867,-4.8867,-4.8867,0.0,0.0,0.0,-4.0156,-4.0391,-4.1348,-4.7246,-4.7637,-4.7383,-4.9551,-5.1016,-5.168,-5.0918,-5.1445,-5.2285,0.0,0.0,0.0,0.0,0.0,0.0,0.0,0.0,0.0,0.0,0.0,0.0,0.0,0.0,-5.0,-4.9551,-4.9922,-4.9941,-4.9531,-4.9082,-4.8867,-4.8867,-4.8867,-4.8867,-4.8867,-4.8867,-4.8633,-4.8223,-4.8652,-4.8613,-4.8223,-4.8652,-4.8848,-4.8848,-4.8848,-4.8867,-4.8867,-4.8867,-4.8867,-4.8867,-4.8867,-4.8867,-4.8867,-4.8867,-4.8867,-4.8867,-4.8867,-4.8867,-4.8867,-4.8867,-4.8867,-4.8945,-4.9394,-4.9844,-5.0273,-5.0723,-5.1133,-5.1328,-5.0918,-5.0508,-5.0195,-5.0195,-4.9512,-4.8906,-4.8906,-4.8906,-4.9043,-4.9473,-4.9902,-5.0332,-5.0742,-5.1172,-5.1426,-5.1426,-5.1074,-5.0976,-5.1387,-5.0703,-5.0371,-5.0781,-5.0449,-5.0215,-5.0215,-5.0215,-5.0215,-5.0215,-5.0195,-5.0,-4.957,-4.9551,-4.9336,-4.8906,-4.8867,-4.8867,-4.8867,-4.8867,-4.8867,-3.4531,0.0,0.0,0.0,0.0,0.0,-4.0449,-4.1894,-4.3379,-4.5547,-4.7012,-4.8301,-4.9629,-5.0078,-5.0312,0.0,0.0,0.0,0.0,0.0,0.0,0.0,0.0,0.0,0.0,0.0,0.0,0.0,-5.0254,-5.0,-4.9551,-4.9336,-4.916,-4.9043,-4.8926,-4.8867,-4.8867,-4.8867,-4.8867,-4.8867,-4.8867,-4.8633,-4.8203,-4.832,-4.832,-4.8223,-4.834,-4.8379,-4.8418,-4.873,-4.8867,-4.8867,-4.8867,-4.8867,-4.8867,-4.8867,-4.8867,-4.8867,-4.8867,-4.8867,-4.8867,-4.8867,-4.8867,-4.8867,-4.8867,-4.8867,-4.8945,-4.9394,-4.9844,-5.0351,-5.1074,-5.1348,-5.1406,-5.1289,-5.0937,-5.0625,-5.0625,-5.0195,-4.9805,-4.9805,-4.9805,-4.9844,-4.998,-5.0351,-5.0664,-5.0781,-5.1172,-5.1426,-5.1426,-5.1328,-5.1308,-5.1426,-5.123,-5.1133,-5.125,-5.1152,-5.1094,-5.1094,-5.1094,-5.1094,-5.1094,-5.0801,-5.0566,-5.0449,-5.0156,-4.9941,-4.9805,-4.916,-4.8867,-4.8867,-4.8867,-4.9023,-3.5293,-3.4941,-3.4961,-3.6367,0.0,0.0,-3.8008,-3.8887,-3.9961,-4.2305,-4.3945,-4.5449,-4.709,-4.7832,0.0,0.0,0.0,0.0,0.0,0.0,0.0,0.0,0.0,0.0,0.0,0.0,0.0,-4.9648,-4.9629,-4.9512,-4.9258,-4.9004,-4.8769,-4.8594,-4.8594,-4.8496,-4.832,-4.832,-4.832,-4.832,-4.832,-4.8183,-4.7949,-4.8125,-4.8105,-4.7949,-4.8125,-4.8203,-4.8223,-4.8476,-4.8594,-4.8613,-4.8789,-4.8867,-4.8867,-4.8867,-4.8867,-4.8867,-4.8867,-4.8867,-4.8867,-4.8867,-4.8867,-4.8867,-4.8867,-4.8867,-4.8984,-4.9629,-5.0234,-5.082,-5.1308,-5.1426,-5.1426,-5.1426,-5.1113,-5.0859,-5.1035,-5.0742,-5.0391,-5.0215,-5.0176,-5.0234,-5.041,-5.0644,-5.0859,-5.1035,-5.1269,-5.1426,-5.1426,-5.1426,-5.1426,-5.1426,-5.1426,-5.1426,-5.1426,-5.1426,-5.1426,-5.1426,-5.1426,-5.1426,-5.1426,-5.1191,-5.0976,-5.0801,-5.0566,-5.0351,-5.0176,-4.9668,-4.9414,-4.9414,-4.9414,-4.9453,-3.6387,-3.5996,-3.6113,-3.791,-3.6406,0.0,-3.8008,-3.7539,-3.7207,-3.9609,-4.1308,-4.2715,-4.3828,-4.5078,0.0,0.0,0.0,0.0,0.0,0.0,0.0,0.0,0.0,0.0,0.0,-4.9453,-4.9297,-4.8887,-4.8867,-4.8828,-4.8789,-4.8789,-4.8594,-4.8144,-4.8144,-4.7949,-4.7578,-4.7578,-4.7578,-4.7578,-4.7578,-4.7558,-4.7519,-4.7949,-4.791,-4.7539,-4.7949,-4.8144,-4.8144,-4.8183,-4.8242,-4.832,-4.8711,-4.8867,-4.8867,-4.8867,-4.8867,-4.8867,-4.8867,-4.8867,-4.8867,-4.8867,-4.8867,-4.8867,-4.8867,-4.8867,-4.9023,-4.9863,-5.0723,-5.1367,-5.1367,-5.1367,-5.1367,-5.1367,-5.1113,-5.0957,-5.1289,-5.1113,-5.0762,-5.0391,-5.0312,-5.043,-5.082,-5.0879,-5.0996,-5.1367,-5.1426,-5.1426,-5.1426,-5.1426,-5.1426,-5.1426,-5.1426,-5.1426,-5.1426,-5.1426,-5.1426,-5.1426,-5.1426,-5.1426,-5.1426,-5.1426,-5.125,-5.0879,-5.0879,-5.0683,-5.0312,-5.0215,-5.0195,-5.0254,-5.0195,-4.998,-3.8008,-3.7754,-3.7363,0.0,0.0,0.0,-3.5391,-3.5371,-3.5976,-3.7168,-3.7695,-3.8711,-4.1328,-4.2851,0.0,0.0,0.0,0.0,0.0,0.0,0.0,0.0,0.0,0.0,0.0,-4.8984,-4.8945,-4.8867,-4.8867,-4.8711,-4.8359,-4.834,-4.8144,-4.7715,-4.7695,-4.7656,-4.7578,-4.7578,-4.7578,-4.7578,-4.7578,-4.7402,-4.707,-4.75,-4.7461,-4.709,-4.7519,-4.7695,-4.7734,-4.8066,-4.8418,-4.873,-4.8828,-4.8867,-4.8867,-4.8867,-4.8867,-4.8867,-4.8867,-4.8867,-4.8867,-4.8867,-4.8867,-4.8867,-4.8867,-4.8867,-4.8965,-4.9512,-5.0273,-5.0918,-5.0918,-5.0918,-5.0918,-5.0918,-5.1113,-5.123,-5.0976,-5.1133,-5.1289,-5.1211,-5.1191,-5.1211,-5.1289,-5.1308,-5.1328,-5.1426,-5.1426,-5.1426,-5.1426,-5.1426,-5.1426,-5.1426,-5.1426,-5.1426,-5.1426,-5.1426,-5.1426,-5.1426,-5.1426,-5.1426,-5.1426,-5.1426,-5.1387,-5.1308,-5.1308,-5.1269,-5.1191,-5.0508,-5.0351,-5.0683,-5.0332,-5.0137,0.0,0.0,0.0,-3.8223,0.0,0.0,0.0,-3.5039,-3.5039,-3.6113,-3.5996,-3.6426,-3.8809,0.0,0.0,0.0,0.0,0.0,0.0,0.0,0.0,0.0,0.0,0.0,0.0,-4.8281,-4.8613,-4.8848,-4.8652,-4.8437,-4.8223,-4.8008,-4.7695,-4.7266,-4.7246,-4.7148,-4.6953,-4.6933,-4.6933,-4.6933,-4.6933,-4.6933,-4.6933,-4.7148,-4.7129,-4.6933,-4.7168,-4.7383,-4.7598,-4.7812,-4.8281,-4.8867,-4.8867,-4.8867,-4.8867,-4.8867,-4.8867,-4.8867,-4.8867,-4.8867,-4.8867,-4.8867,-4.8867,-4.8867,-4.8867,-4.916,-4.9512,-4.9531,-5.0293,-5.1074,-5.0859,-5.0801,-5.0859,-5.1074,-5.1113,-5.1113,-5.1113,-5.1289,-5.1426,-5.1426,-5.1426,-5.1426,-5.1426,-5.1426,-5.1426,-5.1426,-5.1426,-5.1426,-5.1426,-5.1426,-5.1426,-5.1426,-5.1426,-5.1523,-5.1738,-5.1758,-5.1758,-5.1758,-5.1758,-5.166,-5.1445,-5.1426,-5.1523,-5.1758,-5.1758,-5.1855,-5.207,-5.1445,-5.1133,-5.1113,-5.0898,-5.0683,0.0,0.0,0.0,0.0,0.0,-3.7773,0.0,0.0,0.0,0.0,0.0,0.0,0.0,0.0,0.0,0.0,0.0,0.0,0.0,0.0,0.0,0.0,0.0,0.0,0.0,-4.7031,-4.7695,-4.8555,-4.7988,-4.7695,-4.7949,-4.7558,-4.7129,-4.6699,-4.6601,-4.6445,-4.6191,-4.6191,-4.623,-4.6308,-4.6308,-4.6484,-4.6816,-4.6894,-4.6875,-4.6816,-4.6894,-4.7187,-4.7578,-4.7578,-4.8086,-4.8867,-4.8867,-4.8867,-4.8867,-4.8867,-4.8867,-4.8867,-4.8867,-4.8867,-4.8867,-4.8867,-4.8867,-4.8867,-4.8867,-4.9414,-4.9961,-4.9512,-5.0273,-5.1094,-5.0664,-5.0683,-5.0859,-5.1133,-5.1055,-5.0996,-5.125,-5.1367,-5.1426,-5.1426,-5.1426,-5.1426,-5.1426,-5.1426,-5.1426,-5.1426,-5.1426,-5.1426,-5.1426,-5.1426,-5.1426,-5.1426,-5.1504,-5.1699,-5.2051,-5.2148,-5.2168,-5.209,-5.209,-5.1894,-5.1445,-5.1523,-5.1719,-5.207,-5.2168,-5.2363,-5.2715,-5.2285,-5.1894,-5.1562,-5.1465,-5.1211,0.0,0.0,0.0,0.0,-4.1973,0.0,0.0,0.0,0.0,-3.457,0.0,0.0,0.0,0.0,0.0,0.0,0.0,0.0,0.0,0.0,0.0,0.0,0.0,0.0,0.0,0.0,-4.5195,-4.7539,-4.6269,-4.5879,-4.7012,-4.668,-4.625,-4.584,-4.5449,-4.541,-4.5742,-4.5742,-4.5937,-4.6308,-4.6308,-4.6328,-4.6387,-4.6758,-4.6719,-4.6387,-4.6777,-4.7187,-4.7578,-4.7578,-4.8086,-4.8867,-4.8867,-4.8867,-4.8867,-4.8867,-4.8867,-4.8867,-4.8867,-4.8867,-4.8867,-4.8867,-4.8867,-4.8867,-4.8867,-4.9199,-4.9512,-4.9062,-4.9609,-5.0215,-4.9785,-5.0234,-5.0723,-5.0391,-5.0859,-5.1269,-5.0957,-5.1172,-5.1426,-5.1426,-5.1426,-5.1426,-5.1426,-5.1426,-5.1426,-5.1426,-5.1426,-5.1426,-5.1426,-5.1426,-5.1426,-5.1426,-5.1777,-5.2031,-5.207,-5.2422,-5.248,-5.2109,-5.209,-5.1894,-5.1445,-5.1797,-5.2031,-5.209,-5.2441,-5.2656,-5.2715,-5.2285,-5.2051,-5.1992,-5.1601,-5.1211,0.0,0.0,0.0,0.0,0.0,0.0,-3.8535,0.0,-3.6152,0.0,0.0,0.0,0.0,0.0,0.0,0.0,0.0,0.0,0.0,0.0,0.0,0.0,0.0,0.0,0.0,0.0,0.0,0.0,0.0,-4.4355,-4.541,-4.5293,-4.5351,-4.5664,-4.5254,-4.5234,-4.5664,-4.5683,-4.5879,-4.6308,-4.6308,-4.6308,-4.6308,-4.6484,-4.6465,-4.6308,-4.6484,-4.6953,-4.7578,-4.7578,-4.8086,-4.8867,-4.8867,-4.8867,-4.8867,-4.8867,-4.8867,-4.8867,-4.8867,-4.8867,-4.8867,-4.8867,-4.8867,-4.8867,-4.8867,-4.918,-4.9492,-4.9297,-4.9687,-5.0195,-5.0254,-5.0351,-5.0527,-5.084,-5.0996,-5.1094,-5.1152,-5.1308,-5.1426,-5.1426,-5.1426,-5.1426,-5.1426,-5.1426,-5.1426,-5.1426,-5.1426,-5.1523,-5.1777,-5.1816,-5.1894,-5.2148,-5.2344,-5.2539,-5.2793,-5.2988,-5.3008,-5.2832,-5.2578,-5.2363,-5.2187,-5.2344,-5.2558,-5.2812,-5.2988,-5.3223,-5.3476,-5.3047,-5.2695,-5.2422,-5.1738,-5.1328,-4.5176,0.0,0.0,0.0,0.0,0.0,0.0,0.0,0.0,0.0,0.0,0.0,0.0,0.0,0.0,0.0,0.0,0.0,0.0,0.0,0.0,0.0,0.0,0.0,0.0,0.0,0.0,0.0,0.0,0.0,-4.3789,-4.3867,-4.4258,-4.5098,-4.4824,-4.4922,-4.5488,-4.5508,-4.5762,-4.6308,-4.6308,-4.6308,-4.6308,-4.6308,-4.6308,-4.6308,-4.6308,-4.6797,-4.7578,-4.7578,-4.8086,-4.8867,-4.8867,-4.8867,-4.8867,-4.8867,-4.8867,-4.8867,-4.8867,-4.8867,-4.8867,-4.8867,-4.8867,-4.8867,-4.8867,-4.918,-4.9531,-4.9531,-4.9922,-5.0391,-5.0586,-5.0586,-5.0644,-5.1133,-5.1113,-5.1055,-5.1367,-5.1426,-5.1426,-5.1426,-5.1426,-5.1465,-5.1582,-5.1601,-5.1601,-5.1601,-5.1699,-5.1894,-5.2207,-5.2246,-5.2383,-5.2676,-5.2812,-5.3008,-5.334,-5.3476,-5.3496,-5.3359,-5.2949,-5.2715,-5.2715,-5.2812,-5.3086,-5.3535,-5.3672,-5.3887,-5.4199,-5.3769,-5.332,-5.2871,-5.2012,-5.1543,0.0,0.0,0.0,-4.4023,0.0,0.0,0.0,0.0,-3.875,0.0,0.0,0.0,0.0,0.0,-3.6738,-3.5566,0.0,0.0,0.0,0.0,0.0,0.0,0.0,0.0,0.0,0.0,0.0,0.0,0.0,0.0,-4.2344,-4.248,-4.2891,-4.373,-4.375,-4.416,-4.5039,-4.5039,-4.5469,-4.6308,-4.6308,-4.6308,-4.6308,-4.6308,-4.6308,-4.6308,-4.6308,-4.6797,-4.7578,-4.7578,-4.8086,-4.8867,-4.8867,-4.8867,-4.8867,-4.8867,-4.8867,-4.8867,-4.8867,-4.8867,-4.8867,-4.8867,-4.8867,-4.8867,-4.8867,-4.918,-4.9531,-4.9531,-5.0137,-5.0703,-5.0293,-5.0801,-5.1289,-5.0918,-5.1133,-5.1406,-5.1426,-5.1426,-5.1426,-5.1426,-5.1426,-5.1562,-5.1992,-5.2051,-5.2051,-5.2051,-5.2402,-5.2676,-5.2695,-5.2695,-5.2695,-5.2715,-5.3086,-5.334,-5.3359,-5.375,-5.3828,-5.3379,-5.2949,-5.2715,-5.2715,-5.3125,-5.3555,-5.4004,-5.4414,-5.4648,-5.4668,-5.4219,-5.3769,-5.332,-5.2461,-5.1836,0.0,0.0,-4.8945,-4.5625,0.0,0.0,0.0,0.0,0.0,0.0,0.0,0.0,0.0,0.0,-3.6973,-3.5976,-3.5312,0.0,0.0,0.0,0.0,0.0,0.0,0.0,0.0,0.0,0.0,0.0,0.0,0.0,0.0,-4.0273,-4.1406,-4.2812,-4.3144,-4.3848,-4.5019,-4.5019,-4.5449,-4.6308,-4.6308,-4.6308,-4.6308,-4.6308,-4.6308,-4.6308,-4.6308,-4.6797,-4.7578,-4.7578,-4.8086,-4.8867,-4.8867,-4.8867,-4.8867,-4.8867,-4.8867,-4.8867,-4.8867,-4.8867,-4.8867,-4.8867,-4.8867,-4.8867,-4.8867,-4.8965,-4.9199,-4.9785,-4.9961,-5.0117,-5.082,-5.1016,-5.1055,-5.1191,-5.1328,-5.1426,-5.1426,-5.1426,-5.1523,-5.1797,-5.1855,-5.1992,-5.2422,-5.2734,-5.2832,-5.2539,-5.2617,-5.2812,-5.3105,-5.3144,-5.3262,-5.3555,-5.3711,-5.3926,-5.4199,-5.4629,-5.457,-5.3848,-5.3945,-5.3887,-5.3594,-5.4004,-5.4297,-5.4453,-5.4609,-5.4687,-5.4687,-5.4238,-5.3808,-5.3359,-5.3066,-5.2539,-4.9101,-4.9394,0.0,-4.6758,-4.5703,0.0,-4.1816,0.0,0.0,0.0,0.0,0.0,0.0,0.0,0.0,-3.6855,-3.5703,-3.4531,0.0,-3.2734,0.0,0.0,0.0,0.0,0.0,0.0,0.0,0.0,0.0,0.0,0.0,0.0,-4.0215,-4.1933,-4.2695,-4.3711,-4.5019,-4.5019,-4.5449,-4.6308,-4.6308,-4.6308,-4.6308,-4.6308,-4.6308,-4.6308,-4.6308,-4.6699,-4.7363,-4.7519,-4.7988,-4.8633,-4.8789,-4.8867,-4.8867,-4.8867,-4.8867,-4.8867,-4.8867,-4.8867,-4.8867,-4.8867,-4.8867,-4.8867,-4.8867,-4.9082,-4.9453,-5.0019,-5.0195,-5.0391,-5.1211,-5.123,-5.1094,-5.1367,-5.1426,-5.1426,-5.1426,-5.1426,-5.1562,-5.1992,-5.209,-5.2266,-5.2851,-5.3183,-5.3262,-5.2988,-5.3066,-5.3281,-5.3555,-5.373,-5.3887,-5.4023,-5.416,-5.4375,-5.4648,-5.5058,-5.5078,-5.4512,-5.4746,-5.4785,-5.4492,-5.4746,-5.5273,-5.6035,-5.5449,-5.5351,-5.582,-5.4922,-5.418,-5.3594,-5.3594,-5.3125]},{"header":{"parameterUnit":"m.s-1","parameterCategory":1,"la1":30.6,"la2":29.2853,"lo1":-89.7004,"lo2":-87.6739,"dy":0.0162,"dx":0.0183,"nx":112,"ny":82,"refTime":"2024-04-25T12:00:00:Z","depth":0,"parameterNumber":3,"parameterNumberName":"V-component_of_WINDS"},"data":[0.0,0.0,0.0,0.0,0.0,0.0,0.0,0.0,0.0,0.0,0.0,0.0,0.0,0.0,0.0,0.0,0.0,0.0,0.0,0.0,0.0,0.0,0.0,0.0,0.0,0.0,0.0,0.0,0.0,0.0,0.0,0.0,0.0,0.0,0.0,0.0,0.0,0.0,0.0,0.0,0.0,0.0,0.0,0.0,0.0,0.0,0.0,0.0,0.0,0.0,0.0,0.0,0.0,0.0,0.0,0.0,0.0,0.0,0.0,0.0,0.0,0.0,0.0,0.0,0.0,0.0,0.0,0.0,0.0,0.0,0.0,0.0,0.0,0.0,0.0,0.0,0.0,0.0,0.0,0.0,0.0,0.0,0.0,0.0,0.0,0.0,0.0,0.0,0.0,0.0,4.6676,5.0728,5.8692,6.3995,6.4698,6.3792,5.9968,5.2296,0.0,0.0,0.0,0.0,0.0,0.0,0.0,0.0,0.0,0.0,0.0,0.0,0.0,0.0,0.0,0.0,0.0,0.0,0.0,0.0,0.0,0.0,0.0,0.0,0.0,0.0,0.0,0.0,0.0,0.0,0.0,0.0,0.0,0.0,0.0,0.0,0.0,0.0,0.0,0.0,0.0,0.0,0.0,0.0,0.0,0.0,0.0,0.0,0.0,0.0,0.0,0.0,0.0,0.0,0.0,0.0,0.0,0.0,0.0,0.0,0.0,0.0,0.0,0.0,0.0,0.0,0.0,0.0,0.0,0.0,0.0,0.0,0.0,0.0,0.0,0.0,0.0,0.0,0.0,0.0,0.0,0.0,0.0,0.0,0.0,0.0,0.0,0.0,0.0,0.0,0.0,0.0,0.0,0.0,0.0,0.0,0.0,0.0,0.0,0.0,0.0,0.0,0.0,0.0,4.8266,5.8326,6.368,6.6869,6.7535,6.3211,5.8165,5.2709,0.0,0.0,0.0,0.0,0.0,0.0,0.0,0.0,0.0,0.0,0.0,0.0,0.0,0.0,0.0,0.0,0.0,0.0,0.0,0.0,0.0,0.0,0.0,0.0,0.0,0.0,0.0,0.0,0.0,0.0,0.0,0.0,0.0,0.0,0.0,0.0,0.0,0.0,0.0,0.0,0.0,0.0,0.0,0.0,0.0,0.0,0.0,0.0,0.0,0.0,0.0,0.0,0.0,0.0,0.0,0.0,0.0,0.0,0.0,0.0,0.0,0.0,0.0,0.0,0.0,0.0,0.0,0.0,0.0,0.0,0.0,0.0,0.0,0.0,0.0,0.0,0.0,0.0,0.0,0.0,0.0,0.0,0.0,0.0,0.0,0.0,0.0,0.0,0.0,0.0,0.0,0.0,0.0,0.0,0.0,0.0,0.0,0.0,0.0,0.0,0.0,0.0,0.0,4.7538,5.2436,6.2284,6.5644,6.7631,6.8661,6.4193,5.9272,5.45,5.1933,0.0,0.0,0.0,0.0,0.0,0.0,0.0,0.0,0.0,0.0,0.0,0.0,0.0,0.0,0.0,0.0,0.0,0.0,0.0,0.0,0.0,0.0,0.0,0.0,0.0,0.0,0.0,0.0,0.0,0.0,0.0,0.0,0.0,0.0,0.0,0.0,0.0,0.0,0.0,0.0,0.0,0.0,0.0,0.0,0.0,0.0,0.0,0.0,0.0,0.0,0.0,0.0,0.0,0.0,0.0,0.0,0.0,0.0,0.0,0.0,0.0,0.0,0.0,0.0,0.0,0.0,0.0,0.0,0.0,0.0,0.0,0.0,0.0,0.0,0.0,0.0,0.0,0.0,0.0,0.0,0.0,0.0,0.0,0.0,0.0,0.0,0.0,0.0,0.0,0.0,0.0,0.0,0.0,0.0,0.0,0.0,0.0,0.0,0.0,0.0,0.0,0.0,5.3197,5.7229,6.4836,6.7132,6.8487,6.9368,6.4984,6.0277,5.5714,5.0913,0.0,0.0,0.0,0.0,0.0,0.0,0.0,0.0,0.0,0.0,0.0,0.0,0.0,0.0,0.0,0.0,0.0,0.0,0.0,0.0,0.0,0.0,0.0,0.0,0.0,0.0,0.0,0.0,0.0,0.0,0.0,0.0,0.0,0.0,0.0,0.0,0.0,0.0,0.0,0.0,0.0,0.0,0.0,0.0,0.0,0.0,0.0,0.0,0.0,0.0,0.0,0.0,0.0,0.0,0.0,0.0,0.0,0.0,0.0,0.0,0.0,0.0,0.0,0.0,0.0,0.0,0.0,0.0,0.0,0.0,0.0,0.0,0.0,0.0,0.0,0.0,0.0,0.0,0.0,0.0,0.0,0.0,0.0,0.0,0.0,0.0,0.0,0.0,0.0,0.0,0.0,0.0,0.0,0.0,0.0,0.0,0.0,0.0,0.0,0.0,0.0,0.0,5.5716,6.1936,6.6502,6.9361,7.0782,7.0164,6.4761,5.9498,5.4972,4.9187,0.0,0.0,0.0,0.0,0.0,0.0,0.0,0.0,0.0,0.0,0.0,0.0,0.0,0.0,0.0,0.0,0.0,0.0,0.0,0.0,0.0,0.0,0.0,0.0,0.0,0.0,0.0,0.0,0.0,0.0,0.0,0.0,0.0,0.0,0.0,0.0,0.0,0.0,0.0,0.0,0.0,0.0,0.0,0.0,0.0,0.0,0.0,0.0,0.0,0.0,0.0,0.0,0.0,0.0,0.0,0.0,0.0,0.0,0.0,0.0,0.0,0.0,0.0,0.0,0.0,0.0,0.0,0.0,0.0,0.0,0.0,0.0,0.0,0.0,0.0,0.0,0.0,0.0,0.0,0.0,0.0,0.0,0.0,0.0,0.0,0.0,0.0,0.0,0.0,0.0,0.0,0.0,0.0,0.0,0.0,0.0,0.0,0.0,0.0,0.0,0.0,0.0,5.6685,6.2024,0.0,6.9962,7.0331,6.9586,6.4884,5.9877,5.4905,0.0,0.0,0.0,0.0,0.0,0.0,0.0,0.0,0.0,0.0,0.0,0.0,0.0,0.0,0.0,0.0,0.0,0.0,0.0,0.0,0.0,0.0,0.0,0.0,0.0,0.0,0.0,0.0,0.0,0.0,0.0,0.0,0.0,0.0,0.0,0.0,0.0,0.0,0.0,0.0,0.0,0.0,0.0,0.0,0.0,0.0,0.0,0.0,0.0,0.0,0.0,0.0,0.0,0.0,0.0,0.0,0.0,0.0,0.0,0.0,0.0,0.0,0.0,0.0,0.0,0.0,0.0,0.0,0.0,0.0,0.0,0.0,0.0,0.0,0.0,0.0,0.0,0.0,0.0,0.0,0.0,0.0,0.0,0.0,0.0,0.0,0.0,0.0,0.0,0.0,0.0,0.0,0.0,0.0,0.0,0.0,0.0,0.0,0.0,0.0,0.0,0.0,5.3334,5.7353,6.2293,0.0,6.9857,6.9553,6.8774,6.3937,5.9032,5.4532,0.0,0.0,0.0,0.0,0.0,0.0,0.0,0.0,0.0,0.0,0.0,0.0,0.0,0.0,0.0,0.0,0.0,0.0,0.0,0.0,0.0,0.0,0.0,0.0,0.0,0.0,0.0,0.0,0.0,0.0,0.0,0.0,0.0,0.0,0.0,0.0,0.0,0.0,0.0,0.0,0.0,0.0,0.0,0.0,0.0,0.0,0.0,0.0,0.0,0.0,0.0,0.0,0.0,0.0,0.0,0.0,0.0,0.0,0.0,0.0,0.0,0.0,0.0,0.0,0.0,0.0,0.0,0.0,0.0,0.0,0.0,0.0,0.0,0.0,0.0,0.0,0.0,0.0,0.0,0.0,0.0,0.0,0.0,0.0,0.0,0.0,0.0,0.0,0.0,0.0,0.0,0.0,0.0,0.0,0.0,0.0,0.0,0.0,0.0,0.0,0.0,0.0,5.2942,5.801,6.3328,6.8538,6.9079,6.8774,6.7929,6.1738,5.663,0.0,0.0,0.0,0.0,0.0,0.0,0.0,0.0,0.0,0.0,0.0,0.0,0.0,0.0,0.0,0.0,0.0,0.0,0.0,0.0,0.0,0.0,0.0,0.0,0.0,0.0,0.0,0.0,0.0,0.0,0.0,0.0,0.0,0.0,0.0,0.0,0.0,0.0,0.0,0.0,0.0,0.0,0.0,0.0,0.0,0.0,0.0,0.0,0.0,0.0,0.0,0.0,0.0,0.0,0.0,0.0,0.0,0.0,0.0,0.0,0.0,0.0,0.0,0.0,0.0,0.0,0.0,0.0,0.0,0.0,0.0,0.0,0.0,0.0,0.0,0.0,0.0,0.0,0.0,0.0,0.0,0.0,0.0,0.0,0.0,0.0,0.0,0.0,0.0,0.0,0.0,0.0,0.0,0.0,0.0,0.0,0.0,0.0,0.0,0.0,0.0,0.0,0.0,5.449,5.9156,6.3666,6.7793,6.8774,6.8132,6.5764,6.1332,5.6968,5.2909,0.0,0.0,0.0,0.0,0.0,0.0,0.0,0.0,0.0,0.0,0.0,0.0,0.0,0.0,0.0,0.0,0.0,0.0,0.0,0.0,0.0,0.0,0.0,0.0,0.0,0.0,0.0,0.0,0.0,0.0,0.0,0.0,0.0,0.0,0.0,0.0,0.0,0.0,0.0,0.0,0.0,0.0,0.0,0.0,0.0,0.0,0.0,0.0,0.0,0.0,0.0,0.0,0.0,0.0,0.0,0.0,0.0,0.0,0.0,0.0,0.0,0.0,0.0,0.0,0.0,0.0,0.0,0.0,0.0,0.0,0.0,0.0,0.0,0.0,0.0,0.0,0.0,0.0,0.0,0.0,0.0,0.0,0.0,0.0,0.0,0.0,0.0,0.0,0.0,0.0,0.0,0.0,0.0,0.0,0.0,0.0,0.0,0.0,0.0,0.0,0.0,0.0,5.5175,5.9099,6.3125,6.7421,6.8064,6.732,6.5222,6.1332,5.7239,5.3044,0.0,0.0,0.0,0.0,0.0,0.0,0.0,0.0,0.0,0.0,0.0,0.0,0.0,0.0,0.0,0.0,0.0,0.0,0.0,0.0,0.0,0.0,0.0,0.0,0.0,0.0,0.0,0.0,0.0,0.0,0.0,0.0,0.0,0.0,0.0,0.0,0.0,0.0,0.0,0.0,0.0,0.0,0.0,0.0,0.0,0.0,0.0,0.0,0.0,0.0,0.0,0.0,0.0,0.0,0.0,0.0,0.0,0.0,0.0,0.0,0.0,0.0,0.0,0.0,0.0,0.0,0.0,0.0,0.0,0.0,0.0,0.0,0.0,0.0,0.0,0.0,0.0,0.0,0.0,0.0,0.0,0.0,0.0,0.0,0.0,0.0,0.0,0.0,0.0,0.0,0.0,0.0,0.0,0.0,0.0,0.0,0.0,0.0,0.0,0.0,0.0,0.0,5.531,5.8389,6.2144,6.7252,6.7218,6.644,6.5561,6.1434,5.7374,5.3721,0.0,0.0,0.0,0.0,0.0,0.0,0.0,0.0,0.0,0.0,0.0,0.0,0.0,0.0,0.0,0.0,0.0,0.0,0.0,0.0,0.0,0.0,0.0,0.0,0.0,0.0,0.0,0.0,0.0,0.0,0.0,0.0,0.0,0.0,0.0,0.0,0.0,0.0,0.0,0.0,0.0,0.0,0.0,0.0,0.0,0.0,0.0,0.0,0.0,0.0,0.0,0.0,0.0,0.0,0.0,0.0,0.0,0.0,0.0,0.0,6.3294,0.0,0.0,0.0,0.0,0.0,0.0,0.0,0.0,0.0,0.0,0.0,0.0,0.0,0.0,0.0,0.0,0.0,0.0,0.0,0.0,0.0,0.0,0.0,0.0,0.0,0.0,0.0,0.0,0.0,0.0,0.0,0.0,0.0,0.0,0.0,0.0,0.0,0.0,0.0,0.0,0.0,5.6021,5.9201,6.2584,6.6609,6.6914,6.6034,6.414,6.0385,5.6799,5.3687,4.983,0.0,0.0,0.0,0.0,0.0,0.0,0.0,0.0,0.0,0.0,0.0,0.0,0.0,0.0,0.0,0.0,0.0,0.0,0.0,0.0,0.0,0.0,0.0,0.0,0.0,0.0,0.0,0.0,0.0,0.0,0.0,0.0,0.0,0.0,0.0,0.0,0.0,0.0,0.0,0.0,0.0,0.0,0.0,0.0,0.0,0.0,0.0,0.0,0.0,0.0,0.0,0.0,0.0,0.0,0.0,0.0,0.0,0.0,0.0,0.0,6.6068,0.0,0.0,0.0,0.0,0.0,0.0,0.0,0.0,0.0,0.0,0.0,0.0,0.0,0.0,0.0,0.0,0.0,0.0,0.0,0.0,0.0,0.0,0.0,0.0,0.0,0.0,0.0,0.0,0.0,0.0,0.0,0.0,0.0,0.0,0.0,0.0,0.0,0.0,0.0,0.0,5.6258,5.9099,6.2144,6.5865,6.6271,6.5527,6.3666,6.0723,5.7712,5.4735,5.1386,0.0,0.0,0.0,0.0,0.0,0.0,0.0,0.0,0.0,0.0,0.0,0.0,0.0,0.0,0.0,0.0,0.0,0.0,0.0,0.0,0.0,0.0,0.0,0.0,0.0,0.0,0.0,0.0,0.0,0.0,0.0,0.0,0.0,0.0,0.0,0.0,0.0,0.0,0.0,0.0,0.0,0.0,0.0,0.0,0.0,0.0,0.0,0.0,0.0,0.0,0.0,0.0,0.0,8.2069,8.349,8.4843,8.4843,8.4945,8.4674,7.7773,7.3308,7.0703,0.0,0.0,0.0,0.0,0.0,0.0,0.0,0.0,0.0,0.0,0.0,0.0,0.0,0.0,0.0,0.0,0.0,0.0,0.0,0.0,0.0,0.0,0.0,0.0,0.0,6.2719,6.2178,0.0,0.0,0.0,0.0,0.0,0.0,0.0,0.0,0.0,0.0,0.0,0.0,5.6697,5.8998,6.1738,6.5493,6.5764,6.5155,6.3835,6.1501,5.8896,5.6089,5.2942,5.0238,0.0,0.0,0.0,0.0,0.0,0.0,0.0,0.0,0.0,0.0,0.0,0.0,0.0,0.0,0.0,0.0,0.0,0.0,0.0,0.0,0.0,0.0,0.0,0.0,0.0,0.0,0.0,0.0,0.0,0.0,0.0,0.0,6.4512,6.4072,0.0,0.0,0.0,0.0,0.0,0.0,0.0,0.0,0.0,0.0,0.0,0.0,0.0,7.9363,8.2002,8.6095,8.7719,8.6873,9.0899,9.1913,9.0256,9.0256,9.0628,9.1135,8.941,0.0,7.7536,7.4052,0.0,0.0,0.0,0.0,0.0,0.0,0.0,0.0,0.0,0.0,0.0,0.0,0.0,0.0,0.0,0.0,0.0,0.0,0.0,0.0,0.0,0.0,6.4816,6.4275,6.3835,6.3294,0.0,5.9844,5.7137,5.5581,0.0,0.0,0.0,0.0,0.0,0.0,0.0,0.0,5.8254,6.0148,6.255,6.6271,6.6068,6.5358,6.4546,6.1772,5.9099,5.6799,5.3247,5.0475,4.8917,4.7327,0.0,0.0,0.0,0.0,0.0,0.0,0.0,0.0,0.0,0.0,0.0,0.0,0.0,0.0,0.0,0.0,0.0,0.0,0.0,0.0,0.0,0.0,0.0,0.0,0.0,0.0,0.0,0.0,0.0,6.7624,6.9958,6.7963,7.0161,6.9992,0.0,0.0,0.0,0.0,0.0,0.0,0.0,0.0,0.0,8.2983,8.4979,8.7211,8.9782,9.3402,9.5296,9.5533,9.7969,9.8984,9.8781,9.7969,9.8003,9.8612,9.7022,9.3808,8.9173,8.2035,7.6623,7.2529,0.0,0.0,0.0,0.0,6.7049,6.759,6.8842,6.9248,0.0,0.0,0.0,0.0,0.0,0.0,0.0,0.0,0.0,0.0,0.0,0.0,0.0,6.7726,6.8132,6.8166,6.6914,6.4681,6.1738,0.0,5.6122,5.4769,5.2672,0.0,0.0,0.0,0.0,5.4668,5.7949,5.9708,6.1738,6.4647,6.4681,6.4005,6.2854,6.1129,5.9167,5.6934,5.4499,5.2266,5.0338,4.8815,4.7699,0.0,0.0,0.0,0.0,0.0,0.0,0.0,0.0,0.0,0.0,0.0,0.0,0.0,0.0,0.0,0.0,0.0,0.0,0.0,0.0,0.0,0.0,0.0,0.0,0.0,0.0,0.0,0.0,7.2699,7.5303,7.1751,7.5608,7.5845,0.0,0.0,0.0,0.0,0.0,0.0,8.1697,8.2813,8.5621,9.0662,9.3199,9.5533,9.78,10.0608,10.2299,10.3077,10.3889,10.4599,10.5174,10.3923,10.3618,10.4024,10.1995,10.0202,9.8172,8.9173,8.2644,7.7976,7.483,7.2902,7.1887,7.1887,7.236,7.324,7.4695,7.5202,7.5033,7.395,0.0,6.8673,6.5155,0.0,0.0,0.0,0.0,6.4106,6.6745,6.8368,6.962,7.0534,7.1447,7.1684,7.0026,6.847,6.5797,0.0,5.8863,5.7442,5.4262,0.0,0.0,0.0,0.0,5.5141,5.8084,5.9607,6.1264,6.3565,6.3632,6.299,6.1704,6.0486,5.8964,5.6934,5.5243,5.3382,5.1286,4.9965,4.8849,4.7906,0.0,0.0,0.0,0.0,0.0,0.0,0.0,0.0,0.0,0.0,0.0,0.0,0.0,0.0,0.0,0.0,0.0,0.0,0.0,0.0,0.0,0.0,0.0,0.0,0.0,0.0,0.0,0.0,0.0,7.4999,8.146,0.0,0.0,0.0,0.0,7.9566,8.1663,8.4877,8.941,9.1034,9.3876,9.8409,10.1419,10.399,10.6291,10.8591,10.9031,10.7712,10.849,10.8084,10.6798,10.5986,10.5682,10.5614,10.4092,10.2603,10.0675,9.374,8.8666,8.4911,8.119,7.845,7.6555,7.6555,7.7029,7.757,7.6995,7.6792,7.7096,7.9092,7.6792,7.2631,6.9654,6.6711,0.0,0.0,6.5493,6.6948,6.8571,6.9553,7.05,7.1954,7.1819,7.1345,7.121,7.0026,6.7861,0.0,6.1467,5.9471,5.7881,0.0,5.5547,5.5513,5.5512,5.6664,5.9607,6.0723,6.2076,6.4309,6.3937,6.3193,6.2415,6.0317,5.8423,5.69,5.4769,5.2841,5.1252,5.0473,4.9357,4.7906,4.7838,0.0,0.0,0.0,0.0,0.0,0.0,0.0,0.0,0.0,0.0,0.0,0.0,0.0,0.0,0.0,0.0,0.0,0.0,0.0,0.0,0.0,0.0,0.0,0.0,0.0,0.0,0.0,0.0,8.6061,9.0797,0.0,8.5182,8.5351,8.667,8.8666,9.0865,9.3876,9.7901,9.9965,10.2637,10.6189,10.7813,10.9471,11.1196,11.2008,11.1906,11.0892,11.0689,11.008,10.8997,10.7813,10.7001,10.6494,10.5479,10.4396,10.328,9.9897,9.577,9.1203,8.7922,8.5587,8.393,8.2983,8.278,8.2983,8.2712,8.2306,8.146,7.8889,7.6318,7.3646,7.0703,6.9045,6.8301,6.8774,6.9316,7.0161,7.2157,7.2834,7.3037,7.3105,7.2902,7.2462,7.1515,7.0906,6.9857,6.7557,6.4106,6.096,5.8964,5.778,5.7103,5.7103,5.7543,5.8389,5.9911,6.0791,6.1772,6.3057,6.2516,6.1603,6.0317,5.9032,5.7442,5.5513,5.4634,5.3518,5.1961,5.1657,5.0811,4.9357,4.9323,4.8714,0.0,0.0,0.0,0.0,0.0,0.0,0.0,0.0,0.0,0.0,0.0,0.0,0.0,0.0,0.0,0.0,0.0,0.0,0.0,0.0,0.0,0.0,0.0,0.0,0.0,8.6196,9.1913,9.3368,9.8206,9.9322,9.4079,9.4248,9.5432,9.7191,9.9153,10.169,10.5005,10.6798,10.8693,11.0993,11.2008,11.309,11.4308,11.4308,11.3801,11.2888,11.2109,11.1095,10.9911,10.8625,10.7712,10.7204,10.6223,10.5513,10.4971,10.3483,10.0811,9.7394,9.4112,9.1643,8.9748,8.8767,8.7922,8.7211,8.6704,8.5858,8.437,8.0412,7.8111,7.6352,7.3646,7.2631,7.2496,7.2732,7.3003,7.3477,7.4661,7.4965,7.4728,7.3713,7.3308,7.28,7.1582,7.1312,7.0939,6.9722,6.6643,6.3531,6.1298,5.9877,5.9032,5.9032,5.9032,5.937,6.0385,6.096,6.1501,6.1975,6.1129,6.0013,5.8761,5.7476,5.6156,5.4668,5.4363,5.3653,5.2367,5.23,5.1623,5.0135,5.0101,4.9729,4.8987,0.0,0.0,0.0,0.0,0.0,0.0,0.0,0.0,0.0,0.0,0.0,0.0,0.0,0.0,0.0,0.0,0.0,0.0,0.0,0.0,0.0,0.0,0.0,8.1359,9.1169,9.7664,9.6413,10.3314,10.5614,9.9153,10.1792,10.4193,10.487,10.6392,10.8185,11.0316,11.1196,11.1906,11.2583,11.4004,11.512,11.5898,11.5831,11.512,11.3699,11.2888,11.1399,10.9302,10.849,10.8118,10.8016,10.6528,10.5885,10.5716,10.4193,10.3585,10.3212,9.9525,9.6311,9.374,9.3673,9.2218,9.0019,8.8564,8.7076,8.5554,8.4031,8.2543,8.0953,7.8754,7.757,7.6826,7.6014,7.6318,7.6724,7.5946,7.5709,7.5303,7.3849,7.2935,7.2191,7.1481,7.1312,7.1075,7.0331,6.8977,6.7252,6.5053,6.2854,6.14,6.14,6.0114,0.0,6.1197,6.1366,6.1332,6.1332,5.9979,5.8761,5.7949,5.5886,5.4634,5.4566,5.389,5.3145,5.2367,5.2334,5.1657,5.0202,5.0135,5.0473,5.1185,0.0,0.0,0.0,0.0,0.0,0.0,0.0,0.0,0.0,0.0,0.0,0.0,0.0,0.0,0.0,0.0,0.0,0.0,0.0,0.0,0.0,8.2746,8.8226,8.9951,9.6108,10.2096,10.6595,10.9572,11.0993,11.0181,11.0587,11.0925,11.1095,11.2989,11.4004,11.3496,11.5222,11.6101,11.5695,11.6609,11.7285,11.7488,11.6913,11.6406,11.6,11.4173,11.2989,11.2312,11.1095,10.9877,10.8794,10.8388,10.7306,10.5716,10.4769,10.4092,10.3314,10.0608,9.8781,9.7394,9.577,9.3402,9.0797,8.9309,8.782,8.6332,8.4809,8.3659,8.2577,8.0885,7.987,7.9126,7.8382,7.757,7.686,7.6623,7.5743,7.4661,7.3713,7.2935,7.2191,7.1481,7.1312,7.1075,7.0331,6.9417,6.8233,6.6508,6.4816,6.37,6.37,6.2888,0.0,6.2854,6.2448,6.211,6.211,6.1231,5.9911,5.8051,5.6833,5.5513,5.389,5.3619,5.3416,5.3179,5.3179,5.2706,5.1725,5.1183,5.1014,0.0,0.0,0.0,0.0,0.0,0.0,0.0,0.0,0.0,0.0,0.0,0.0,0.0,0.0,0.0,0.0,0.0,0.0,0.0,0.0,0.0,0.0,9.0019,9.6345,10.01,10.3179,10.7103,11.2583,11.3902,11.4883,11.6406,11.6203,11.5898,11.5898,11.7116,11.7488,11.6609,11.7793,11.83,11.7894,11.8605,11.9011,11.9011,11.7928,11.7218,11.6913,11.4985,11.3699,11.309,11.1906,11.0587,0.0,10.8794,10.7779,10.6189,10.5107,10.4396,0.0,0.0,0.0,0.0,0.0,9.3334,9.1135,8.9951,8.8801,8.7583,8.6061,8.5283,8.4606,8.2746,8.1697,8.0919,7.987,7.872,7.7671,7.7063,7.598,7.4796,7.3747,7.2935,7.2191,7.1481,7.1312,7.1176,7.0737,0.0,0.0,6.7963,6.6271,6.5053,6.5053,6.4174,6.3531,6.3531,6.2854,6.2279,6.1975,6.0994,5.9539,5.7611,5.6461,0.0,0.0,0.0,5.3518,5.3518,5.3179,0.0,0.0,0.0,5.1826,5.2164,0.0,0.0,0.0,5.1048,5.0811,0.0,0.0,0.0,0.0,0.0,0.0,0.0,0.0,0.0,0.0,0.0,0.0,0.0,0.0,0.0,0.0,9.7326,10.3517,11.0012,11.1095,11.2414,11.5695,11.6812,11.7894,11.9281,11.9417,11.9484,11.9586,11.9586,11.9586,11.9586,0.0,0.0,0.0,0.0,12.0364,12.0262,11.8808,11.7691,11.6913,11.5289,11.3902,11.2583,11.1703,11.0486,10.9166,10.8321,10.7509,10.6561,10.5208,10.4566,10.4193,10.2806,10.0878,9.8442,9.5093,9.2827,0.0,0.0,0.0,0.0,8.7245,8.6738,8.6264,8.4133,8.2983,8.2103,8.0615,7.96,7.8653,7.7266,7.6251,7.5236,7.3815,7.2935,7.2191,7.1481,7.1312,7.1312,7.1312,7.0703,6.9958,6.9214,6.7354,6.5899,6.5831,6.4647,6.3734,6.3632,6.299,6.2245,6.1501,0.0,0.0,5.7171,5.575,5.4566,5.3687,5.3551,5.3518,5.3518,5.2807,5.2773,5.3484,5.2807,5.2807,5.3518,5.2773,5.2807,5.345,5.1995,5.1354,0.0,0.0,0.0,0.0,0.0,0.0,0.0,0.0,0.0,0.0,0.0,0.0,0.0,0.0,0.0,9.736,10.3517,10.92,11.4038,11.5831,11.6879,11.759,11.8808,12.0025,12.0905,12.1006,12.1209,12.1785,12.1886,12.1886,12.1886,12.1886,12.1886,12.1886,12.1412,12.0905,12.0262,11.8808,11.7691,11.6913,0.0,0.0,11.3293,11.1399,11.0012,10.9166,10.8321,10.69,10.5073,10.4769,10.3585,10.1893,10.1014,9.9288,9.7157,9.5838,9.4011,9.2015,9.0662,8.8937,8.7177,8.6298,8.5587,8.4877,8.3795,8.2983,0.0,8.0615,7.9228,7.801,7.713,7.5879,7.4593,7.3713,7.2935,7.2191,7.1481,7.1312,7.1312,7.1312,7.0703,6.9958,6.9214,6.8199,6.7286,6.6677,6.5831,6.5053,6.4478,6.3734,6.3024,6.2245,6.14,6.025,5.8727,5.778,5.6427,5.4499,5.3822,5.3518,5.3518,5.3348,5.3348,5.3518,5.3348,5.3348,5.3518,5.3348,5.3348,5.3484,5.2536,5.2435,0.0,0.0,0.0,0.0,0.0,0.0,0.0,0.0,0.0,0.0,0.0,8.2035,8.6129,0.0,9.8442,10.4802,11.0215,11.468,11.7624,11.9721,12.0431,11.9315,12.0195,12.1108,12.1886,12.2596,12.3205,12.3577,12.3611,12.3611,12.3611,12.3273,12.2901,12.2495,12.2495,12.1785,12.0296,11.918,11.8097,11.6913,11.5425,11.4308,11.353,11.2076,11.0587,10.9166,10.8321,10.7001,10.5208,10.4464,10.2806,10.0777,10.0405,9.8848,9.6751,9.5669,9.3808,9.1643,9.0154,8.8666,8.7279,8.6163,8.552,8.508,8.4302,8.3287,8.2171,8.1054,7.9397,7.7807,7.7096,7.5777,7.4525,7.4153,7.3206,7.2293,7.1921,7.1582,7.1312,7.1312,7.1007,7.0398,6.9282,6.8774,6.8098,6.6981,6.617,6.5425,6.4681,6.3971,6.3226,6.2482,6.1366,6.025,5.9099,5.7645,5.6325,5.5209,5.4465,5.4059,5.4059,5.3687,5.3518,5.3518,5.3518,5.3518,5.3518,5.3518,5.3518,5.3484,5.3078,5.3112,0.0,0.0,0.0,0.0,0.0,0.0,0.0,7.6893,7.8314,8.2205,8.5384,8.914,9.4721,10.0405,10.6088,11.1805,11.6,11.9112,12.0736,12.2495,12.3002,12.1311,12.1785,12.2495,12.3104,12.4389,12.51,12.51,12.4998,12.4897,12.4897,12.422,12.351,12.2698,12.3205,12.2292,12.0093,11.9383,11.8199,11.671,11.5932,11.4917,11.3598,11.2685,11.1162,10.9099,10.7915,10.6595,10.531,10.3923,10.213,10.0235,10.0235,9.8781,9.6514,9.5364,9.3368,9.1102,8.9782,8.8632,8.755,8.623,8.5689,8.5384,8.4471,8.3355,8.2205,8.1156,7.9464,7.7807,7.7096,7.5879,7.4796,7.4661,7.3578,7.2563,7.2428,7.1819,7.1312,7.1312,7.1312,7.0838,6.935,6.9113,6.8571,6.7049,6.617,6.5425,6.4681,6.3971,6.3226,6.2482,6.1163,5.9979,5.9099,5.7239,5.6089,5.5919,5.5209,5.4803,5.4803,5.4126,5.3721,5.3721,5.3585,5.3518,5.3518,5.3518,5.3585,5.3721,5.3721,5.3653,7.8348,7.6183,7.527,7.6927,7.6995,7.8517,0.0,8.6907,8.7753,9.2184,9.5432,9.8679,10.2671,10.7272,11.1906,11.6609,11.8909,12.0803,12.2935,12.3442,12.3814,12.4186,12.4897,12.5404,12.5506,12.6284,12.669,12.669,12.6115,12.581,12.581,12.4998,12.422,12.351,12.2901,12.1582,11.9315,11.8605,11.7421,11.5932,11.5188,11.441,11.3598,11.2177,11.0689,10.8997,10.6291,10.4599,10.3787,10.2976,10.169,10.0235,10.0235,9.8442,9.5905,9.5736,9.3808,9.1169,9.0357,8.8734,8.6907,8.6061,8.5317,8.4471,8.3084,8.2543,8.1968,7.9938,7.8686,7.7807,7.7096,7.6251,7.5405,7.4762,7.3984,7.3206,7.2529,7.1819,7.1312,7.1312,7.1312,7.0838,6.935,6.9113,6.8571,6.7049,6.617,6.5425,6.4681,6.3971,6.3226,6.2482,6.167,6.0588,5.9133,5.8186,5.7374,5.6731,5.5987,5.5581,5.5581,5.4871,5.4465,5.4465,5.3822,5.3518,5.3518,5.3518,5.3822,5.4465,5.4465,5.4126,8.0479,7.9228,7.8822,8.0209,8.2272,8.5215,8.9951,9.215,9.4214,9.7834,10.1622,10.531,10.8591,11.326,11.7488,12.0195,12.2698,12.4389,12.4897,12.422,12.3239,12.2292,12.2799,12.3814,12.51,12.5912,12.6385,12.6385,12.6487,12.6385,12.5912,12.51,12.4186,12.3002,12.1785,12.0364,11.8605,11.7793,11.6913,11.5831,11.5086,11.4308,11.3496,11.1602,10.9505,10.7103,10.5377,10.4295,10.3483,10.2299,10.1216,10.0134,9.9254,9.7631,9.5702,9.4823,9.3131,9.1,8.9004,8.7685,8.6704,8.5486,8.4877,8.4437,8.3355,8.2746,8.2137,8.075,7.9532,7.8483,7.7739,7.6961,7.6217,7.5439,7.4356,7.3409,7.3105,7.2124,7.1312,7.1312,7.1312,7.0973,6.9925,6.9383,6.8707,6.7624,6.644,6.5425,6.4681,6.3971,6.3057,6.1873,6.1061,6.0182,5.9099,5.8321,5.7746,5.7442,5.6765,5.6359,5.6359,5.5649,5.5243,5.5243,5.4938,5.4566,5.4126,5.4566,5.4735,5.46,5.504,5.4837,8.1325,8.1291,8.2069,8.4065,8.7786,9.1744,9.4789,9.7664,10.0472,10.3483,10.7001,11.0486,11.3496,11.7488,12.0905,12.2799,12.51,12.6588,12.6216,12.4525,12.2596,12.0533,11.989,12.0296,12.2393,12.4389,12.5607,12.5607,12.6284,12.6385,12.5607,12.4795,12.3814,12.2495,12.1277,11.9789,11.8097,11.7522,11.671,11.5831,11.5086,11.4308,11.3496,11.0892,10.8287,10.5716,10.4802,10.399,10.3212,10.1893,10.0811,9.9796,9.851,9.6853,9.5026,9.374,9.2421,9.0932,8.8395,8.7245,8.6704,8.5384,8.464,8.4167,8.3422,8.2678,8.1934,8.119,7.9938,7.8686,7.8145,7.7299,7.6352,7.5574,7.4424,7.3443,7.324,7.2191,7.1312,7.1312,7.1312,7.1075,7.0331,6.9586,6.8842,6.803,6.6643,6.5493,6.4952,6.4106,6.3024,6.1738,6.1061,6.0452,5.9708,5.893,5.8423,5.822,5.7509,5.7103,5.7103,5.6393,5.6021,5.6021,5.5615,5.5243,5.4905,5.5243,5.5344,5.5209,5.575,5.5818,8.0445,8.1291,8.3592,8.87,9.2793,9.692,10.2096,10.5005,10.7475,11.0486,11.2312,11.4376,11.7387,11.9214,12.1311,12.4186,12.5404,12.6182,12.6893,12.4389,12.1988,12.0499,11.7116,11.5492,11.7015,12.1717,12.4694,12.4694,12.5506,12.5607,12.4795,12.4017,12.3307,12.2495,12.1785,12.0296,11.8097,11.8097,11.7319,11.5831,11.5086,11.4308,11.3496,10.9809,10.7238,10.5716,10.4295,10.3212,10.2502,10.169,10.0472,9.9051,9.8307,9.621,9.3571,9.2759,9.1947,9.1068,8.9545,8.8091,8.6771,8.5993,8.4742,8.3389,8.2678,8.19,8.1156,8.0445,7.916,7.801,7.801,7.686,7.554,7.483,7.4052,7.3274,7.2597,7.1853,7.1312,7.1312,7.1312,7.1075,7.0331,6.9586,6.8842,6.803,6.6643,6.5662,6.5662,6.441,6.3226,6.2448,6.2347,6.2009,6.1298,6.0486,5.9742,5.9032,5.8254,5.7848,5.7848,5.7171,5.6765,5.6765,5.5344,5.4972,5.5683,5.4972,5.5344,5.6731,5.6765,5.7137,8.2915,8.6027,9.0425,9.6176,10.01,10.3517,10.7779,11.0114,11.1501,11.1974,11.2482,11.3192,11.4173,11.6,11.83,12.1277,12.4085,12.6013,12.6216,12.4525,12.1209,11.5797,11.441,11.3192,11.1196,11.5729,0.0,12.2292,12.3713,12.4017,12.3273,12.351,12.2799,12.1074,11.989,11.8605,11.7319,11.6812,11.6304,11.5831,11.4072,11.2279,11.0587,10.8287,10.6494,10.5005,10.399,10.2908,10.169,10.0912,9.9728,9.824,9.7022,9.533,9.3436,9.215,9.1203,9.029,8.8328,8.7313,8.6704,8.5418,8.4674,8.4099,8.3355,8.2611,8.1866,8.1122,8.0209,7.9228,7.8247,7.7604,7.6893,7.5642,7.439,7.3409,7.3172,7.2157,7.1312,7.1312,7.1312,7.1244,7.0973,7.0331,6.9383,6.8098,6.6643,6.5493,6.5019,6.4546,6.414,6.3903,6.299,6.2279,6.2042,6.0825,5.9979,5.9742,5.9505,5.9133,5.866,5.8389,5.8051,5.7543,5.7036,5.6664,5.6427,5.6664,5.6799,5.6799,5.7306,5.7408,8.7245,9.144,9.6311,10.2603,10.6189,10.8997,11.1906,11.3293,11.3598,11.238,11.1196,11.0283,10.9775,11.0012,11.1703,11.6,11.8774,12.1311,12.3916,12.1818,11.83,11.3801,11.2076,11.0486,10.8625,11.1501,11.5222,11.9484,12.1412,12.2292,12.2089,12.2596,12.2021,12.0398,11.9112,11.7996,11.6913,11.6406,11.5695,11.4613,11.2617,11.0486,10.8287,10.7103,10.5682,10.4261,10.3517,10.2502,10.1284,10.0506,9.9187,9.7461,9.5973,9.4315,9.2624,9.1372,9.0256,8.9173,8.7482,8.6907,8.667,8.5114,8.4437,8.4099,8.3321,8.2577,8.1866,8.1088,8.0378,7.96,7.8653,7.801,7.7266,7.598,7.4762,7.3747,7.3206,7.236,7.1616,7.1379,7.1312,7.1312,7.1312,7.0466,6.9282,6.776,6.6711,6.5831,6.5087,6.4986,6.4783,6.4275,6.3362,6.2685,6.2415,6.1231,6.052,6.052,6.025,5.9776,5.9032,5.9032,5.866,5.7915,5.7645,5.7408,5.7171,5.7408,5.7408,5.7205,5.7679,5.7645,9.2928,9.7258,10.1216,10.7779,11.0993,11.2989,11.4308,11.4579,11.3801,11.1501,10.849,10.5783,10.4193,10.1792,10.2198,10.8896,11.0384,11.3192,12.0499,11.7218,11.4207,11.4613,11.0283,10.7779,10.9099,10.9302,11.1399,11.6507,0.0,12.0465,12.1209,12.1379,12.1006,12.0228,11.9518,11.8402,11.6879,11.6812,11.5289,11.238,11.0892,10.8997,10.6798,10.602,10.4904,10.3483,10.2806,10.1995,10.1183,10.0405,9.8815,9.6683,9.5229,9.3267,9.1203,9.0425,8.9241,8.7888,8.711,8.6839,8.6602,8.5114,8.4099,8.3355,8.2678,8.19,8.1122,8.0445,7.9735,7.916,7.9126,7.8077,7.6826,7.6014,7.5236,7.4289,7.2868,7.2496,7.2191,7.1515,7.1345,7.1312,7.1312,7.0128,6.8673,6.7218,6.6948,6.6643,6.5865,6.5764,6.5222,6.3835,6.3666,6.3328,6.2584,6.1839,6.14,6.1366,6.0655,5.9911,5.9167,5.9099,5.8727,5.7949,5.7239,5.7205,5.7881,5.7205,5.7205,5.7881,5.7881,5.7881,9.6717,10.2603,10.8287,11.1602,11.3293,11.4105,11.3902,11.2617,11.0316,10.6392,10.1419,9.7022,9.4383,9.5567,9.895,10.5107,11.1196,11.7015,12.2326,12.1412,11.8875,11.5086,11.3496,11.2008,11.0181,11.0993,11.2888,0.0,11.7184,11.8368,11.9687,12.0803,12.0601,11.8706,11.8503,11.7624,11.6101,11.5019,11.3226,11.0824,10.9302,10.7712,10.602,10.4701,10.3686,10.2705,10.1995,10.0878,9.9627,9.8882,9.7597,9.5939,9.4451,9.2827,9.1135,8.985,8.8767,8.782,8.6535,8.6061,8.5926,8.4945,8.4099,8.3456,8.3287,8.2306,8.1257,8.1054,8.0479,7.9803,7.9261,7.8822,7.8348,7.757,7.6386,7.5337,7.4931,7.3544,7.2326,7.2157,7.1684,7.1312,7.1312,7.0534,6.9789,6.9383,6.8876,6.803,6.6711,6.6542,6.6373,6.6,6.5459,6.4816,6.4106,6.3362,6.2719,6.2144,6.1907,6.1467,6.0757,6.0148,5.9471,5.8727,5.7983,5.7712,5.7881,5.7712,5.7712,5.7881,5.7881,5.7881,10.2603,10.8016,11.2617,11.4207,11.4917,11.4308,11.0925,10.8997,10.5783,9.8679,9.4079,9.0087,8.6061,8.8125,9.2455,9.8781,10.5885,11.309,12.0195,11.9992,11.8605,11.7285,11.6,11.4511,11.2921,11.3496,11.4613,11.6203,11.6406,11.7285,11.9078,11.9687,11.9417,11.8131,11.7793,11.6812,11.5323,11.3496,11.1703,10.9809,10.7915,10.6291,10.4802,10.399,10.3212,10.2502,0.0,10.0675,9.9491,9.8442,9.6954,9.5161,9.3673,9.1947,9.0188,8.9038,8.7922,8.6907,8.6061,8.5554,8.5215,8.4776,8.4336,8.393,8.3592,8.2712,8.1697,8.1393,8.075,8.0107,7.9701,7.9363,7.9025,7.8585,7.757,7.6623,7.6284,7.4728,7.3071,7.2124,7.1582,7.121,7.0872,7.0466,7.0094,6.9755,6.935,6.8808,6.7929,6.7523,6.7049,6.6406,6.5933,6.5392,6.4647,6.4241,6.3666,6.2922,6.2888,6.2415,6.1332,6.0858,6.0283,5.9505,5.8761,5.8524,5.8863,5.822,5.8051,5.8389,5.8389,5.822,10.92,11.3023,11.5492,11.6101,11.6,11.3902,10.7204,10.4498,10.0472,9.029,8.6636,8.3795,7.8957,8.0818,8.5351,9.2421,9.8848,10.6595,11.7082,11.6778,11.671,12.0161,11.8097,11.6406,11.6406,11.6406,11.671,11.7319,11.6609,11.7015,11.8909,11.8503,11.8199,11.7928,11.7082,11.5898,11.4579,11.238,11.0486,10.8997,10.6697,10.4904,10.3585,10.3483,10.3077,10.2299,0.0,0.0,9.9965,9.8375,9.6514,9.4552,9.2895,9.1034,8.9106,8.8192,8.7042,8.5892,8.5689,8.5182,8.464,8.464,8.4539,8.4336,8.3693,8.2915,8.2137,8.146,8.075,8.0209,8.0209,7.9735,7.9261,7.9261,7.8686,7.7976,7.7333,7.5845,7.3984,7.1887,7.1379,7.1109,7.0466,7.0331,7.0128,6.9485,6.9383,6.935,6.9248,6.8538,6.7523,6.6136,6.5967,6.5628,6.4816,6.4749,6.4444,6.37,6.3565,6.2956,6.1637,6.14,6.096,6.0283,5.9539,5.9471,6.0114,5.8795,5.8524,5.9167,5.9167,5.8795,11.2989,11.6101,11.8469,11.8605,11.671,11.309,10.6392,10.0506,9.4011,8.5351,7.9938,7.5912,7.3172,7.7096,8.3592,9.2184,10.01,10.8896,11.9383,11.9992,12.0025,12.1886,12.0601,11.9518,11.9518,11.9518,11.9586,0.0,11.8503,11.7894,11.83,11.8706,11.8402,11.7116,11.5797,11.468,11.3801,11.1602,10.9708,10.8219,10.5986,10.4396,10.3585,10.3009,10.2299,10.1487,10.0777,0.0,9.9119,9.7022,9.5601,9.4485,9.2319,9.0899,8.9782,8.782,8.6941,8.6535,8.5249,8.4742,8.464,8.464,8.42,8.3659,8.3524,8.2543,8.146,8.1325,8.075,8.0209,8.0209,8.0107,8.0006,8.0006,7.9464,7.8889,7.8754,7.6555,7.4153,7.2529,7.1718,7.1278,7.1142,7.1109,7.1075,7.0939,7.0939,7.0703,7.0094,6.935,6.8538,6.7624,6.7523,6.6948,6.5595,6.5493,6.5189,6.4478,6.3835,6.3396,6.3159,6.1941,6.1231,6.1095,6.0317,5.9979,6.0114,5.9844,5.9776,5.9911,5.9911,5.9844,11.5898,11.8402,12.0093,11.8909,11.5492,11.0012,10.098,9.4315,8.7279,7.7502,7.4086,7.209,6.9451,7.4492,8.0953,8.6805,9.3673,10.2198,11.3496,11.441,11.6034,12.1785,12.1209,12.0601,12.1379,12.077,12.0262,12.0262,11.9281,11.8706,11.8706,11.8199,11.7488,11.6406,11.5289,11.4308,11.3598,11.1399,10.9505,10.8016,10.5783,10.4295,10.3585,10.2806,10.2096,10.1386,10.0506,0.0,9.8916,9.6717,9.5364,9.4485,9.2184,9.0594,8.941,8.7583,8.667,8.6163,8.5012,8.464,8.464,8.464,8.437,8.4065,8.4065,8.305,8.1866,8.1866,8.1054,8.0209,8.0209,8.0209,8.0209,8.0209,7.9938,7.9363,7.8213,7.6826,7.5236,7.3341,7.2394,7.1887,7.1887,7.1548,7.1312,7.1312,7.1312,7.1176,7.0804,7.0466,6.9823,6.8639,6.8504,6.8064,6.6948,6.6846,6.6373,6.5222,6.485,6.4478,6.4106,6.3396,6.2854,6.2448,6.2076,6.167,6.1298,6.0926,6.0723,6.0723,6.0723,6.0486,11.8097,12.0093,12.1209,11.9315,11.4308,10.7001,9.6277,8.9038,8.1629,7.1244,6.9755,6.9688,6.7455,7.2259,7.7841,8.1765,8.7008,9.4755,10.6798,10.8625,11.2008,12.0973,12.1277,12.1176,12.2393,12.148,12.0601,12.0296,11.9484,0.0,11.8706,11.7387,11.6406,11.5831,11.4917,11.4105,11.3395,11.1196,10.9403,10.8016,10.5783,10.4396,10.3787,10.2908,10.2096,10.1386,10.0506,0.0,0.0,9.665,9.5263,9.4248,9.2116,9.0493,8.914,8.7685,8.667,8.5926,8.5148,8.4776,8.464,8.464,8.464,8.464,8.464,8.3693,8.2644,8.2644,8.1697,8.0682,8.0682,8.0547,8.0412,8.0242,8.0209,7.9667,7.7773,7.7266,7.6487,7.4356,7.3375,7.2766,7.2462,7.1921,7.1481,7.1345,7.1312,7.1312,7.1312,7.1312,7.0872,6.9688,6.9417,6.9011,6.8233,6.7996,6.7421,6.6237,6.5865,6.5425,6.485,6.4681,6.4343,6.3768,6.3768,6.3362,6.2618,6.2212,6.1941,6.1772,6.1941,6.1569,11.9518,12.1209,12.219,12.1311,11.4613,10.5817,9.6683,8.7414,7.8517,7.0703,6.8098,6.7354,6.7726,7.006,7.4221,8.1257,8.5723,9.2455,10.4396,10.8997,11.3395,11.9789,12.1582,12.236,12.2495,12.2393,12.1683,12.0364,11.8977,0.0,11.7184,11.6338,11.5898,11.5831,11.441,11.3293,11.2583,11.0384,10.8896,10.8016,10.5783,10.4667,10.4566,10.3111,10.2096,10.1386,10.0506,0.0,0.0,9.6447,9.4958,9.3537,9.1913,9.0797,8.9918,8.8429,8.7448,8.6704,8.596,8.5215,8.464,8.464,8.464,8.464,8.464,8.4065,8.3389,8.3389,8.2813,8.2205,8.2205,8.1697,8.1021,8.0344,8.0209,7.9972,7.9092,7.8382,7.7401,7.5811,7.4897,7.3984,7.2631,7.2326,7.209,7.1413,7.1312,7.1312,7.1312,7.1312,7.1278,7.1109,7.05,6.9789,6.9045,6.8335,6.7827,6.7692,6.644,6.5662,6.5595,6.4952,6.458,6.4512,6.4512,6.414,6.3429,6.4005,6.3971,6.3328,6.4005,6.3903,11.7319,12.0296,12.2089,12.0499,11.2685,10.3111,9.4586,8.4776,7.5642,6.9079,6.7252,6.6914,6.7184,6.8335,7.0838,7.5608,7.6893,8.1122,9.2218,9.5432,10.0878,11.2279,11.5289,11.8063,12.2089,12.2089,12.1006,11.9112,11.7996,0.0,11.6304,11.6,11.5628,11.5188,11.3699,11.2583,11.1805,10.9606,10.8321,10.8016,10.5783,10.4667,10.4599,10.3179,10.1825,10.0709,10.0337,0.0,0.0,9.621,9.4924,9.3436,9.188,9.0865,9.0019,8.8531,8.755,8.6805,8.6061,8.5283,8.464,8.464,8.464,8.464,8.464,8.4099,8.349,8.349,8.2983,8.2408,8.2408,8.1832,8.1224,8.0919,8.0513,8.0006,7.9261,7.8889,7.8348,7.7266,7.6082,7.5067,7.4492,7.3274,7.2293,7.2022,7.1582,7.1312,7.1312,7.1312,7.1312,7.1312,7.1041,7.0567,6.9823,6.9451,6.8876,6.7963,6.7354,6.6812,6.6373,6.6102,6.573,6.5256,6.5696,6.5358,6.4174,6.4884,6.4884,6.4174,6.4478,6.4444,11.3801,11.8199,12.0973,11.8774,11.0316,10.0506,9.2455,8.2712,7.3747,6.7996,6.6812,6.6812,6.6812,6.7218,6.8504,7.1278,7.1244,7.4255,8.4099,8.6873,9.2522,10.5073,10.849,11.238,11.8875,12.0296,11.9992,11.8232,0.0,0.0,11.5831,11.5628,11.5222,11.468,11.309,11.1805,11.1095,10.9031,10.7915,10.7712,10.5682,10.4667,10.4599,10.3179,10.169,10.0235,0.0,0.0,0.0,9.6007,9.4924,9.3436,9.188,9.0966,9.0357,8.8869,8.7854,8.711,8.6366,8.5621,8.4945,8.4708,8.464,8.464,8.464,8.4268,8.3828,8.3828,8.3456,8.3016,8.278,8.2171,8.1562,8.1325,8.0716,8.0107,7.9837,7.96,7.9261,7.8754,7.7604,7.6487,7.5811,7.4424,7.324,7.28,7.2293,7.1887,7.165,7.165,7.1548,7.1345,7.1312,7.1109,7.0567,7.0331,6.9722,6.8639,6.8368,6.803,6.7523,6.7489,6.7252,6.6711,6.7218,6.6846,6.5595,6.6339,6.6305,6.5595,6.5595,6.5324,10.9302,11.4714,11.8706,11.6406,10.8016,9.8307,9.0797,8.1596,7.3138,6.7895,6.6812,6.6812,6.6812,6.6812,6.7557,6.9857,7.1413,7.527,8.3558,8.7854,9.2692,9.9491,10.2299,10.5986,11.1974,11.6575,11.8909,11.8199,0.0,0.0,11.5831,11.5086,11.468,11.468,11.2583,11.1095,11.0316,10.8794,10.761,10.69,10.5377,10.4667,10.4599,10.3179,10.169,0.0,0.0,0.0,0.0,9.5804,9.4924,9.3436,9.188,9.1305,9.1102,8.9613,8.8598,8.7888,8.7144,8.6399,8.5655,8.4877,8.464,8.464,8.464,8.4553,8.4606,8.4606,8.4606,8.4437,8.3693,8.2949,8.2205,8.146,8.0716,8.0412,8.1088,8.0682,8.0175,8.0175,7.9566,7.8348,7.6082,7.5676,7.5168,7.368,7.3477,7.3206,7.2462,7.2394,7.2124,7.1379,7.1312,7.1312,7.1312,7.0635,7.0195,7.0161,6.9485,6.9079,6.9079,6.9079,6.9079,6.9079,6.9079,6.8673,6.7861,6.8673,6.8639,6.7861,6.7861,6.7083,9.7225,10.169,10.4802,10.2096,9.6582,9.0324,8.437,7.8247,7.2496,6.7793,6.6812,6.6812,6.6812,6.6406,6.7455,7.1751,7.1988,7.3815,8.0006,8.4945,9.1,9.9254,10.9403,11.6304,11.7691,0.0,11.8097,11.7319,0.0,0.0,11.5831,11.4613,11.3699,11.3192,11.1501,11.0012,10.8727,10.7238,10.6392,10.6122,10.4667,10.3889,10.3889,10.2908,0.0,0.0,0.0,0.0,0.0,9.5263,9.3876,9.1913,9.0932,9.0222,8.9715,8.9241,8.8632,8.7888,8.7177,8.6433,8.5655,8.4877,8.464,8.464,8.464,8.464,8.464,8.464,8.464,8.4573,8.4336,8.3355,8.234,8.2103,8.1494,8.1021,8.1224,8.1494,8.1562,8.1054,8.0344,7.9464,7.8247,7.6724,7.554,7.5067,7.4153,7.3409,7.3172,7.3138,7.2868,7.2124,7.2056,7.1853,7.1345,7.1109,7.0737,7.0229,6.9958,6.962,6.9113,6.9113,6.9113,6.9113,6.9113,6.8977,6.8707,6.8977,6.8977,6.8707,6.8166,6.7658,8.8057,9.3165,9.6447,9.4011,8.9816,8.508,8.0412,7.5676,7.121,6.7557,6.6812,6.6812,6.6812,6.644,6.7184,7.0432,7.0703,7.2191,7.713,8.2577,8.9478,9.8713,10.9877,11.6609,0.0,11.7015,11.7421,0.0,0.0,0.0,11.5425,11.4004,11.2685,11.1703,11.0486,10.9302,10.8016,10.6528,10.5817,10.5817,10.4295,10.3483,10.3179,10.2401,0.0,0.0,0.0,0.0,0.0,9.4687,9.3267,9.1609,9.0594,8.9918,8.9478,8.9173,8.8801,8.826,8.7245,8.6602,8.6027,8.4979,8.464,8.464,8.464,8.464,8.464,8.464,8.464,8.464,8.464,8.3727,8.2813,8.2813,8.2238,8.1799,8.2069,8.2035,8.1934,8.1731,8.0885,7.9972,7.9228,7.7942,7.6893,7.6589,7.5777,7.4965,7.439,7.4322,7.3916,7.2902,7.28,7.2529,7.1785,7.1481,7.1109,7.0635,7.0601,7.0398,6.9958,6.9925,6.9925,6.9925,6.9925,6.9925,6.9925,6.9925,6.9789,6.9485,6.9011,6.8605,0.0,8.7583,9.1711,9.0121,8.6095,8.1596,7.801,7.3477,0.0,6.7184,6.6745,6.6779,6.688,6.6812,6.6846,6.7151,6.8402,7.0872,7.5303,8.1596,8.9241,9.8679,10.5682,10.9708,10.9505,11.4004,11.6913,0.0,0.0,0.0,11.468,11.3192,11.1703,11.0283,10.9505,10.8693,10.7915,10.6494,10.5716,10.5716,10.4193,10.3111,10.2401,10.169,0.0,0.0,0.0,0.0,0.0,9.4112,9.2996,9.2116,9.0696,9.0121,9.0053,8.9342,8.9038,8.8801,8.738,8.6873,8.6602,8.5114,8.464,8.464,8.464,8.464,8.464,8.464,8.464,8.464,8.464,8.4065,8.349,8.349,8.2983,8.2678,8.3355,8.2441,8.1697,8.2306,8.1291,8.0107,7.9329,7.916,7.8889,7.8179,7.801,7.7468,7.6048,7.5811,7.5236,7.3781,7.3612,7.3274,7.2529,7.1819,7.1379,7.1379,7.1345,7.1345,7.1379,7.1345,7.1312,7.1312,7.1312,7.1312,7.1312,7.1312,7.0973,7.0263,7.0195,6.9823,6.9891,0.0,7.6893,7.483,7.3815,7.2631,0.0,6.891,6.7963,6.6305,6.5967,6.6305,6.7421,6.6711,6.7083,7.0534,7.1379,7.3206,7.7671,8.8835,9.9119,10.5986,11.2279,11.5086,11.2786,11.5188,0.0,0.0,0.0,11.4613,11.3902,11.2482,11.0993,10.9471,10.8693,10.7915,10.7204,10.5682,10.4971,10.4904,10.3483,10.2401,10.169,10.1487,0.0,0.0,0.0,0.0,9.4857,9.3334,9.1913,9.0628,8.9715,8.9342,8.9342,8.914,8.8734,8.8125,8.7211,8.6535,8.5892,8.4945,8.464,8.464,8.464,8.464,8.464,8.464,8.464,8.464,8.464,8.4065,8.349,8.349,8.3355,8.3287,8.3456,8.3659,8.3558,8.2611,8.2137,8.146,8.0175,7.9464,7.9058,7.8889,7.8348,7.7874,7.7502,7.6961,7.6251,7.527,7.4695,7.4052,7.3308,7.2563,7.2157,7.2157,7.1616,7.1548,7.2124,7.1616,7.1312,7.1312,7.1312,7.1312,7.1312,7.1312,7.121,7.1041,7.0466,7.0094,6.5392,6.8233,7.1007,6.9485,6.9113,6.8808,6.759,6.6846,6.6271,6.5764,6.5425,6.5628,6.7117,6.6474,6.6711,6.9823,7.121,7.4897,8.349,9.3064,10.1927,10.9302,11.3361,11.5289,0.0,0.0,0.0,0.0,0.0,11.4207,11.3192,11.1703,11.0215,10.8693,10.761,10.6798,10.6392,10.5276,10.4498,10.4193,10.2705,10.1589,10.0811,10.0506,9.9694,0.0,0.0,0.0,9.4552,9.2692,9.1237,9.0121,8.9376,8.9072,8.9072,8.9072,8.8835,8.8328,8.7279,8.6196,8.5182,8.4776,8.464,8.464,8.464,8.464,8.464,8.464,8.464,8.464,8.464,8.4302,8.3998,8.3998,8.3998,8.3998,8.3998,8.4065,8.3862,8.305,8.2374,8.1629,8.0818,8.0378,8.0006,7.9667,7.9532,7.9261,7.8585,7.8145,7.7604,7.6826,7.6386,7.5845,7.51,7.4356,7.3612,7.2935,7.2529,7.2326,7.2394,7.2022,7.165,7.1312,7.1312,7.1312,7.1312,7.1312,7.1312,7.1312,7.0906,7.0703,6.4884,6.7523,6.9925,6.8842,6.8166,6.7658,6.7455,6.5865,6.4613,6.5222,6.4952,6.5053,6.6542,6.6677,6.7049,6.8504,7.1345,7.7807,9.0527,9.6074,10.1893,11.008,11.2177,0.0,11.512,0.0,0.0,0.0,0.0,11.3699,11.2177,11.079,10.9234,10.7712,10.6494,10.5716,10.5479,10.4802,10.4193,10.3585,10.2096,10.0912,10.0032,9.939,9.8578,0.0,0.0,0.0,9.4214,9.215,9.0797,8.9985,8.9342,8.9004,8.8903,8.8903,8.8767,8.8395,8.7042,8.5723,8.464,8.464,8.464,8.464,8.464,8.464,8.464,8.464,8.464,8.464,8.464,8.464,8.464,8.464,8.464,8.464,8.464,8.4133,8.3625,8.3524,8.2475,8.1596,8.1494,8.146,8.1257,8.0615,8.1054,8.0953,7.9634,7.9363,7.8991,7.8247,7.8044,7.7739,7.713,7.6454,7.5506,7.4255,7.3747,7.3206,7.2597,7.2563,7.2225,7.1481,7.1481,7.1413,7.1312,7.1312,7.1312,7.1312,7.1312,7.1312,6.6136,6.8301,6.9553,6.688,6.6609,6.6643,6.5392,6.4377,6.37,6.3835,6.4241,6.5053,6.6542,6.8808,7.0939,7.2394,7.828,8.5993,9.5635,10.0303,10.4396,10.8997,0.0,11.4714,11.3192,0.0,0.0,0.0,0.0,11.2177,11.0722,10.92,10.7712,10.6223,10.5919,10.5208,10.3923,10.3787,10.3686,10.3585,10.2096,10.0675,9.9254,9.9153,9.8003,0.0,0.0,9.4654,9.2692,9.1711,9.0493,8.9241,8.914,8.87,8.8158,8.8158,8.738,8.6163,8.5283,8.4809,8.464,8.464,8.464,8.464,8.464,8.464,8.464,8.464,8.464,8.464,8.464,8.464,8.464,8.464,8.464,8.464,8.464,8.4539,8.4268,8.3625,8.3321,8.2949,8.234,8.2238,8.2205,8.2103,8.2171,8.1934,8.1054,8.0412,7.9769,7.9025,7.8382,7.7942,7.7841,7.7705,7.7536,7.7299,7.4897,7.3443,7.3341,7.3308,7.2969,7.2259,7.2225,7.1921,7.1312,7.1312,7.1312,7.1312,7.1312,7.1312,6.4241,6.5764,6.7117,6.6948,6.8064,6.8741,6.6812,6.5493,6.4918,6.573,6.5493,6.5899,6.8199,7.1075,7.4897,8.0445,8.6264,9.2387,9.8916,10.2367,10.5885,0.0,0.0,11.4105,0.0,0.0,0.0,0.0,0.0,0.0,0.0,0.0,10.7306,10.5817,10.5411,10.4701,10.3585,10.2806,10.2603,10.3009,10.1487,10.0405,9.966,9.8442,9.736,9.6311,0.0,9.3774,9.2319,9.1169,9.0053,8.9072,8.9072,8.8632,8.7955,8.755,8.6974,8.6298,8.552,8.4979,8.464,8.464,8.464,8.464,8.464,8.464,8.464,8.464,8.464,8.464,8.464,8.464,8.464,8.464,8.464,8.464,8.464,8.464,8.4539,8.4167,8.3761,8.3389,8.305,8.2983,8.2881,8.2475,8.2746,8.2746,8.2002,8.1596,8.1257,8.0919,8.0581,8.0209,7.9803,7.9397,7.8855,7.8044,7.6318,7.5134,7.4695,7.4289,7.3544,7.2428,7.28,7.2631,7.1887,7.2293,7.2496,7.2462,7.209,7.1887,6.3768,6.4512,6.5561,6.7421,6.8944,6.9891,6.9553,6.8064,6.7252,6.9079,6.8707,6.8673,7.0838,7.4661,8.0209,8.8463,9.374,9.8341,10.2874,10.5208,10.8084,11.2482,11.3192,0.0,0.0,0.0,0.0,0.0,0.0,0.0,0.0,0.0,10.6832,10.531,10.4701,10.399,10.3077,10.1961,10.169,10.2198,10.0709,9.9863,9.9627,9.7732,9.6616,9.6007,9.4315,9.2962,9.1812,9.0696,8.9782,8.9072,8.9072,8.8531,8.7617,8.6704,8.6366,8.6298,8.5723,8.5114,8.464,8.464,8.464,8.464,8.464,8.464,8.464,8.464,8.464,8.464,8.464,8.464,8.464,8.464,8.464,8.464,8.464,8.464,8.464,8.464,8.4167,8.3761,8.3761,8.3761,8.3558,8.3016,8.3422,8.349,8.2746,8.2678,8.2611,8.2441,8.2408,8.2171,8.1596,8.1021,8.0141,7.8855,7.7739,7.6893,7.6251,7.554,7.4525,7.3206,7.3544,7.3375,7.2665,7.3206,7.3477,7.3477,7.2732,7.2394,6.7861,6.7658,6.6846,6.7692,6.6981,6.7489,7.2902,7.1921,7.0669,7.3544,7.4593,7.483,7.439,8.0716,8.8057,9.4214,9.9559,10.4498,10.8997,11.0993,11.2583,11.4308,11.512,0.0,0.0,0.0,0.0,0.0,0.0,0.0,0.0,0.0,0.0,10.3787,10.3686,10.2976,10.1589,10.1453,10.1386,10.1487,9.9897,9.8815,9.8138,9.7258,9.577,9.3808,9.3639,9.2353,9.0357,9.0256,8.9782,8.9072,8.9072,8.8226,8.6805,8.5317,8.4776,8.4776,8.4708,8.4674,8.464,8.464,8.464,8.464,8.464,8.464,8.464,8.464,8.464,8.464,8.464,8.464,8.464,8.464,8.464,8.464,8.464,8.464,8.464,8.464,8.4573,8.4539,8.4539,8.4539,8.4539,8.4471,8.4505,8.4268,8.3524,8.3422,8.3152,8.2475,8.2408,8.2408,8.234,8.2272,8.19,8.1088,7.9092,7.7874,7.7841,7.713,7.6318,7.5473,7.4864,7.4153,7.3409,7.3443,7.3477,7.3477,7.2732,7.2394,6.5324,6.5865,6.6406,6.759,6.8876,7.0804,7.4458,7.5168,7.6149,8.0073,8.1088,8.1596,8.2712,8.6602,9.144,9.6954,10.2603,10.7407,11.0519,11.2617,11.4207,11.5289,0.0,0.0,0.0,0.0,0.0,0.0,0.0,0.0,0.0,0.0,0.0,10.3618,10.3179,10.2401,10.1386,10.0405,9.9965,9.9965,9.9356,9.895,9.8612,9.6954,9.5499,9.4214,9.2793,9.1406,9.0154,8.9715,8.9342,8.9038,8.8598,8.8361,8.8091,8.6602,8.6061,8.5993,8.552,8.5046,8.464,8.464,8.464,8.464,8.464,8.464,8.464,8.464,8.464,8.464,8.464,8.464,8.464,8.464,8.464,8.464,8.464,8.464,8.464,8.464,8.464,8.464,8.464,8.464,8.464,8.464,8.464,8.4539,8.4234,8.42,8.4099,8.3828,8.3355,8.3084,8.3084,8.2678,8.2272,8.2002,8.075,7.9634,7.872,7.8416,7.7705,7.6454,7.6623,7.6352,7.5608,7.5608,7.5608,7.5574,7.3849,7.3071,6.37,6.4072,6.4986,6.6474,6.9316,7.2902,7.7468,7.9498,8.1934,8.7144,8.7414,8.7211,8.8734,9.0865,9.3842,9.8375,10.4498,10.9505,11.1805,11.3801,11.512,0.0,0.0,0.0,0.0,0.0,0.0,0.0,0.0,0.0,0.0,0.0,0.0,0.0,10.2401,10.169,10.0675,9.939,9.8645,9.8375,9.8172,9.8307,9.8679,9.6447,9.506,9.4248,9.2184,9.0763,8.9816,8.9309,8.8937,8.8666,8.7955,8.782,8.7922,8.6907,8.6569,8.6467,8.596,8.5452,8.4945,8.4708,8.464,8.464,8.464,8.464,8.464,8.464,8.464,8.464,8.464,8.464,8.464,8.464,8.464,8.464,8.464,8.464,8.464,8.464,8.464,8.464,8.464,8.464,8.464,8.464,8.464,8.464,8.464,8.464,8.464,8.464,8.4167,8.3862,8.3862,8.3389,8.3016,8.278,8.2272,8.1325,7.987,7.9363,7.8653,7.7604,7.7841,7.7739,7.7232,7.6995,7.6893,7.686,7.4796,7.3849,6.4106,6.2956,6.2753,6.4275,6.7489,7.28,8.2475,8.5249,8.7719,9.4451,9.347,9.1372,9.1372,9.3233,9.5702,9.8645,10.5411,11.1095,11.3293,11.4816,11.5526,0.0,0.0,0.0,0.0,0.0,0.0,0.0,0.0,0.0,0.0,0.0,0.0,0.0,10.1386,10.0608,9.9085,9.8375,9.7631,9.6853,9.6108,9.6548,9.7901,9.5702,9.4282,9.347,9.1947,9.0459,8.9072,8.9072,8.8632,8.7922,8.7211,8.6467,8.579,8.579,8.579,8.579,8.579,8.579,8.5655,8.4877,8.464,8.464,8.464,8.464,8.464,8.464,8.464,8.464,8.464,8.464,8.464,8.464,8.464,8.464,8.464,8.464,8.464,8.464,8.464,8.464,8.464,8.464,8.464,8.464,8.464,8.464,8.464,8.464,8.464,8.464,8.464,8.464,8.464,8.464,8.4302,8.3558,8.349,8.2847,8.1359,7.9904,7.9126,7.9126,7.8382,7.801,7.801,7.7266,7.6927,7.6893,7.5337,7.4627,6.3193,6.3328,6.441,6.6406,7.2124,7.9092,8.6163,8.7922,9.0324,9.8104,9.7732,9.6007,9.6007,9.7428,9.8882,9.9728,10.531,10.9911,11.1095,11.3023,0.0,0.0,0.0,0.0,0.0,0.0,0.0,0.0,0.0,0.0,0.0,0.0,0.0,0.0,10.0303,9.9322,9.8341,9.7597,9.6853,9.6108,9.4857,9.5026,9.6413,9.4687,9.3503,9.2692,9.1203,8.9985,8.9038,8.8531,8.8192,8.7922,8.7211,8.6771,8.6569,8.6569,8.623,8.579,8.579,8.5418,8.4945,8.4708,8.464,8.464,8.464,8.464,8.464,8.464,8.464,8.464,8.464,8.464,8.464,8.464,8.464,8.464,8.464,8.464,8.464,8.464,8.464,8.464,8.464,8.464,8.464,8.464,8.464,8.464,8.464,8.464,8.464,8.464,8.464,8.464,8.464,8.464,8.4539,8.4302,8.3795,8.2847,8.1359,8.1393,8.0953,7.9904,8.0175,8.0073,7.9532,7.8822,7.845,7.8416,7.6927,7.6217,6.3091,6.3903,6.5865,6.9248,7.5405,8.2746,9.0797,9.4011,9.6853,10.2401,10.1589,9.9796,9.9796,10.0032,10.0405,10.1014,10.5411,10.8997,10.9775,11.1501,0.0,0.0,0.0,0.0,0.0,0.0,0.0,0.0,0.0,0.0,0.0,0.0,0.0,0.0,9.9457,9.8172,9.7157,9.6074,9.5195,9.4451,9.3233,9.3131,9.3977,9.3064,9.2421,9.188,9.0391,8.9342,8.8632,8.8158,8.7651,8.7076,8.6636,8.6264,8.6027,8.6366,8.6163,8.579,8.579,8.5486,8.5046,8.4708,8.464,8.464,8.464,8.464,8.464,8.464,8.464,8.464,8.464,8.464,8.464,8.464,8.464,8.464,8.464,8.464,8.464,8.464,8.464,8.464,8.464,8.464,8.464,8.464,8.464,8.464,8.464,8.464,8.464,8.464,8.464,8.464,8.464,8.464,8.464,8.464,8.42,8.3422,8.2205,8.2306,8.2002,8.1088,8.1224,8.1054,8.0615,7.96,7.9126,7.9092,7.7874,7.7333,6.3666,6.4783,6.7218,7.2732,7.845,8.5452,9.6007,10.169,10.5073,10.6392,10.4701,10.2908,10.2705,10.169,10.1216,10.2502,10.5716,10.8287,10.8997,0.0,0.0,0.0,0.0,0.0,0.0,0.0,0.0,0.0,0.0,0.0,0.0,0.0,0.0,10.0032,9.851,9.7022,9.5601,9.418,9.3098,0.0,9.1541,9.1203,9.1203,9.1203,9.1169,9.1,8.9545,8.8531,8.7989,8.7854,8.7008,8.579,8.5723,8.5249,8.4708,8.5418,8.5689,8.5689,8.5689,8.5689,8.5554,8.4843,8.464,8.464,8.464,8.464,8.464,8.464,8.464,8.464,8.464,8.464,8.464,8.464,8.464,8.464,8.464,8.464,8.464,8.464,8.464,8.464,8.464,8.464,8.464,8.464,8.464,8.464,8.464,8.464,8.464,8.464,8.464,8.464,8.464,8.464,8.464,8.464,8.464,8.4302,8.3625,8.2949,8.2543,8.2408,8.1731,8.1359,8.1291,7.9904,7.9194,7.9194,7.8517,7.8179,6.4749,6.6305,6.9248,7.686,8.6196,9.4924,10.0303,10.3179,10.4769,10.5073,10.558,10.558,10.4396,10.4904,10.5208,10.4363,10.6325,10.8118,10.8219,0.0,0.0,0.0,0.0,0.0,0.0,0.0,0.0,0.0,0.0,0.0,0.0,0.0,0.0,9.8476,9.648,9.4992,9.4079,9.3131,9.2286,0.0,9.0797,9.0459,9.0459,9.0459,9.0121,8.9478,8.8023,8.7617,8.7922,8.6738,8.6061,8.5723,8.5114,8.4776,8.464,8.4809,8.4877,8.4877,8.4877,8.4877,8.4843,8.4674,8.464,8.464,8.464,8.464,8.464,8.464,8.464,8.464,8.464,8.464,8.464,8.464,8.464,8.464,8.464,8.464,8.464,8.464,8.464,8.464,8.464,8.464,8.464,8.464,8.464,8.464,8.464,8.464,8.464,8.464,8.464,8.464,8.464,8.464,8.464,8.464,8.464,8.4539,8.4403,8.4234,8.3592,8.2441,8.2238,8.1866,8.1291,8.0412,7.9972,7.9972,7.9803,7.9735,6.4986,6.8335,7.3612,8.3998,9.2861,9.9728,10.2401,10.3889,10.4667,10.4667,10.558,10.602,10.487,10.5276,10.558,10.4769,10.5682,10.6392,0.0,0.0,0.0,0.0,0.0,0.0,0.0,0.0,0.0,0.0,0.0,0.0,0.0,9.8172,9.6954,9.6954,9.4789,9.3233,9.2489,9.1744,9.0797,8.9715,8.9342,8.897,8.8632,8.9004,8.8734,8.7989,8.7245,8.6907,8.6873,8.6095,8.5554,8.5182,8.4776,8.464,8.464,8.464,8.464,8.464,8.464,8.464,8.464,8.464,8.464,8.464,8.464,8.464,8.464,8.464,8.464,8.464,8.464,8.464,8.464,8.464,8.464,8.464,8.464,8.464,8.464,8.464,8.464,8.464,8.464,8.464,8.464,8.464,8.464,8.4776,8.5114,8.5182,8.5182,8.5182,8.5182,8.5046,8.464,8.464,8.464,8.464,8.464,8.464,8.464,8.464,8.4268,8.349,8.278,8.2205,8.1832,8.0716,8.0378,8.0716,8.0716,8.0716,6.4647,7.0635,7.8788,9.0628,9.7326,10.1386,10.3009,10.399,10.4464,10.4295,10.5005,10.5377,10.4599,10.4566,10.4667,10.4498,10.4566,10.4667,0.0,0.0,0.0,0.0,0.0,0.0,0.0,0.0,0.0,0.0,0.0,0.0,9.8578,9.6548,9.5364,9.5229,9.3165,9.1744,9.1102,9.0256,8.9207,8.7989,8.7854,8.7414,8.6738,8.7347,8.7347,8.6907,8.6636,8.623,8.5757,8.5655,8.5215,8.464,8.464,8.464,8.464,8.464,8.464,8.464,8.464,8.464,8.464,8.464,8.464,8.464,8.464,8.464,8.464,8.464,8.464,8.464,8.464,8.464,8.464,8.464,8.464,8.464,8.464,8.464,8.464,8.464,8.464,8.464,8.464,8.464,8.464,8.464,8.464,8.4911,8.5689,8.579,8.5824,8.596,8.5858,8.552,8.4877,8.4708,8.464,8.464,8.464,8.464,8.464,8.464,8.464,8.464,8.3287,8.2611,8.2611,8.1257,8.0885,8.1494,8.1494,8.1494,6.3768,7.2902,8.3355,9.1541,9.6514,9.9965,10.2198,10.3212,10.3585,10.2908,10.3889,10.4599,10.3889,10.4261,10.4498,10.3889,10.4295,0.0,0.0,0.0,0.0,0.0,0.0,0.0,0.0,0.0,0.0,0.0,0.0,0.0,9.6311,9.4755,9.3571,9.2895,9.1338,9.0459,9.0357,8.897,8.8192,8.7989,8.7347,8.667,8.5926,8.6027,8.6399,8.6839,8.552,8.5249,8.5723,8.5046,8.4708,8.464,8.464,8.464,8.464,8.464,8.464,8.464,8.464,8.464,8.464,8.464,8.464,8.464,8.464,8.464,8.464,8.464,8.464,8.464,8.464,8.464,8.464,8.464,8.464,8.464,8.464,8.464,8.464,8.464,8.464,8.464,8.464,8.464,8.464,8.464,8.464,8.4911,8.5689,8.579,8.6027,8.667,8.6163,8.5757,8.5621,8.5012,8.464,8.464,8.464,8.464,8.464,8.464,8.464,8.464,8.3795,8.3355,8.3355,8.2509,8.2171,8.2272,8.2272,8.2272,6.8774,7.5574,8.2746,9.1947,9.6041,9.8544,10.1284,10.1792,10.1724,10.1893,10.169,10.169,10.2265,10.2603,10.257,10.1825,10.2705,0.0,0.0,0.0,0.0,0.0,0.0,0.0,0.0,0.0,0.0,0.0,0.0,9.5702,9.462,9.2725,9.1338,9.056,8.9512,8.8767,8.8361,8.7719,8.7177,8.6738,8.5993,8.5452,8.5148,8.5148,8.5317,8.5587,8.4911,8.4809,8.5114,8.4776,8.464,8.464,8.464,8.464,8.464,8.464,8.464,8.464,8.464,8.464,8.464,8.464,8.464,8.464,8.464,8.464,8.464,8.464,8.464,8.464,8.464,8.464,8.464,8.464,8.464,8.464,8.464,8.464,8.464,8.464,8.464,8.464,8.464,8.4979,8.5283,8.5283,8.5621,8.6163,8.6941,8.7008,8.7008,8.6907,8.6602,8.6061,8.5215,8.4809,8.464,8.464,8.464,8.464,8.464,8.464,8.464,8.464,8.3896,8.349,8.349,8.278,8.2611,8.3016,8.3016,8.3016,7.0229,7.4661,7.916,8.8869,9.3098,9.5838,9.9424,9.9931,9.9863,10.0675,9.9728,9.9051,9.9829,10.0405,10.0675,10.0303,0.0,0.0,0.0,0.0,0.0,0.0,0.0,0.0,0.0,0.0,0.0,0.0,0.0,9.3639,9.2489,9.1034,8.9681,8.8564,8.8192,8.7651,8.6907,8.6704,8.623,8.5486,8.4911,8.464,8.464,8.464,8.464,8.464,8.464,8.464,8.464,8.464,8.464,8.464,8.464,8.464,8.464,8.464,8.464,8.464,8.464,8.464,8.464,8.464,8.464,8.464,8.464,8.464,8.464,8.464,8.4776,8.4911,8.4911,8.5046,8.5215,8.5215,8.5046,8.4877,8.4674,8.464,8.464,8.464,8.464,8.464,8.464,8.5283,8.579,8.579,8.6433,8.7177,8.7922,8.7854,8.7651,8.7482,8.6974,8.623,8.5283,8.4843,8.464,8.464,8.464,8.464,8.464,8.464,8.464,8.464,8.4065,8.3795,8.3795,8.3253,8.3253,8.3795,8.3795,8.3795,6.3024,6.732,7.2462,8.0073,8.5757,9.0831,9.5939,9.7631,9.8341,9.9051,9.8612,9.7664,9.6311,9.78,9.9424,10.01,0.0,0.0,0.0,0.0,0.0,0.0,0.0,0.0,0.0,0.0,0.0,0.0,0.0,9.1609,8.9444,8.9884,8.9241,8.7076,8.7651,8.7651,8.6907,8.6196,8.5452,8.4674,8.464,8.464,8.464,8.464,8.464,8.464,8.464,8.464,8.464,8.464,8.464,8.464,8.464,8.464,8.464,8.464,8.464,8.464,8.464,8.464,8.464,8.464,8.464,8.464,8.464,8.464,8.464,8.464,8.5148,8.5723,8.5723,8.6264,8.6805,8.6805,8.623,8.552,8.4776,8.464,8.464,8.464,8.464,8.464,8.464,8.5283,8.579,8.579,8.6433,8.7177,8.7922,8.738,8.7482,8.8835,8.711,8.6095,8.6738,8.5452,8.464,8.464,8.464,8.464,8.464,8.464,8.464,8.464,8.4573,8.4573,8.4573,8.4539,8.4539,8.4573,8.4573,8.4573,6.3057,6.5392,6.8504,7.6487,8.1291,8.5215,8.9512,9.2522,9.4485,9.4755,9.462,9.4417,9.4383,9.6176,9.7292,9.6142,0.0,0.0,0.0,0.0,0.0,0.0,0.0,0.0,0.0,0.0,0.0,0.0,0.0,0.0,8.914,8.8903,8.7989,8.623,8.6433,8.6196,8.5452,8.5182,8.4911,8.464,8.464,8.464,8.464,8.464,8.464,8.464,8.464,8.464,8.464,8.464,8.464,8.464,8.464,8.464,8.464,8.464,8.464,8.464,8.464,8.464,8.464,8.464,8.464,8.464,8.464,8.464,8.464,8.464,8.5182,8.579,8.579,8.6332,8.6907,8.6907,8.6332,8.5723,8.5418,8.4979,8.464,8.464,8.464,8.464,8.464,8.5655,8.6501,8.6501,8.755,8.8395,8.8666,8.8463,8.8328,8.8395,8.7685,8.7144,8.6941,8.6399,8.6095,8.6095,8.6095,8.6095,8.6095,8.5621,8.5384,8.5384,8.4877,8.464,8.464,8.464,8.464,8.464,8.464,8.464,6.1907,6.3294,6.5662,7.3138,7.6115,7.8788,8.4809,8.7482,8.9038,9.0324,9.1169,9.1677,9.1711,9.3334,9.4315,0.0,0.0,0.0,0.0,0.0,0.0,0.0,0.0,0.0,0.0,0.0,0.0,0.0,0.0,0.0,8.8023,8.7753,8.7076,8.5824,8.552,8.5148,8.464,8.464,8.464,8.464,8.464,8.4505,8.4268,8.4505,8.4471,8.4268,8.4505,8.464,8.464,8.464,8.464,8.464,8.464,8.464,8.464,8.464,8.464,8.464,8.464,8.464,8.464,8.464,8.464,8.464,8.464,8.464,8.4674,8.4945,8.5587,8.623,8.6467,8.7076,8.7583,8.7347,8.6704,8.6163,8.6163,8.5351,8.464,8.464,8.464,8.4708,8.4979,8.6061,8.7008,8.7245,8.8294,8.9072,8.9072,8.8869,8.8632,8.8395,8.7922,8.755,8.7279,8.7042,8.6907,8.6907,8.6907,8.6907,8.6907,8.6433,8.6027,8.579,8.5283,8.4877,8.464,8.464,8.464,8.464,8.464,8.464,0.0,0.0,0.0,6.9553,6.9958,7.1616,8.1832,8.2509,8.2069,8.5824,8.8361,8.9512,8.8192,8.9106,9.056,0.0,0.0,0.0,0.0,0.0,0.0,0.0,0.0,0.0,0.0,0.0,0.0,0.0,0.0,8.6602,8.5824,8.6467,8.6501,8.579,8.5012,8.464,8.464,8.464,8.464,8.464,8.464,8.4234,8.3524,8.4268,8.42,8.3524,8.4268,8.4606,8.4606,8.4606,8.464,8.464,8.464,8.464,8.464,8.464,8.464,8.464,8.464,8.464,8.464,8.464,8.464,8.464,8.464,8.464,8.4776,8.5554,8.6332,8.7076,8.7854,8.8564,8.8903,8.8192,8.7482,8.6941,8.6941,8.5757,8.4708,8.4708,8.4708,8.4945,8.5689,8.6433,8.7177,8.7888,8.8632,8.9072,8.9072,8.8463,8.8294,8.9004,8.782,8.7245,8.7955,8.738,8.6974,8.6974,8.6974,8.6974,8.6974,8.6941,8.6602,8.5858,8.5824,8.5452,8.4708,8.464,8.464,8.464,8.464,8.464,5.981,0.0,0.0,0.0,0.0,0.0,7.006,7.2563,7.5134,7.8889,8.1426,8.3659,8.596,8.6738,8.7144,0.0,0.0,0.0,0.0,0.0,0.0,0.0,0.0,0.0,0.0,0.0,0.0,0.0,8.7042,8.6602,8.5824,8.5452,8.5148,8.4945,8.4742,8.464,8.464,8.464,8.464,8.464,8.464,8.4234,8.349,8.3693,8.3693,8.3524,8.3727,8.3795,8.3862,8.4403,8.464,8.464,8.464,8.464,8.464,8.464,8.464,8.464,8.464,8.464,8.464,8.464,8.464,8.464,8.464,8.464,8.4776,8.5554,8.6332,8.7211,8.8463,8.8937,8.9038,8.8835,8.8226,8.7685,8.7685,8.6941,8.6264,8.6264,8.6264,8.6332,8.6569,8.7211,8.7753,8.7955,8.8632,8.9072,8.9072,8.8903,8.8869,8.9072,8.8734,8.8564,8.8767,8.8598,8.8497,8.8497,8.8497,8.8497,8.8497,8.7989,8.7583,8.738,8.6873,8.6501,8.6264,8.5148,8.464,8.464,8.464,8.4911,6.1129,6.052,6.0554,6.299,0.0,0.0,6.5831,6.7354,6.9214,7.3274,7.6115,7.872,8.1562,8.2847,0.0,0.0,0.0,0.0,0.0,0.0,0.0,0.0,0.0,0.0,0.0,0.0,0.0,8.5993,8.596,8.5757,8.5317,8.4877,8.4471,8.4167,8.4167,8.3998,8.3693,8.3693,8.3693,8.3693,8.3693,8.3456,8.305,8.3355,8.3321,8.305,8.3355,8.349,8.3524,8.3964,8.4167,8.42,8.4505,8.464,8.464,8.464,8.464,8.464,8.464,8.464,8.464,8.464,8.464,8.464,8.464,8.464,8.4843,8.596,8.7008,8.8023,8.8869,8.9072,8.9072,8.9072,8.8531,8.8091,8.8395,8.7888,8.7279,8.6974,8.6907,8.7008,8.7313,8.7719,8.8091,8.8395,8.8801,8.9072,8.9072,8.9072,8.9072,8.9072,8.9072,8.9072,8.9072,8.9072,8.9072,8.9072,8.9072,8.9072,8.9072,8.8666,8.8294,8.7989,8.7583,8.7211,8.6907,8.6027,8.5587,8.5587,8.5587,8.5655,6.3024,6.2347,6.255,6.5662,6.3057,0.0,6.5831,6.5019,6.4444,6.8605,7.1548,7.3984,7.5912,7.8077,0.0,0.0,0.0,0.0,0.0,0.0,0.0,0.0,0.0,0.0,0.0,8.5655,8.5384,8.4674,8.464,8.4573,8.4505,8.4505,8.4167,8.3389,8.3389,8.305,8.2408,8.2408,8.2408,8.2408,8.2408,8.2374,8.2306,8.305,8.2983,8.234,8.305,8.3389,8.3389,8.3456,8.3558,8.3693,8.437,8.464,8.464,8.464,8.464,8.464,8.464,8.464,8.464,8.464,8.464,8.464,8.464,8.464,8.4911,8.6366,8.7854,8.897,8.897,8.897,8.897,8.897,8.8531,8.826,8.8835,8.8531,8.7922,8.7279,8.7144,8.7347,8.8023,8.8125,8.8328,8.897,8.9072,8.9072,8.9072,8.9072,8.9072,8.9072,8.9072,8.9072,8.9072,8.9072,8.9072,8.9072,8.9072,8.9072,8.9072,8.9072,8.8767,8.8125,8.8125,8.7786,8.7144,8.6974,8.6941,8.7042,8.6941,8.6569,6.5831,6.5392,6.4715,0.0,0.0,0.0,6.1298,6.1264,6.2313,6.4377,6.529,6.7049,7.1582,7.4221,0.0,0.0,0.0,0.0,0.0,0.0,0.0,0.0,0.0,0.0,0.0,8.4843,8.4776,8.464,8.464,8.437,8.3761,8.3727,8.3389,8.2644,8.2611,8.2543,8.2408,8.2408,8.2408,8.2408,8.2408,8.2103,8.1528,8.2272,8.2205,8.1562,8.2306,8.2611,8.2678,8.3253,8.3862,8.4403,8.4573,8.464,8.464,8.464,8.464,8.464,8.464,8.464,8.464,8.464,8.464,8.464,8.464,8.464,8.4809,8.5757,8.7076,8.8192,8.8192,8.8192,8.8192,8.8192,8.8531,8.8734,8.8294,8.8564,8.8835,8.87,8.8666,8.87,8.8835,8.8869,8.8903,8.9072,8.9072,8.9072,8.9072,8.9072,8.9072,8.9072,8.9072,8.9072,8.9072,8.9072,8.9072,8.9072,8.9072,8.9072,8.9072,8.9072,8.9004,8.8869,8.8869,8.8801,8.8666,8.7482,8.7211,8.7786,8.7177,8.6839,0.0,0.0,0.0,6.6203,0.0,0.0,0.0,6.0689,6.0689,6.255,6.2347,6.3091,6.7218,0.0,0.0,0.0,0.0,0.0,0.0,0.0,0.0,0.0,0.0,0.0,0.0,8.3625,8.42,8.4606,8.4268,8.3896,8.3524,8.3152,8.2611,8.1866,8.1832,8.1663,8.1325,8.1291,8.1291,8.1291,8.1291,8.1291,8.1291,8.1663,8.1629,8.1291,8.1697,8.2069,8.2441,8.2813,8.3625,8.464,8.464,8.464,8.464,8.464,8.464,8.464,8.464,8.464,8.464,8.464,8.464,8.464,8.464,8.5148,8.5757,8.579,8.711,8.8463,8.8091,8.7989,8.8091,8.8463,8.8531,8.8531,8.8531,8.8835,8.9072,8.9072,8.9072,8.9072,8.9072,8.9072,8.9072,8.9072,8.9072,8.9072,8.9072,8.9072,8.9072,8.9072,8.9072,8.9241,8.9613,8.9647,8.9647,8.9647,8.9647,8.9478,8.9106,8.9072,8.9241,8.9647,8.9647,8.9816,9.0188,8.9106,8.8564,8.8531,8.8158,8.7786,0.0,0.0,0.0,0.0,0.0,6.5425,0.0,0.0,0.0,0.0,0.0,0.0,0.0,0.0,0.0,0.0,0.0,0.0,0.0,0.0,0.0,0.0,0.0,0.0,0.0,8.146,8.2611,8.4099,8.3118,8.2611,8.305,8.2374,8.1629,8.0885,8.0716,8.0445,8.0006,8.0006,8.0073,8.0209,8.0209,8.0513,8.1088,8.1224,8.119,8.1088,8.1224,8.1731,8.2408,8.2408,8.3287,8.464,8.464,8.464,8.464,8.464,8.464,8.464,8.464,8.464,8.464,8.464,8.464,8.464,8.464,8.5587,8.6535,8.5757,8.7076,8.8497,8.7753,8.7786,8.8091,8.8564,8.8429,8.8328,8.8767,8.897,8.9072,8.9072,8.9072,8.9072,8.9072,8.9072,8.9072,8.9072,8.9072,8.9072,8.9072,8.9072,8.9072,8.9072,8.9207,8.9545,9.0154,9.0324,9.0357,9.0222,9.0222,8.9884,8.9106,8.9241,8.9579,9.0188,9.0357,9.0696,9.1305,9.056,8.9884,8.9309,8.914,8.87,0.0,0.0,0.0,0.0,7.2699,0.0,0.0,0.0,0.0,5.9877,0.0,0.0,0.0,0.0,0.0,0.0,0.0,0.0,0.0,0.0,0.0,0.0,0.0,0.0,0.0,0.0,7.828,8.234,8.0141,7.9464,8.1426,8.0851,8.0107,7.9397,7.872,7.8653,7.9228,7.9228,7.9566,8.0209,8.0209,8.0242,8.0344,8.0987,8.0919,8.0344,8.1021,8.1731,8.2408,8.2408,8.3287,8.464,8.464,8.464,8.464,8.464,8.464,8.464,8.464,8.464,8.464,8.464,8.464,8.464,8.464,8.5215,8.5757,8.4979,8.5926,8.6974,8.623,8.7008,8.7854,8.7279,8.8091,8.8801,8.826,8.8632,8.9072,8.9072,8.9072,8.9072,8.9072,8.9072,8.9072,8.9072,8.9072,8.9072,8.9072,8.9072,8.9072,8.9072,8.9681,9.0121,9.0188,9.0797,9.0899,9.0256,9.0222,8.9884,8.9106,8.9715,9.0121,9.0222,9.0831,9.1203,9.1305,9.056,9.0154,9.0053,8.9376,8.87,0.0,0.0,0.0,0.0,0.0,0.0,6.6745,0.0,6.2618,0.0,0.0,0.0,0.0,0.0,0.0,0.0,0.0,0.0,0.0,0.0,0.0,0.0,0.0,0.0,0.0,0.0,0.0,0.0,0.0,7.6826,7.8653,7.845,7.8551,7.9092,7.8382,7.8348,7.9092,7.9126,7.9464,8.0209,8.0209,8.0209,8.0209,8.0513,8.0479,8.0209,8.0513,8.1325,8.2408,8.2408,8.3287,8.464,8.464,8.464,8.464,8.464,8.464,8.464,8.464,8.464,8.464,8.464,8.464,8.464,8.464,8.5182,8.5723,8.5384,8.6061,8.6941,8.7042,8.7211,8.7516,8.8057,8.8328,8.8497,8.8598,8.8869,8.9072,8.9072,8.9072,8.9072,8.9072,8.9072,8.9072,8.9072,8.9072,8.9241,8.9681,8.9748,8.9884,9.0324,9.0662,9.1,9.144,9.1778,9.1812,9.1508,9.1068,9.0696,9.0391,9.0662,9.1034,9.1474,9.1778,9.2184,9.2624,9.188,9.1271,9.0797,8.9613,8.8903,7.8247,0.0,0.0,0.0,0.0,0.0,0.0,0.0,0.0,0.0,0.0,0.0,0.0,0.0,0.0,0.0,0.0,0.0,0.0,0.0,0.0,0.0,0.0,0.0,0.0,0.0,0.0,0.0,0.0,0.0,7.5845,7.598,7.6657,7.8111,7.7638,7.7807,7.8788,7.8822,7.9261,8.0209,8.0209,8.0209,8.0209,8.0209,8.0209,8.0209,8.0209,8.1054,8.2408,8.2408,8.3287,8.464,8.464,8.464,8.464,8.464,8.464,8.464,8.464,8.464,8.464,8.464,8.464,8.464,8.464,8.5182,8.579,8.579,8.6467,8.7279,8.7617,8.7617,8.7719,8.8564,8.8531,8.8429,8.897,8.9072,8.9072,8.9072,8.9072,8.914,8.9342,8.9376,8.9376,8.9376,8.9545,8.9884,9.0425,9.0493,9.0729,9.1237,9.1474,9.1812,9.2387,9.2624,9.2658,9.2421,9.1711,9.1305,9.1305,9.1474,9.1947,9.2725,9.2962,9.3334,9.3876,9.3131,9.2353,9.1575,9.0087,8.9275,0.0,0.0,0.0,7.6251,0.0,0.0,0.0,0.0,6.7117,0.0,0.0,0.0,0.0,0.0,6.3632,6.1603,0.0,0.0,0.0,0.0,0.0,0.0,0.0,0.0,0.0,0.0,0.0,0.0,0.0,0.0,7.3341,7.3578,7.4289,7.5743,7.5777,7.6487,7.801,7.801,7.8754,8.0209,8.0209,8.0209,8.0209,8.0209,8.0209,8.0209,8.0209,8.1054,8.2408,8.2408,8.3287,8.464,8.464,8.464,8.464,8.464,8.464,8.464,8.464,8.464,8.464,8.464,8.464,8.464,8.464,8.5182,8.579,8.579,8.6839,8.782,8.711,8.7989,8.8835,8.8192,8.8564,8.9038,8.9072,8.9072,8.9072,8.9072,8.9072,8.9309,9.0053,9.0154,9.0154,9.0154,9.0763,9.1237,9.1271,9.1271,9.1271,9.1305,9.1947,9.2387,9.2421,9.3098,9.3233,9.2455,9.1711,9.1305,9.1305,9.2015,9.2759,9.3537,9.4248,9.4654,9.4687,9.3909,9.3131,9.2353,9.0865,8.9782,0.0,0.0,8.4776,7.9025,0.0,0.0,0.0,0.0,0.0,0.0,0.0,0.0,0.0,0.0,6.4038,6.2313,6.1163,0.0,0.0,0.0,0.0,0.0,0.0,0.0,0.0,0.0,0.0,0.0,0.0,0.0,0.0,6.9755,7.1718,7.4153,7.4728,7.5946,7.7976,7.7976,7.872,8.0209,8.0209,8.0209,8.0209,8.0209,8.0209,8.0209,8.0209,8.1054,8.2408,8.2408,8.3287,8.464,8.464,8.464,8.464,8.464,8.464,8.464,8.464,8.464,8.464,8.464,8.464,8.464,8.464,8.4809,8.5215,8.623,8.6535,8.6805,8.8023,8.8361,8.8429,8.8666,8.8903,8.9072,8.9072,8.9072,8.9241,8.9715,8.9816,9.0053,9.0797,9.1338,9.1508,9.1,9.1135,9.1474,9.1981,9.2049,9.2252,9.2759,9.303,9.3402,9.3876,9.462,9.4518,9.3267,9.3436,9.3334,9.2827,9.3537,9.4045,9.4315,9.4586,9.4721,9.4721,9.3943,9.3199,9.2421,9.1913,9.1,8.5046,8.5554,0.0,8.0987,7.916,0.0,7.2428,0.0,0.0,0.0,0.0,0.0,0.0,0.0,0.0,6.3835,6.1839,5.981,0.0,5.6697,0.0,0.0,0.0,0.0,0.0,0.0,0.0,0.0,0.0,0.0,0.0,0.0,6.9654,7.2631,7.395,7.5709,7.7976,7.7976,7.872,8.0209,8.0209,8.0209,8.0209,8.0209,8.0209,8.0209,8.0209,8.0885,8.2035,8.2306,8.3118,8.4234,8.4505,8.464,8.464,8.464,8.464,8.464,8.464,8.464,8.464,8.464,8.464,8.464,8.464,8.5012,8.5655,8.6636,8.6941,8.7279,8.87,8.8734,8.8497,8.897,8.9072,8.9072,8.9072,8.9072,8.9309,9.0053,9.0222,9.0527,9.1541,9.2116,9.2252,9.1778,9.1913,9.2286,9.2759,9.3064,9.3334,9.3571,9.3808,9.418,9.4654,9.5364,9.5398,9.4417,9.4823,9.489,9.4383,9.4823,9.5736,9.7056,9.6041,9.5872,9.6683,9.5127,9.3842,9.2827,9.2827,9.2015]}]]